GFSGBSN_250_rhum_000.txt.gz
RH
69 49 23 54 49 58 75 91 66 62 65 53 55 17 4 4 3 2 4 7 7 5 5 6 9 10 11 11 18 20 21 23 24 28 28 33 33 35 29 24 20 17 16 15 16 19 21
66 47 22 58 49 72 96 100 81 74 85 64 60 24 4 4 3 3 2 4 7 5 6 5 7 7 10 12 15 20 22 19 24 28 30 28 40 34 24 27 24 17 16 15 16 17 16
65 43 36 67 55 74 98 100 88 70 86 87 80 41 8 4 2 2 2 2 4 7 5 6 5 6 8 20 11 18 20 19 19 24 30 36 31 25 22 27 26 20 17 16 15 16 16
69 46 43 73 60 72 94 98 95 61 69 100 100 64 14 5 3 1 1 2 3 6 6 6 6 6 9 16 10 15 16 16 17 24 27 33 26 19 19 22 27 24 20 17 16 18 22
75 59 28 76 82 76 96 100 82 75 70 100 100 85 29 7 4 2 2 2 2 4 8 6 6 6 10 8 11 18 17 16 17 24 28 25 21 18 22 23 24 24 19 18 22 24 23
70 81 26 82 89 80 100 100 72 80 79 100 100 100 83 28 6 3 2 2 2 3 8 7 7 9 7 9 11 16 20 16 17 23 24 22 19 18 23 23 27 25 19 20 22 28 22
66 91 41 72 87 72 88 99 58 85 100 100 100 100 100 52 19 5 3 3 2 2 7 8 9 12 9 9 10 12 16 17 18 16 18 19 18 19 24 27 23 22 22 22 28 26 21
67 94 56 63 88 73 88 80 74 89 100 100 100 100 100 100 54 14 5 4 3 3 7 7 9 12 10 9 11 11 13 15 14 16 14 16 16 21 24 20 22 21 22 25 29 26 18
75 97 67 60 85 73 92 69 92 77 100 83 100 100 100 100 99 26 6 5 4 4 8 8 10 12 12 10 12 12 12 15 18 15 14 18 20 23 23 20 22 22 24 26 29 26 18
84 98 81 57 83 77 100 68 94 83 100 100 100 100 100 100 100 98 13 7 5 6 11 10 12 14 12 11 12 12 12 13 14 15 14 17 20 15 18 20 22 21 24 29 31 26 19
94 100 91 60 80 77 100 77 100 72 100 100 99 100 100 100 100 100 90 23 8 9 14 12 15 17 14 12 13 12 11 12 14 14 13 14 13 13 14 18 21 21 25 28 29 25 19
100 100 97 65 78 82 100 76 99 80 96 100 67 100 100 100 100 100 100 90 12 11 17 12 15 18 16 13 14 12 11 12 13 13 14 14 14 14 19 19 21 22 24 28 28 24 22
100 100 100 80 73 95 100 96 100 87 96 100 81 100 100 100 100 100 100 100 34 12 17 12 15 18 17 15 13 12 11 11 11 11 11 12 13 14 17 18 20 26 25 25 27 26 23
100 100 100 97 57 100 98 100 85 79 100 100 98 100 100 100 100 100 100 100 98 13 19 17 15 18 19 18 15 13 12 14 14 15 15 13 12 14 16 17 22 27 26 22 27 26 23
100 100 100 100 55 100 93 100 82 78 99 100 72 100 99 100 100 100 100 100 100 95 23 26 19 17 19 21 21 14 15 16 17 16 14 13 16 19 19 19 24 29 28 26 29 26 24
96 100 100 98 74 91 96 100 76 77 94 98 90 100 100 100 98 100 100 100 100 100 100 38 31 34 23 21 23 22 24 25 22 19 18 15 16 17 19 23 27 29 27 28 26 25 34
87 96 100 92 80 84 100 100 98 70 83 83 82 75 100 100 77 100 100 91 100 100 100 100 65 51 37 44 38 26 24 28 28 28 25 28 28 26 26 29 32 28 29 29 26 24 48
81 90 100 79 78 78 100 100 100 62 93 74 86 76 100 100 100 94 99 100 100 100 100 92 100 100 67 37 40 38 42 45 44 32 27 28 30 27 27 26 25 29 31 29 29 39 64
74 81 99 76 63 69 98 100 100 54 80 84 91 82 100 90 100 100 63 100 100 100 100 64 81 87 87 62 40 37 36 41 43 59 56 37 37 34 31 32 36 36 38 33 30 54 94
79 79 93 76 47 62 92 100 100 43 88 72 87 74 66 100 87 100 100 84 98 100 99 97 95 100 83 89 89 90 73 65 56 48 42 40 41 46 50 44 38 33 31 41 100 100 99
71 81 89 72 42 55 85 100 95 45 72 71 90 100 63 51 100 91 100 97 95 100 79 100 100 100 100 100 99 100 100 100 98 98 98 88 80 79 66 45 44 48 92 100 100 100 100
68 74 89 80 44 46 72 99 88 55 60 69 80 100 99 67 76 95 93 100 100 80 75 99 100 100 100 99 100 100 100 100 100 100 100 100 100 100 100 97 100 100 100 100 100 100 100
70 74 84 96 64 40 57 82 93 49 39 63 70 70 86 75 96 62 75 100 100 100 100 63 68 74 100 100 100 93 100 100 100 100 100 100 99 100 100 100 100 100 100 100 100 100 100
63 74 81 94 95 55 46 61 86 56 42 45 52 58 82 82 96 89 64 64 80 93 100 100 95 57 80 100 100 100 91 84 95 100 100 100 98 93 97 90 95 97 98 99 95 97 98
59 65 81 88 95 85 49 49 64 72 49 45 50 46 54 72 84 90 100 97 75 92 100 100 100 100 48 62 93 100 100 100 100 99 99 94 96 100 100 100 100 100 99 98 92 89 100
53 64 74 86 86 99 73 45 50 56 52 49 45 55 50 52 65 63 88 100 99 77 76 77 93 98 96 55 49 62 71 96 100 100 100 100 100 100 100 100 100 100 100 100 100 100 95
53 55 68 80 80 81 93 73 45 52 52 50 47 47 56 58 52 58 82 88 93 96 70 69 61 64 66 65 53 44 53 67 79 70 75 88 94 96 99 100 100 100 100 96 88 81 83
78 68 70 77 82 71 84 82 71 49 46 54 48 46 43 46 58 63 61 71 81 82 68 76 84 69 52 46 50 47 40 43 56 62 53 53 68 78 79 76 74 68 63 66 69 72 72
96 85 73 74 91 73 71 81 58 57 49 51 65 53 44 41 42 50 59 63 67 72 71 80 82 92 88 92 80 67 58 49 46 63 71 72 73 67 66 64 72 74 76 76 72 70 72

GFSGBSN_250_rhum_003.txt.gz
RH
62 99 87 71 59 26 60 78 59 54 67 68 78 77 100 89 45 9 3 3 3 3 6 6 5 7 9 10 15 20 20 22 20 25 27 22 19 33 41 34 20 23 19 16 15 16 19
73 100 93 69 65 32 63 76 62 55 76 80 81 98 97 95 36 7 4 3 4 3 5 7 5 5 7 9 14 20 19 20 19 26 27 25 26 38 34 31 29 29 20 17 16 15 15
85 100 96 76 63 37 77 80 74 60 72 77 96 100 98 100 42 5 4 3 3 3 4 6 6 5 6 13 13 17 19 19 20 26 26 30 25 24 41 35 43 22 21 18 15 15 14
84 100 99 83 67 41 85 79 67 59 78 98 100 100 100 100 56 7 4 2 2 3 3 5 5 5 6 12 10 16 18 19 20 25 28 28 25 23 35 40 37 22 22 22 16 14 14
84 100 99 91 76 47 88 77 59 82 82 92 89 82 100 100 84 13 4 2 1 3 2 5 6 6 8 8 10 16 19 19 20 25 23 23 24 26 30 38 33 27 25 25 22 18 16
82 100 100 96 82 60 92 79 59 86 99 74 70 100 95 100 84 24 5 2 1 2 3 5 5 5 8 7 11 13 20 19 22 24 23 19 21 26 30 34 46 37 20 23 26 21 16
80 100 100 100 82 73 91 76 68 89 89 98 80 95 100 100 75 36 10 4 2 2 3 6 7 9 8 7 10 12 16 19 21 21 20 18 20 26 31 43 45 28 21 24 24 20 14
77 100 100 100 84 82 87 83 84 96 100 90 96 92 100 100 99 53 19 4 3 3 2 5 6 9 7 6 10 12 12 18 16 18 20 18 19 24 28 37 33 28 28 30 27 24 15
76 100 100 100 83 87 80 90 98 85 100 74 100 100 100 100 100 76 21 7 4 4 3 5 6 9 7 6 9 13 12 14 16 16 19 20 22 22 28 34 34 31 40 33 26 24 21
76 100 100 100 81 90 76 97 98 77 100 76 100 82 100 100 100 100 30 12 6 5 4 7 6 9 8 7 8 12 12 14 15 14 16 20 21 21 25 33 34 31 38 25 24 23 23
72 100 100 100 89 91 76 100 100 64 99 78 100 100 100 100 100 100 69 17 10 6 6 9 9 9 9 8 9 12 12 12 16 18 13 17 18 18 24 31 30 34 26 25 23 22 23
66 100 100 100 100 86 74 100 100 66 93 95 100 100 100 100 100 100 93 20 11 9 8 13 11 9 11 10 9 9 12 13 15 15 18 22 20 20 28 30 29 21 24 27 24 21 28
64 100 100 100 100 80 72 100 100 83 86 95 100 70 100 100 100 100 100 46 18 12 15 16 12 12 13 13 10 8 10 11 11 11 14 19 20 20 26 26 22 20 24 25 25 22 32
64 100 100 100 100 74 77 100 100 95 66 87 100 100 100 100 100 100 100 100 20 19 19 16 13 14 14 14 11 10 9 11 11 14 16 17 13 18 21 21 22 21 22 24 23 22 28
61 100 100 100 100 78 77 100 100 95 75 82 100 99 82 100 100 100 100 100 22 25 18 18 15 14 14 13 12 9 10 12 13 13 13 14 18 24 26 24 22 21 22 22 22 21 26
59 100 100 100 100 86 74 97 100 96 63 89 96 63 72 87 100 100 100 100 38 34 23 16 19 20 18 14 13 12 12 13 14 13 14 14 18 20 20 20 18 18 21 21 20 22 27
56 95 100 100 100 93 74 83 100 100 71 86 75 98 74 88 100 100 100 100 100 36 37 24 19 20 25 23 20 18 18 17 15 14 13 14 14 16 16 16 17 18 18 20 20 22 29
51 82 100 100 100 99 70 75 100 100 72 75 71 82 100 74 91 100 100 100 100 78 40 39 21 19 26 24 26 28 26 22 21 21 16 14 15 14 15 16 17 16 17 17 19 25 31
40 61 100 100 100 99 70 69 100 100 68 78 87 100 98 100 73 84 100 100 100 100 71 43 45 33 25 26 31 42 38 28 23 23 22 19 18 17 16 15 16 17 18 20 19 26 32
29 57 98 100 100 100 68 63 100 100 62 58 83 86 86 100 90 89 80 100 100 100 100 78 45 49 56 49 35 33 39 41 33 26 23 22 20 20 19 24 21 23 22 21 27 33 30
26 52 91 100 100 100 74 60 100 100 84 51 68 83 100 100 100 89 88 83 100 96 100 100 87 59 48 52 61 56 42 41 39 37 35 28 26 25 22 21 19 17 20 28 32 29 30
26 46 79 100 100 100 88 58 100 100 88 49 52 85 87 95 87 100 86 91 80 100 94 98 96 100 88 66 52 47 52 52 57 52 47 33 31 34 33 32 32 31 31 30 29 36 43
35 32 70 98 100 100 100 55 81 100 75 38 52 65 62 72 92 100 100 100 76 82 100 100 84 82 88 100 100 80 58 52 49 47 49 53 59 53 49 41 40 42 46 49 48 44 53
50 36 59 84 100 100 100 67 69 100 63 39 48 59 74 66 78 86 96 100 100 68 70 92 100 100 96 73 97 100 90 100 86 76 68 58 43 50 52 52 48 72 78 64 72 95 100
57 50 55 75 99 100 100 92 62 88 71 45 47 50 69 64 81 75 82 86 100 100 63 43 94 100 100 100 82 79 100 98 100 100 99 100 99 90 83 90 95 91 94 100 100 100 100
59 68 52 67 91 100 100 90 71 73 73 58 51 57 58 70 61 92 76 75 81 100 94 100 94 74 71 100 100 100 100 60 87 99 100 89 100 100 100 100 100 100 98 83 81 85 87
58 78 54 57 78 94 100 96 95 59 65 63 57 57 77 57 50 59 91 90 67 71 85 99 94 100 78 51 74 96 100 100 100 78 65 88 80 91 83 90 99 100 100 97 100 100 100
54 79 63 49 65 85 99 100 94 92 64 61 57 54 52 66 63 61 59 74 85 92 90 67 98 100 100 100 62 51 65 93 100 100 100 100 100 100 100 100 99 100 100 100 100 100 100
55 69 75 56 56 77 88 100 95 95 86 62 55 56 56 56 62 61 64 72 60 68 90 96 86 74 78 72 79 50 41 41 61 75 77 94 92 82 86 97 100 97 93 97 93 84 73

GFSGBSN_250_rhum_006.txt.gz
RH
88 91 46 42 77 79 72 76 69 60 82 63 53 65 68 100 74 96 100 100 58 15 4 4 5 6 6 7 11 12 15 19 22 21 20 23 26 32 29 36 38 33 28 23 19 20 18
89 86 48 39 79 84 76 78 81 78 81 62 58 79 78 90 85 100 100 93 37 6 4 3 3 5 6 8 11 10 14 20 15 21 22 22 26 30 25 26 30 28 22 22 23 18 14
87 82 41 36 82 92 86 86 84 87 86 70 57 81 78 91 100 100 99 76 20 5 4 3 3 4 4 11 8 10 14 18 14 22 22 27 25 29 25 25 25 24 20 26 20 16 17
81 81 43 33 81 100 97 90 82 93 96 68 85 78 80 66 78 99 86 60 13 4 2 3 3 3 5 7 7 10 12 16 16 21 21 25 25 26 25 22 23 30 19 29 15 23 17
84 83 52 31 81 100 100 90 79 94 99 76 65 80 92 53 76 100 91 64 14 4 2 2 2 2 4 6 7 12 12 15 16 18 21 22 24 25 26 20 25 26 27 38 19 21 22
92 89 64 33 81 100 100 93 80 92 100 78 70 86 100 57 98 97 100 67 20 3 2 2 2 2 5 7 6 11 13 14 18 18 21 19 22 24 27 21 23 41 56 36 25 20 24
98 90 75 34 80 100 100 99 84 95 99 78 77 88 68 76 100 99 98 77 14 3 2 1 3 3 5 6 6 11 13 14 17 17 20 18 20 24 27 30 33 40 44 32 41 24 25
100 84 79 32 76 100 100 99 87 92 97 74 83 70 88 77 100 100 89 92 20 6 2 2 3 4 5 5 6 12 12 14 17 15 20 18 18 28 29 29 29 31 33 49 43 28 21
100 88 81 29 74 100 100 97 92 97 91 66 70 69 61 82 100 100 100 51 22 6 3 3 4 4 5 5 6 9 12 14 17 17 20 17 19 28 26 29 33 32 40 41 41 35 19
100 97 71 34 72 100 100 94 96 100 86 60 89 61 67 82 100 100 100 62 19 7 6 5 4 4 6 5 6 8 12 14 18 18 20 18 19 26 24 31 32 36 42 41 41 37 20
100 100 75 43 71 100 100 93 99 100 87 69 90 67 100 100 100 100 100 65 22 10 9 6 5 7 5 6 8 8 12 13 18 22 18 17 18 24 23 29 31 39 36 37 37 37 26
98 95 91 49 73 100 100 97 95 100 89 70 78 74 100 100 100 100 100 88 22 15 11 7 8 9 5 6 8 9 11 14 17 20 19 19 19 21 23 31 32 32 31 31 36 35 32
97 89 92 56 75 100 100 99 96 100 96 79 81 76 94 100 100 100 100 100 25 20 10 8 10 10 7 7 9 9 10 13 14 16 16 18 19 22 24 25 25 27 26 30 36 37 37
93 94 81 58 75 100 100 100 93 100 88 77 88 65 78 100 100 100 100 100 34 17 12 11 12 10 8 8 9 8 10 12 13 16 21 19 15 19 20 22 25 26 28 32 36 37 32
75 90 72 56 79 100 100 100 96 100 94 72 81 67 69 100 100 100 100 100 43 22 17 15 12 9 9 8 8 7 9 12 13 14 16 18 26 23 23 23 24 25 25 28 32 32 30
78 78 58 60 82 100 100 100 98 96 93 76 60 84 82 100 100 100 100 100 53 30 19 14 11 12 11 10 10 8 8 11 14 14 15 18 23 25 24 22 24 25 25 25 31 30 30
58 84 52 52 81 100 100 100 99 93 97 75 56 78 64 100 100 100 100 73 62 32 19 13 15 16 15 17 16 14 11 10 13 15 14 16 19 21 23 24 23 25 25 25 29 32 30
61 82 63 46 78 100 100 100 90 96 99 88 66 92 66 100 100 97 100 100 62 38 22 16 16 16 18 19 18 18 15 12 12 15 17 16 16 17 20 23 24 26 24 22 29 29 25
67 69 81 47 68 100 100 100 83 94 100 100 71 90 65 100 100 84 100 100 63 66 29 26 21 20 18 19 18 16 15 14 14 14 17 17 16 17 18 20 20 22 22 25 28 26 24
83 63 89 56 56 98 100 100 79 94 100 100 68 72 100 78 100 81 100 100 99 55 52 30 33 27 27 26 25 22 20 19 17 17 17 17 18 18 20 23 24 25 25 26 26 23 21
64 71 85 77 49 95 100 100 85 91 100 100 61 80 95 100 84 91 98 100 100 98 59 59 40 25 28 33 27 26 25 21 19 18 18 20 19 18 19 19 17 18 18 17 18 18 19
71 77 83 62 43 98 100 100 96 81 100 100 80 68 61 100 100 100 100 100 100 100 100 60 48 30 32 38 43 39 40 29 26 26 22 20 18 17 17 16 15 14 14 16 17 19 21
77 75 79 44 42 93 100 100 94 79 99 100 93 54 78 92 100 89 89 97 100 100 100 100 84 54 44 27 31 35 35 35 35 33 28 25 22 20 21 18 17 17 18 19 19 20 22
75 82 82 36 40 85 99 100 96 84 93 100 68 50 59 82 91 100 62 100 100 100 100 100 100 100 85 56 44 33 34 34 38 38 39 36 31 28 29 23 24 28 25 26 27 27 30
74 96 72 48 34 59 97 100 100 95 87 99 55 44 55 68 89 99 100 96 78 92 100 100 97 100 100 100 98 87 58 51 51 44 38 36 35 31 29 33 39 32 31 33 37 41 40
77 94 80 58 29 42 91 100 100 100 79 92 56 42 51 55 75 83 91 99 99 95 70 81 100 100 80 85 100 100 100 100 72 64 58 53 49 51 51 41 32 32 38 49 50 49 49
77 83 81 68 45 37 73 100 100 100 81 88 62 47 52 53 57 60 70 87 80 87 99 70 70 97 98 100 86 86 90 91 100 100 100 100 96 84 73 70 73 69 59 63 70 99 84
70 86 75 68 58 34 52 95 97 100 99 81 75 58 52 60 57 57 54 66 83 84 75 94 86 98 99 80 90 98 100 98 82 99 100 100 100 99 100 100 95 90 80 81 82 78 80
72 86 59 76 68 44 48 86 89 100 100 98 75 61 57 54 68 75 70 68 76 93 93 72 79 70 68 75 76 59 90 100 100 98 80 84 91 96 90 89 91 96 100 100 100 90 85

GFSGBSN_250_rhum_009.txt.gz
RH
94 84 53 48 56 70 59 34 53 69 60 69 84 76 74 66 53 75 79 71 87 99 100 95 74 50 22 16 15 14 11 13 11 13 21 24 24 29 35 50 50 49 44 45 53 46 40
79 94 59 68 62 68 67 32 55 76 77 70 88 82 84 72 71 80 60 72 100 98 100 92 68 25 10 8 8 8 9 10 10 12 19 22 23 27 38 46 46 53 40 38 37 40 36
76 99 53 64 62 82 70 36 54 82 87 72 88 86 92 68 76 78 67 78 96 100 100 79 38 11 3 3 4 5 10 8 12 10 18 22 25 25 34 41 47 48 34 31 40 38 31
80 100 73 63 72 100 73 42 54 90 87 80 88 84 94 69 92 91 78 95 98 100 94 50 14 4 3 3 3 4 10 8 11 10 18 19 24 24 29 34 41 47 25 36 36 34 26
82 93 100 55 74 100 80 47 54 90 90 90 94 92 89 67 96 63 69 97 100 99 62 21 8 3 2 2 4 4 9 7 11 11 16 18 21 23 24 32 35 32 29 32 29 26 38
76 76 74 72 78 100 78 54 48 91 95 92 99 93 71 77 68 64 90 100 98 75 46 11 4 2 2 3 3 6 9 7 10 11 14 17 18 22 22 29 25 28 33 28 24 35 36
82 100 100 65 92 100 82 57 44 95 96 95 97 92 55 83 60 75 99 96 100 60 28 8 4 3 2 3 3 6 9 7 10 10 12 16 18 20 21 27 26 34 31 25 20 43 48
87 100 94 79 100 100 84 69 43 98 95 99 95 87 54 76 51 67 100 100 92 37 36 9 4 2 2 2 4 6 8 7 10 11 12 14 17 20 24 26 26 27 32 21 25 54 49
92 96 76 87 100 100 87 98 48 99 94 99 98 86 68 63 59 83 100 100 84 48 33 8 4 2 2 3 4 7 9 8 11 11 11 16 18 20 23 23 26 28 36 26 32 59 43
85 86 83 100 100 98 100 100 56 99 89 100 100 82 69 61 88 100 100 100 78 44 24 12 6 4 4 4 5 8 8 8 12 12 12 17 20 21 23 23 27 30 40 24 29 47 34
88 86 94 100 100 100 100 100 72 97 87 100 100 82 68 73 100 100 100 100 74 54 15 11 6 6 5 5 6 9 8 8 13 12 11 15 20 20 22 25 29 35 33 22 26 42 33
88 83 100 100 100 100 100 100 82 94 92 100 100 77 64 82 100 100 100 100 86 54 16 10 8 6 6 6 8 7 8 9 14 12 13 15 23 21 22 25 28 29 25 27 30 35 38
96 84 96 100 100 100 100 100 88 94 100 100 98 67 58 79 100 100 100 100 97 42 17 13 10 6 7 8 8 8 8 11 13 12 12 17 25 23 21 23 26 28 27 28 31 36 46
100 97 99 89 100 97 99 100 97 94 100 100 95 63 58 78 100 100 100 100 86 32 19 14 8 7 8 8 8 8 8 11 13 12 12 16 20 25 24 20 24 30 30 32 37 43 49
100 100 96 86 92 85 99 95 96 94 100 100 92 56 66 99 100 96 100 69 74 31 17 15 11 11 9 8 7 7 9 13 14 13 12 18 23 28 22 20 22 27 28 35 39 39 41
99 100 91 84 78 80 92 99 90 99 100 95 90 58 59 100 79 100 92 74 55 33 20 16 12 12 10 8 7 8 10 15 15 14 15 18 24 29 25 18 19 23 27 26 32 35 35
88 100 87 72 87 92 87 94 88 100 100 93 98 59 61 100 61 100 96 65 57 35 25 21 16 14 13 12 12 10 10 12 16 15 16 18 23 29 24 19 20 21 24 26 30 31 33
76 100 91 94 89 100 82 92 89 100 100 88 100 62 66 100 57 100 100 59 50 34 25 20 18 15 19 20 19 17 15 14 17 18 18 19 22 30 25 22 21 21 21 25 26 26 26
76 100 89 96 76 95 83 91 87 100 100 97 100 72 80 97 86 100 100 71 64 32 27 24 23 21 18 19 17 12 10 11 14 17 18 18 19 25 26 22 19 19 21 22 24 27 27
74 84 94 89 82 96 84 89 86 100 100 100 100 86 62 100 64 100 100 100 57 49 39 32 32 34 28 22 20 18 13 11 13 16 16 16 18 20 26 31 33 32 30 27 23 23 26
58 81 86 82 77 87 86 84 86 100 100 100 100 94 69 99 82 100 100 100 72 62 48 48 36 30 24 22 22 19 17 15 12 12 15 16 16 17 20 25 26 28 28 25 23 24 22
40 72 97 98 92 80 81 83 91 100 99 100 100 100 69 98 90 100 97 100 100 65 61 54 36 31 30 26 20 15 16 16 15 15 14 15 18 17 17 18 20 22 21 22 22 23 26
36 60 97 85 95 80 83 71 97 100 98 100 100 100 55 100 79 97 100 100 100 96 67 66 67 37 31 28 26 27 22 20 16 14 13 13 15 18 19 18 17 18 18 18 19 21 24
30 66 99 97 89 84 84 64 100 100 90 100 100 99 84 86 100 82 100 99 100 100 100 88 65 62 47 30 29 30 30 27 25 24 21 18 16 16 17 17 19 21 19 20 21 21 22
29 64 94 95 86 92 84 60 90 99 93 100 97 100 98 64 100 70 100 100 100 100 100 100 97 78 66 62 48 43 32 30 28 26 27 27 27 25 22 24 24 22 21 20 19 18 19
28 60 99 82 93 87 88 54 92 100 94 100 95 97 98 51 81 100 66 98 100 100 100 100 100 99 86 83 78 71 75 70 53 38 37 33 25 24 26 28 28 24 23 21 20 24 26
26 51 81 82 89 92 79 55 90 94 95 100 94 79 78 45 60 83 96 87 90 87 97 100 100 100 99 94 90 95 88 63 55 60 59 50 48 45 37 40 46 30 26 24 23 31 28
26 50 74 91 90 100 65 53 77 92 95 100 90 67 75 43 51 56 89 99 84 82 82 86 97 100 100 96 90 100 97 100 84 67 63 62 58 58 54 53 54 45 41 43 46 44 46
26 48 74 90 91 100 69 44 54 89 97 100 97 70 79 53 47 56 64 82 89 85 84 87 92 79 97 100 98 98 100 94 98 84 100 100 99 93 84 84 87 83 70 64 66 68 77

GFSGBSN_250_rhum_012.txt.gz
RH
89 79 96 96 98 79 94 64 56 71 55 70 41 36 62 46 49 54 69 71 59 70 77 81 100 100 100 93 77 45 36 19 20 16 18 20 12 16 27 38 39 42 44 43 62 96 100
100 95 68 76 93 84 78 69 58 67 65 76 48 38 77 51 57 69 75 74 74 73 98 96 97 100 100 76 67 35 30 24 20 19 16 19 14 16 23 37 38 49 48 42 50 76 94
98 100 99 86 76 77 92 68 67 73 77 81 58 45 88 59 65 76 86 65 75 89 97 100 100 100 72 91 64 41 23 26 24 19 17 18 16 14 21 35 40 42 46 46 50 60 64
100 100 100 95 76 85 84 76 93 82 80 82 66 45 88 65 71 79 80 56 59 95 100 100 100 98 100 84 40 26 15 9 17 17 17 14 14 11 19 30 39 36 40 48 51 54 53
91 100 100 100 100 80 69 90 98 92 82 80 67 48 97 69 81 84 78 55 74 87 93 90 80 88 87 47 16 6 4 4 7 12 14 11 11 11 17 28 34 34 38 51 48 45 48
46 98 100 100 100 92 84 87 69 88 77 81 67 52 96 72 87 88 72 60 73 100 90 100 95 72 33 21 8 3 2 2 3 6 9 9 10 11 16 27 26 36 39 50 46 45 56
32 59 100 100 100 94 92 78 86 85 75 84 80 67 98 81 90 89 64 68 82 92 95 82 95 42 22 15 6 2 2 2 2 5 7 9 9 10 17 27 29 39 55 49 39 44 54
15 34 86 100 100 100 87 98 100 100 73 92 88 81 97 90 93 88 73 100 92 87 85 98 71 24 13 10 4 2 3 3 4 6 8 9 9 13 20 29 30 41 50 40 25 45 48
24 16 44 79 100 98 93 100 97 95 79 99 86 96 97 98 94 79 93 96 80 77 64 90 45 14 11 6 3 2 3 3 5 7 10 9 15 13 22 27 28 35 36 26 25 42 49
26 19 18 56 95 100 99 100 88 88 90 100 89 100 97 100 98 78 97 100 74 86 82 75 29 18 12 6 3 3 3 4 6 10 12 11 13 13 21 26 28 36 37 20 27 38 50
20 23 14 30 58 99 100 94 92 84 99 99 91 100 95 100 88 72 94 89 87 92 90 40 18 14 10 6 5 3 3 4 7 10 12 12 13 15 22 27 28 36 33 18 24 37 53
15 19 16 13 40 82 99 89 98 83 100 100 95 98 98 100 70 70 100 84 88 99 82 32 17 11 6 5 4 3 4 6 8 12 11 14 14 17 24 29 28 32 26 19 24 39 50
16 16 16 14 30 60 100 94 96 91 99 97 96 99 100 96 66 72 98 78 97 90 51 27 15 8 5 4 4 4 5 8 12 13 13 16 13 19 26 29 28 27 23 20 22 34 48
15 15 15 15 42 78 100 99 90 94 95 89 100 98 100 86 70 85 82 88 96 77 35 24 14 7 5 4 4 5 5 10 15 12 16 14 13 21 30 28 26 23 23 23 23 37 48
13 12 13 18 49 82 100 100 81 88 98 90 100 99 100 73 76 81 88 86 90 62 32 24 16 10 6 5 4 6 8 14 14 12 17 14 15 18 26 25 25 22 22 25 26 39 50
12 11 13 25 63 97 100 100 77 78 100 93 100 100 98 69 79 74 71 97 74 53 31 22 15 13 11 9 7 8 12 14 12 14 14 12 15 18 22 24 24 24 24 26 27 38 47
11 13 15 33 64 96 100 100 72 91 96 99 99 100 95 64 77 73 76 86 57 53 35 21 17 14 16 14 14 12 14 13 11 14 14 13 14 16 22 24 24 25 24 27 30 34 43
8 13 18 42 56 85 100 89 83 100 92 99 100 100 86 62 76 90 78 71 52 48 42 28 24 20 19 20 21 17 17 15 17 18 18 13 14 17 27 30 22 23 22 23 28 32 37
8 14 18 40 52 77 100 73 92 100 93 100 100 100 92 63 80 98 77 71 51 55 41 35 32 29 24 26 27 26 21 18 23 22 20 18 16 18 22 21 18 20 22 22 27 32 34
8 14 16 39 43 72 82 80 95 100 92 100 100 99 96 71 71 71 93 62 56 77 59 36 27 28 27 28 27 23 25 25 25 23 19 17 16 18 20 32 32 26 26 22 23 26 30
9 15 16 34 36 56 76 83 100 99 93 100 100 97 100 87 65 84 100 62 62 83 66 53 32 31 30 24 20 21 19 21 22 22 20 17 18 17 19 23 26 29 31 23 20 22 22
10 13 16 27 38 62 84 93 100 98 92 100 100 96 100 87 66 78 95 83 58 61 78 50 44 33 27 21 16 12 14 16 16 19 22 19 19 18 20 21 24 29 33 32 26 22 30
11 13 17 26 36 65 77 94 100 100 96 100 100 96 100 89 73 58 80 100 70 64 66 74 50 32 33 28 23 17 14 12 12 14 16 19 18 19 19 20 21 25 34 35 34 30 31
11 13 15 30 40 69 82 100 100 100 92 100 100 96 100 100 72 72 64 100 96 80 65 71 69 37 35 36 28 24 20 17 13 12 15 16 17 18 19 20 21 24 24 30 33 33 34
11 14 14 27 41 67 93 98 94 100 92 100 100 98 100 100 73 79 71 90 99 100 85 71 70 62 40 36 36 34 26 22 19 18 15 14 16 17 18 18 19 19 20 21 22 24 27
12 19 18 29 42 68 88 90 92 99 96 100 100 98 100 100 89 74 87 78 100 99 93 83 68 76 71 51 43 40 43 35 30 26 20 18 16 16 17 19 18 17 18 19 19 20 21
12 19 23 29 44 78 85 79 92 94 98 100 100 100 100 100 98 78 86 73 89 100 100 99 86 81 75 77 67 53 56 49 57 56 40 30 27 26 23 25 22 19 22 21 22 24 22
13 16 21 29 52 75 74 80 94 96 100 100 100 100 100 100 100 87 80 92 78 96 100 100 100 93 90 78 73 66 67 60 55 54 46 44 50 47 43 50 42 34 34 37 35 33 33
14 17 22 33 47 69 74 81 88 95 96 100 100 100 94 100 100 81 86 69 74 81 98 99 100 100 89 100 98 96 85 76 66 63 61 62 56 49 48 49 40 40 43 41 44 53 48

GFSGBSN_250_rhum_015.txt.gz
RH
77 88 96 100 93 100 86 83 96 89 87 81 75 56 52 48 78 76 39 47 59 57 53 58 62 54 49 57 73 64 62 66 59 46 28 27 25 21 20 17 22 25 43 47 37 25 28
52 81 96 92 94 95 94 89 95 95 77 72 83 66 58 52 72 89 46 58 72 67 64 65 62 55 64 78 95 80 95 96 91 69 38 31 28 23 19 18 18 24 47 41 38 26 28
29 60 100 100 100 100 100 100 90 90 76 70 87 80 76 50 67 94 53 60 71 71 72 69 60 57 78 100 100 100 100 100 83 68 56 34 28 23 25 19 18 23 29 39 31 30 32
44 26 43 96 100 100 100 100 100 83 80 84 89 96 78 63 55 88 59 65 82 77 83 74 55 67 89 100 100 86 68 68 77 73 57 31 31 25 20 21 20 20 24 33 34 32 35
79 64 45 27 68 100 100 100 100 100 95 73 72 99 92 82 56 90 67 71 89 88 92 70 60 77 91 100 96 92 77 78 80 78 60 27 20 24 22 23 22 21 21 35 32 37 41
100 83 66 45 30 45 90 100 100 100 100 90 80 96 80 66 67 89 84 81 94 97 96 72 94 99 98 95 72 78 74 82 78 49 18 11 15 22 21 21 17 21 23 32 36 39 41
93 98 83 61 41 26 35 71 87 99 100 99 94 84 75 74 94 88 87 88 89 98 91 85 92 98 84 75 91 82 71 62 39 13 8 8 9 13 19 18 21 25 23 31 41 43 44
94 92 84 72 51 37 21 42 77 100 100 100 100 91 89 84 100 92 90 89 84 92 80 95 100 89 88 98 90 72 45 31 12 4 3 3 4 12 17 18 20 24 23 29 42 43 43
90 79 68 65 57 35 31 28 64 86 100 100 90 100 84 98 100 92 87 88 89 79 64 75 93 90 100 93 56 32 24 14 6 3 2 2 4 11 10 15 17 22 24 34 45 40 41
57 58 48 42 42 32 32 20 50 88 98 89 91 100 78 100 93 100 92 95 83 73 48 81 100 98 86 47 24 14 13 7 4 2 2 2 3 6 11 13 17 24 24 34 45 38 47
33 30 34 23 24 26 30 25 33 71 88 96 83 100 76 100 93 100 98 90 80 64 60 84 90 94 70 36 19 12 9 4 3 3 4 3 3 4 13 13 19 26 31 38 44 33 46
12 11 14 14 16 21 29 27 22 58 94 100 90 100 87 95 100 100 99 82 78 65 82 91 85 62 40 30 18 8 6 3 5 4 3 3 5 9 17 16 23 23 34 38 40 30 52
7 8 11 10 12 19 26 28 20 57 98 100 89 100 100 78 100 100 86 80 52 72 96 96 65 41 33 16 12 7 4 4 4 4 4 7 12 18 17 21 30 38 37 40 26 38 56
6 8 8 10 11 17 24 26 21 64 99 100 91 98 99 85 99 96 87 66 58 100 100 79 47 40 23 12 8 6 4 4 4 6 9 13 19 18 17 25 26 29 34 32 22 39 51
5 7 7 9 11 18 23 22 22 62 93 76 98 100 94 100 100 96 79 50 82 99 95 57 42 29 15 8 6 6 5 4 8 10 10 20 21 16 20 33 22 29 31 24 25 52 45
5 6 8 8 10 18 22 18 28 66 75 66 100 100 98 100 99 96 66 49 89 93 83 48 38 20 14 7 6 6 5 11 16 16 19 24 22 18 24 17 27 42 33 26 35 54 41
5 6 7 8 11 19 20 17 31 66 61 77 100 100 100 100 100 93 50 58 92 85 73 47 36 16 14 8 7 6 12 20 24 29 28 38 30 22 21 22 30 27 26 24 38 41 35
4 6 7 8 12 18 17 22 43 64 64 97 100 100 100 100 99 84 56 70 87 72 64 47 35 20 16 11 12 20 18 19 24 26 25 36 45 28 21 24 35 30 31 26 39 38 38
4 6 6 9 12 17 17 40 54 63 72 100 100 100 100 100 92 70 65 69 88 61 54 57 40 30 25 19 21 22 24 24 21 22 19 21 21 23 23 24 28 24 19 19 29 36 36
4 5 7 9 13 16 25 49 54 59 84 100 98 100 100 100 95 69 72 75 92 66 43 52 50 38 30 30 27 27 27 29 20 22 26 19 15 17 23 25 35 30 29 30 29 35 35
4 5 7 9 13 18 37 47 56 60 90 100 99 100 100 100 98 81 78 84 94 81 45 47 47 46 38 33 34 35 31 35 28 20 23 22 21 20 20 22 31 28 26 24 23 26 27
4 5 8 10 15 22 44 38 52 70 90 93 100 100 99 100 98 91 79 73 90 93 47 44 48 46 40 33 24 26 31 30 37 40 42 29 23 23 24 24 29 29 23 24 28 29 32
4 6 8 10 16 26 45 41 51 76 99 92 100 100 100 100 100 94 69 78 91 96 63 42 37 38 40 34 33 31 24 22 22 24 26 27 26 23 23 22 22 29 30 25 27 29 30
4 7 9 12 20 29 44 41 63 87 92 99 100 100 100 100 100 94 63 90 75 91 80 48 43 35 32 32 31 24 25 22 22 22 23 22 19 18 21 22 22 27 33 35 29 28 27
4 7 9 14 20 38 41 46 70 96 96 100 100 100 100 100 100 89 68 82 68 90 89 63 62 48 38 33 30 28 25 23 21 22 23 22 22 21 19 20 21 21 23 28 34 38 37
4 7 9 15 19 35 36 52 73 90 93 100 100 100 100 100 100 94 84 79 82 76 95 79 57 54 46 43 35 29 24 23 23 22 21 21 22 22 21 20 20 19 20 21 22 25 28
4 7 9 14 17 32 39 62 90 91 90 100 100 100 100 98 100 100 88 81 100 82 80 88 73 62 50 47 44 42 37 29 23 20 18 19 20 22 22 21 20 19 20 20 20 21 21
4 7 9 15 16 34 43 65 84 87 93 100 100 100 100 96 98 100 87 77 100 98 96 85 86 75 65 62 52 48 50 46 38 36 32 26 22 22 22 22 21 21 22 22 22 22 22
5 7 10 16 19 40 48 67 88 86 91 98 100 100 100 100 100 100 94 83 84 100 100 100 93 92 90 85 81 67 48 47 42 48 51 52 40 31 29 27 23 24 27 27 28 30 31

GFSGBSN_250_rhum_018.txt.gz
RH
72 54 28 34 31 100 100 100 100 100 100 88 90 100 100 84 79 80 73 61 54 48 56 51 40 52 59 47 53 45 48 44 40 37 39 35 31 24 24 27 20 16 18 19 28 29 20
93 75 52 34 37 56 100 100 100 100 99 100 100 98 98 78 89 79 79 72 57 56 59 62 50 50 64 59 57 54 50 48 48 47 54 53 50 33 25 26 24 20 16 19 22 27 21
100 92 89 71 34 39 86 100 100 100 100 96 100 94 73 70 88 89 77 80 81 68 58 67 54 51 70 73 64 56 51 51 50 65 78 78 70 45 36 25 27 25 19 18 19 24 25
100 98 85 94 85 62 44 64 98 100 100 100 100 100 85 87 70 73 96 90 100 84 73 65 70 61 79 78 80 68 52 54 75 72 68 77 64 53 46 30 27 25 21 19 20 20 28
92 96 93 92 98 90 85 60 68 100 100 100 100 100 100 100 83 82 82 84 94 76 63 63 72 72 83 100 81 76 68 64 71 74 67 64 65 62 47 35 28 24 19 22 21 19 25
95 86 84 94 99 99 100 93 81 59 63 100 100 100 100 100 100 100 92 82 85 68 76 68 68 81 83 100 94 94 88 82 76 81 95 94 89 88 78 48 31 26 28 23 25 20 24
97 92 90 99 100 100 100 99 100 94 77 48 59 100 100 100 100 100 87 93 86 87 87 80 78 86 78 90 97 85 78 88 100 99 100 100 99 81 85 62 34 24 23 18 26 21 22
99 100 100 99 93 93 100 100 99 93 91 74 42 41 88 98 88 91 88 99 79 98 70 82 92 87 85 88 73 80 91 95 99 100 100 90 77 95 52 32 17 18 20 20 23 24 22
87 98 98 91 81 81 79 84 88 86 86 78 53 34 44 81 97 84 100 82 97 90 59 77 100 100 95 73 77 96 92 100 100 95 85 52 37 18 11 13 12 17 17 25 22 27 24
71 69 71 70 62 70 65 71 74 78 74 71 56 37 34 74 93 98 96 89 100 73 58 82 100 98 77 74 94 98 93 79 61 52 30 10 19 11 8 8 11 16 16 23 23 25 22
58 57 52 50 40 43 44 51 52 59 67 62 53 43 39 71 96 92 93 91 100 62 68 80 81 67 65 96 95 82 55 39 35 28 12 13 10 4 3 4 5 22 16 21 24 25 27
26 25 25 21 13 13 17 27 35 39 51 47 49 40 39 73 100 100 92 100 90 76 85 75 59 61 76 74 55 45 48 32 20 9 9 6 3 3 3 2 10 17 15 20 24 24 25
9 8 7 8 8 9 12 12 18 22 36 37 46 35 38 78 95 100 100 100 76 92 83 63 66 71 59 46 48 39 24 18 9 7 4 3 3 2 2 5 11 16 26 28 23 22 22
5 5 6 6 7 8 9 11 13 18 29 31 44 28 42 91 96 100 100 84 94 86 81 62 79 60 42 40 29 20 11 8 4 4 4 4 4 3 4 7 13 17 19 21 28 23 27
4 4 5 5 6 7 8 10 12 20 26 30 40 25 66 78 98 100 88 100 93 91 58 81 66 44 43 24 17 8 7 6 4 4 5 5 5 7 15 25 26 46 38 34 28 51 48
3 4 4 4 5 6 8 10 12 19 22 37 31 35 88 71 100 97 100 99 95 69 80 74 65 41 34 18 9 7 6 6 5 5 6 6 13 29 32 31 37 41 47 51 33 53 34
3 3 4 4 5 6 8 10 13 15 21 39 23 53 81 87 98 100 100 95 90 66 76 85 53 46 27 13 10 8 7 7 8 12 11 21 23 28 30 36 54 78 50 31 42 45 43
2 3 3 4 5 8 9 10 14 15 28 28 37 86 71 92 100 100 99 99 64 77 80 86 51 52 28 12 11 12 13 14 24 28 26 39 37 49 56 60 56 84 42 26 46 43 45
2 3 3 4 5 7 9 10 14 20 31 24 61 74 83 99 100 100 100 81 66 79 90 72 51 58 31 28 21 19 18 33 41 41 53 57 54 65 61 67 47 57 28 41 38 41 40
2 3 3 5 6 8 9 12 16 26 26 39 60 79 100 100 100 100 100 63 72 90 96 65 49 66 35 43 31 18 25 57 63 38 44 68 57 60 47 61 63 42 33 52 30 49 47
3 3 3 5 6 7 11 16 20 26 27 48 60 96 98 100 100 100 98 60 87 98 92 65 50 66 46 41 40 23 30 46 89 65 48 57 45 42 31 39 30 25 34 32 35 47 39
3 3 4 6 7 9 13 15 20 19 35 59 88 97 100 100 100 100 89 70 97 100 82 64 51 53 72 47 34 32 20 35 53 52 59 64 46 34 27 22 25 27 31 28 32 33 39
3 4 4 6 8 10 13 16 14 22 53 78 96 97 100 100 100 100 87 70 100 100 80 64 53 55 68 58 50 41 35 23 24 28 24 25 28 20 25 24 23 22 32 29 32 35 37
3 4 5 7 9 11 13 16 19 49 81 82 87 100 100 100 100 100 84 68 100 100 82 61 54 50 50 59 53 47 48 50 42 38 32 18 14 17 24 26 24 26 34 30 28 32 38
3 4 5 7 10 12 13 15 39 64 90 83 92 100 100 100 100 100 97 71 94 99 90 71 59 50 40 44 50 48 40 37 42 36 33 35 35 31 28 27 24 26 32 32 29 30 38
3 5 6 8 10 13 14 17 50 78 79 85 93 96 100 100 100 100 100 80 86 100 84 75 62 53 46 35 35 36 44 48 46 47 49 44 35 35 33 29 25 25 30 38 42 32 35
3 5 6 9 10 13 15 28 66 72 79 84 89 97 100 100 99 100 100 97 76 98 87 79 73 53 54 43 33 30 31 32 32 31 31 33 35 33 30 30 27 25 26 29 42 43 41
3 5 6 10 11 15 19 47 76 78 92 82 95 100 100 100 92 100 100 96 88 91 100 82 90 67 60 49 48 37 29 26 28 27 27 26 28 28 26 26 26 26 26 26 26 26 30
3 6 7 10 12 17 25 52 64 78 90 84 92 99 100 100 96 100 100 95 98 83 97 94 84 80 73 76 54 49 41 40 36 33 30 29 26 27 28 27 27 25 25 25 26 26 26

GFSGBSN_250_rhum_021.txt.gz
RH
41 73 95 86 70 87 36 35 35 82 100 100 100 100 100 100 98 97 95 100 100 100 76 72 63 67 59 42 53 48 39 40 43 44 40 38 39 30 25 23 21 22 20 19 19 16 14
38 64 94 94 71 84 84 44 38 52 100 100 100 100 100 100 100 100 100 84 90 100 80 66 77 74 76 49 48 53 47 46 47 48 40 42 44 33 31 29 26 24 23 20 21 19 15
38 65 92 100 95 79 85 96 52 44 81 100 100 100 100 100 100 100 100 100 99 95 98 72 74 82 76 61 52 53 61 55 54 59 51 51 43 38 39 34 30 30 26 25 26 22 20
38 56 85 99 89 90 85 84 96 60 46 96 100 100 100 100 100 100 100 100 99 96 78 78 75 100 90 73 59 54 58 63 57 56 57 52 45 42 44 44 40 34 30 29 35 27 23
36 54 72 90 95 91 89 84 90 82 77 50 64 97 100 100 100 100 100 100 100 100 100 84 86 96 90 79 65 54 57 65 67 62 59 59 52 47 51 52 50 42 36 32 35 33 20
29 43 59 72 84 95 95 83 86 88 93 80 77 57 53 86 89 100 100 100 100 100 95 88 92 94 84 96 86 71 74 77 80 78 71 76 62 66 65 68 70 73 56 34 38 35 22
36 48 56 63 77 77 84 95 91 86 84 96 90 89 89 76 58 76 76 100 100 100 100 82 100 92 88 80 79 76 72 67 71 80 82 73 72 73 80 80 72 56 44 40 36 35 22
41 49 61 69 70 76 83 77 75 86 90 91 89 93 98 93 94 86 64 72 100 100 100 100 97 98 92 92 85 71 70 82 92 92 80 72 74 81 83 80 73 60 47 53 40 32 26
44 49 56 60 69 71 68 69 72 70 71 79 80 85 81 95 89 82 81 53 59 100 96 100 95 100 99 60 68 89 77 88 80 70 76 78 80 96 87 83 74 68 49 77 48 29 29
66 75 79 75 69 61 63 61 60 71 66 77 77 81 77 83 88 92 78 54 38 70 79 92 100 100 97 69 82 81 81 75 63 81 89 74 100 92 80 73 75 58 74 58 45 34 25
43 47 46 47 58 58 58 60 56 49 64 71 73 76 68 82 85 85 76 53 32 55 65 84 100 100 99 100 98 100 85 67 80 88 72 72 70 54 46 66 32 30 30 36 42 34 24
30 26 19 16 19 27 37 44 43 38 51 62 63 62 58 65 72 73 70 48 36 61 77 80 99 88 89 81 86 84 68 62 60 46 34 37 33 35 34 25 16 22 16 19 34 27 15
10 6 5 5 6 7 9 11 18 30 40 45 45 44 44 52 65 70 59 42 48 77 75 92 78 79 72 82 82 54 48 42 33 25 18 15 16 17 17 16 10 10 12 15 22 17 16
5 4 4 4 5 5 6 7 9 12 16 23 28 24 27 42 61 58 50 42 82 86 83 79 79 74 84 77 54 45 35 21 17 11 9 9 11 9 6 7 6 6 7 10 14 18 26
4 4 4 3 3 4 5 6 8 8 10 11 14 15 25 46 53 43 38 69 99 76 97 98 94 92 78 59 44 34 17 10 8 8 7 6 5 5 5 4 4 5 8 16 33 34 21
3 3 3 3 3 4 4 5 6 8 9 11 13 19 26 39 38 37 58 100 86 90 100 100 98 72 70 40 33 21 12 10 8 7 5 4 5 5 5 5 4 6 11 14 30 39 31
3 2 2 2 3 3 4 5 6 8 9 11 13 17 29 33 33 54 99 84 94 100 100 100 80 77 43 36 28 14 12 8 6 5 5 6 8 7 9 15 15 13 25 33 40 64 29
2 2 2 2 3 3 4 4 6 8 10 13 15 23 29 29 45 96 85 94 100 100 100 87 79 63 40 31 34 17 8 9 7 8 8 11 16 31 34 63 48 58 99 100 100 72 37
2 2 2 3 3 3 4 5 7 9 11 13 20 29 26 35 89 90 90 100 100 100 95 67 84 56 43 42 44 31 20 17 18 27 71 61 82 100 80 94 79 100 100 98 68 51 34
2 2 2 3 3 4 6 7 7 9 11 14 22 22 30 81 93 92 100 100 100 100 68 95 71 65 39 46 52 37 24 40 45 52 100 100 100 100 100 100 100 100 100 100 100 69 39
2 2 2 3 4 4 6 8 8 11 16 22 24 26 71 93 87 100 100 100 100 80 76 87 85 62 43 59 64 41 36 39 53 59 87 100 100 100 100 100 100 100 100 100 86 58 38
2 2 2 4 4 6 8 7 9 13 21 28 28 50 82 86 100 100 100 100 99 65 92 93 81 68 52 58 63 43 47 56 65 96 100 100 100 100 100 100 100 100 96 81 32 36 35
2 2 3 4 5 7 8 8 10 14 20 27 39 78 80 100 100 100 100 100 94 78 99 92 72 85 68 63 66 60 48 70 70 79 73 73 99 92 100 94 70 66 37 22 27 27 22
3 2 3 4 6 7 8 9 15 22 27 32 67 78 96 100 100 100 97 100 80 86 99 100 72 96 67 65 63 83 50 48 50 52 48 50 53 85 74 72 60 37 23 22 26 20 22
2 2 3 5 6 6 7 12 19 22 22 49 66 94 100 100 100 100 98 100 86 98 93 100 70 74 83 75 68 91 94 66 42 43 43 35 33 50 70 68 43 29 21 28 20 18 31
3 2 3 5 6 7 9 18 22 20 27 60 88 99 100 100 100 100 100 99 86 93 96 100 70 59 66 82 93 80 78 88 88 63 41 29 34 37 45 53 49 30 23 27 19 31 36
3 3 3 5 6 8 12 19 24 19 39 61 94 100 100 100 100 100 100 100 84 100 98 99 81 65 57 52 60 82 72 87 69 52 53 50 50 45 51 43 34 27 26 25 27 37 42
3 3 4 5 6 9 13 19 22 22 44 68 96 100 100 100 100 95 100 100 92 98 94 97 86 76 65 56 46 46 57 60 58 54 56 55 50 44 43 40 35 30 31 26 31 37 46
3 3 4 5 6 10 14 19 18 28 50 76 99 100 100 100 97 98 100 100 94 95 94 100 79 89 65 66 57 41 36 39 42 47 49 52 46 44 36 34 32 32 27 26 28 34 41

GFSGBSN_250_rhum_024.txt.gz
RH
10 13 16 25 30 44 75 89 78 72 31 27 33 66 94 100 100 100 100 100 100 100 95 100 95 100 100 98 54 68 61 57 44 40 55 45 28 29 30 31 31 28 28 28 32 26 24
10 13 18 25 35 51 62 87 83 76 51 35 35 54 90 100 100 100 100 100 100 100 100 100 90 100 100 100 89 78 80 70 51 45 50 59 41 34 37 38 35 32 31 26 25 25 25
10 13 18 26 39 64 78 94 80 83 84 40 36 57 77 100 100 100 100 100 100 100 100 100 100 100 100 76 98 88 78 69 66 54 44 49 50 42 41 43 39 36 29 26 22 23 23
10 15 18 25 44 58 80 92 94 80 76 91 45 43 86 96 100 100 100 100 100 100 100 100 96 100 100 100 100 91 83 66 70 64 49 41 45 47 47 46 44 37 30 27 30 31 26
11 17 20 27 37 45 68 83 99 89 81 82 92 55 50 91 100 100 100 100 100 100 100 100 100 100 100 100 80 77 100 79 70 71 58 48 43 44 48 51 52 45 37 43 45 40 31
21 27 28 29 39 47 56 66 77 87 92 80 84 88 69 56 76 100 100 100 100 100 100 100 100 100 100 100 81 61 90 90 76 67 66 58 47 48 55 63 67 55 36 40 45 52 32
23 29 32 36 36 39 53 66 67 73 82 91 80 82 88 86 54 70 100 100 100 100 100 100 100 100 100 100 100 83 95 89 78 75 70 50 50 58 68 57 54 50 41 49 58 58 50
23 26 30 35 39 42 39 42 51 69 73 80 88 85 79 91 83 88 78 66 66 78 93 97 100 100 100 100 100 100 86 81 65 73 65 57 45 55 61 68 66 59 50 59 66 68 57
38 42 39 35 28 28 39 39 46 51 55 68 69 84 86 73 88 96 84 74 88 89 90 97 89 80 100 100 100 99 78 66 72 68 69 60 56 77 82 81 72 74 74 75 71 70 57
31 35 35 37 44 41 36 33 38 42 56 57 62 72 69 66 76 72 77 83 88 99 92 100 99 87 68 76 100 98 86 79 71 66 65 56 90 91 87 75 66 69 90 83 74 75 58
24 22 23 22 20 23 30 39 42 36 42 47 64 69 60 67 71 74 68 79 83 95 86 100 91 74 65 60 78 92 74 68 64 57 54 62 75 78 72 77 66 85 89 79 75 72 62
18 16 11 9 6 6 7 10 18 34 42 34 51 63 70 64 72 70 73 88 80 92 100 94 87 69 56 69 89 95 90 68 58 61 60 58 62 70 63 70 71 63 64 52 51 54 37
13 7 5 4 4 5 5 5 6 10 23 38 39 69 61 60 77 66 70 93 85 93 98 90 76 45 53 79 100 91 79 72 62 58 49 48 48 45 48 45 44 48 59 50 42 37 21
8 4 4 4 3 4 4 5 6 6 9 18 25 50 51 68 63 63 66 67 87 100 89 78 57 51 90 99 89 70 58 55 55 45 32 28 29 28 25 21 20 21 21 18 19 14 20
5 4 3 3 3 2 3 3 4 6 7 9 12 25 45 47 60 57 63 62 96 96 74 60 45 96 100 81 64 60 57 52 39 30 26 18 12 11 10 9 8 12 10 32 14 16 22
4 3 3 2 2 2 2 2 3 4 6 8 11 17 17 26 38 48 59 67 90 71 60 51 82 94 75 64 59 61 49 40 33 25 15 12 9 8 8 7 7 7 6 5 8 11 15
3 3 2 2 2 2 2 2 3 4 6 7 10 12 13 16 30 35 50 71 68 58 52 91 98 72 69 62 68 63 44 37 21 13 12 9 8 7 6 7 6 5 7 11 11 10 14
3 2 2 2 2 2 2 3 3 4 6 8 10 10 12 14 16 25 47 66 55 64 90 97 80 75 80 76 67 50 37 23 16 11 8 9 8 9 10 18 21 12 10 17 24 19 29
3 2 2 2 2 2 3 3 4 5 6 8 10 12 12 15 26 47 54 51 66 91 96 84 86 93 74 77 54 35 35 24 18 37 44 51 33 36 63 95 99 84 44 36 31 43 53
3 2 2 2 2 3 3 4 5 6 8 10 12 11 14 31 44 40 46 76 86 93 90 93 99 74 80 55 45 50 58 62 61 64 95 91 96 100 100 100 100 100 100 100 100 100 94
3 2 2 2 2 3 4 4 6 6 7 10 13 19 37 54 56 52 78 96 94 89 99 100 79 77 61 38 50 99 72 99 100 100 100 100 100 100 100 100 100 100 100 100 100 100 70
3 2 2 2 3 4 4 5 6 7 9 12 19 34 43 44 48 84 100 94 97 100 100 85 81 65 57 47 84 89 87 100 100 100 100 100 100 100 100 100 100 100 100 100 92 100 54
3 3 2 2 3 4 5 7 7 9 12 16 26 35 33 54 81 98 93 98 100 98 95 99 54 63 59 64 96 78 73 89 100 100 100 100 100 100 100 100 100 100 100 100 99 100 100
3 3 3 2 4 5 6 7 9 11 15 22 30 27 54 86 92 91 91 100 100 94 97 92 54 70 78 98 83 87 70 80 100 94 100 100 96 100 100 100 100 100 100 97 92 99 76
3 3 3 3 4 5 7 9 11 12 14 23 28 52 82 94 88 86 100 100 98 81 100 99 67 62 75 77 92 95 75 68 77 82 86 88 91 100 100 86 98 89 94 76 67 59 48
3 3 3 3 4 5 8 11 14 14 18 24 40 82 100 97 87 86 100 100 100 85 98 100 84 60 81 100 100 92 88 71 78 67 66 75 81 78 79 67 82 71 50 48 44 41 40
3 3 3 3 4 6 11 12 14 16 23 26 60 88 100 96 83 88 100 100 96 84 97 98 86 54 86 91 100 100 100 96 84 74 64 63 53 61 63 71 62 62 54 46 34 38 38
3 3 3 3 4 7 11 11 16 19 25 39 62 89 96 84 83 98 100 100 100 85 98 100 97 67 62 98 100 96 94 100 84 94 87 76 63 66 56 68 67 59 54 49 41 33 31
3 3 3 3 5 8 10 11 18 24 32 51 65 88 89 77 84 100 100 100 99 92 96 100 100 93 80 87 89 86 75 78 78 89 90 93 81 73 82 87 70 56 54 47 41 37 33

GFSGBSN_250_rhum_027.txt.gz
RH
6 6 6 7 10 12 16 21 28 37 49 74 85 97 70 40 25 24 32 86 100 100 100 100 100 100 100 81 69 99 100 82 82 63 48 47 50 41 36 40 37 21 23 25 33 29 26
5 5 6 7 10 13 16 22 32 47 64 81 100 96 62 33 25 30 69 100 100 100 100 100 100 100 100 96 88 100 100 96 95 74 78 65 50 50 44 42 45 34 24 23 25 31 29
5 6 7 8 12 17 20 21 33 62 78 96 100 96 68 39 30 50 81 100 100 100 100 100 100 100 100 100 100 100 97 100 100 100 79 82 60 44 45 46 47 50 36 33 31 37 30
10 9 13 13 15 20 22 36 37 62 85 98 100 100 83 54 34 65 77 100 100 100 100 100 100 100 100 100 100 100 100 100 100 100 90 91 74 55 50 50 44 46 48 43 43 38 35
13 20 23 24 25 28 30 29 45 64 75 93 100 100 95 74 39 51 89 95 100 100 100 100 100 100 100 100 100 100 100 100 100 100 94 90 58 58 49 52 47 43 45 46 44 37 31
12 16 22 26 29 32 36 44 38 43 70 90 91 100 100 90 75 39 67 100 100 100 100 100 100 100 100 100 100 100 100 100 96 100 100 78 64 68 74 67 49 43 40 40 38 36 32
14 22 23 25 32 37 34 35 46 50 48 66 91 99 100 98 90 74 46 72 96 98 100 100 100 100 100 100 100 100 100 100 100 94 80 61 50 66 79 62 47 45 45 45 44 44 35
15 22 31 33 33 30 32 38 36 38 51 56 63 75 96 100 92 91 78 53 62 85 99 85 77 96 99 100 99 96 96 98 97 97 100 76 75 87 67 63 62 55 52 52 49 44 36
11 17 25 31 37 44 45 35 30 35 40 46 62 64 73 85 91 95 99 82 62 60 72 80 82 91 84 86 91 84 75 82 99 100 100 94 95 98 78 58 46 50 47 47 46 41 40
8 14 24 25 24 22 20 23 29 28 29 40 45 57 70 73 78 97 100 86 77 80 69 82 85 96 96 96 99 100 99 85 78 84 77 64 100 85 68 55 47 54 47 43 50 46 43
7 14 18 17 12 8 7 6 8 14 23 27 39 38 57 72 86 100 96 82 100 88 73 81 93 92 96 94 89 84 81 89 81 69 54 68 86 68 60 68 49 41 51 50 53 48 49
6 11 13 7 5 4 4 5 5 6 9 17 30 31 56 56 77 100 89 98 92 92 91 92 97 100 96 89 85 88 93 86 71 53 49 57 57 55 59 59 47 44 51 56 57 56 31
5 8 8 4 4 4 3 4 4 5 6 8 15 25 42 52 69 94 94 100 91 71 92 95 95 98 100 89 86 97 94 72 46 37 42 49 53 52 52 51 43 40 43 43 40 34 18
5 7 5 3 3 2 2 2 2 3 5 7 8 15 25 37 68 72 91 84 85 88 92 94 98 93 89 89 97 99 80 52 50 40 38 45 49 50 47 42 41 39 39 32 30 27 24
5 7 3 3 2 2 2 2 2 3 4 6 8 9 16 26 62 59 84 86 82 90 96 98 95 95 86 95 96 75 65 56 50 57 58 56 45 36 34 29 30 29 26 33 20 20 23
4 7 3 2 2 2 2 2 2 2 3 5 6 7 14 26 50 59 82 94 91 89 95 78 92 100 100 88 77 63 52 63 64 57 45 32 31 26 18 12 11 10 11 10 8 9 10
5 6 3 2 2 2 2 2 2 3 4 5 6 8 15 20 28 33 70 99 96 98 86 85 100 99 84 83 69 68 68 57 71 42 51 35 23 13 11 11 9 8 7 7 6 7 7
5 5 3 2 2 2 2 2 3 3 4 5 6 11 13 13 8 28 64 81 85 78 76 88 98 82 83 74 67 65 61 86 57 48 34 23 17 14 12 10 9 7 6 7 7 6 7
6 5 3 2 2 2 2 3 3 3 4 6 7 9 10 9 12 22 31 45 53 64 65 84 81 79 74 62 68 70 100 73 56 68 61 44 45 27 16 39 86 46 20 12 11 9 9
8 5 3 2 2 2 3 3 3 4 6 8 8 7 7 10 22 23 23 27 34 49 74 78 78 74 61 66 80 100 100 85 89 90 81 92 99 89 91 98 95 100 81 38 30 29 21
10 4 3 2 2 2 3 4 4 5 6 8 9 10 16 18 19 16 20 28 41 58 73 73 73 64 68 88 78 83 97 83 100 88 100 100 100 100 100 100 100 100 100 92 80 68 52
10 4 4 3 2 2 4 4 5 5 7 9 12 16 18 15 14 19 26 43 68 81 70 76 69 76 89 72 61 100 100 92 88 98 100 100 100 100 100 100 100 100 100 100 100 97 96
10 4 4 3 2 2 4 5 6 7 8 10 14 13 13 17 20 33 61 83 80 79 81 68 78 96 83 57 78 98 95 88 84 100 100 100 100 100 100 100 100 100 100 100 100 100 100
8 4 4 3 3 3 4 6 8 9 9 11 12 12 17 32 44 66 87 83 81 93 75 73 96 95 59 58 76 93 77 84 96 100 100 100 100 100 100 100 100 100 100 100 100 98 100
8 4 4 3 3 3 5 8 10 11 11 11 14 17 38 40 68 82 84 82 95 94 73 86 82 78 56 92 82 100 77 68 99 96 100 100 100 100 100 100 100 100 100 100 100 100 100
8 5 4 3 3 3 6 9 11 12 14 18 18 31 44 63 79 88 88 92 96 90 76 78 93 69 50 100 95 98 85 76 71 82 100 100 100 96 100 100 100 100 100 100 100 100 100
6 5 4 3 4 3 6 9 10 15 17 18 24 41 56 78 88 98 94 94 99 94 79 69 88 70 57 76 100 100 88 79 83 76 88 96 85 97 98 100 100 97 88 89 100 96 89
6 5 4 3 4 3 6 10 12 17 20 24 30 44 67 85 90 94 100 93 94 92 92 75 92 75 64 85 100 100 98 99 94 91 71 77 82 88 89 76 78 79 78 75 65 80 86
5 5 4 3 4 4 6 10 12 16 24 25 26 39 53 84 95 94 89 83 85 100 96 89 96 68 59 58 74 89 99 96 100 100 99 96 82 88 80 87 88 88 91 96 90 83 78

GFSGBSN_250_rhum_030.txt.gz
RH
7 7 7 6 7 7 8 10 10 14 16 19 23 28 38 53 72 86 92 92 94 85 87 86 81 84 87 99 100 93 94 79 80 91 89 80 72 59 53 43 41 37 35 29 36 34 26
9 8 9 9 11 10 9 12 12 15 20 24 24 28 44 52 78 97 93 91 88 84 75 71 64 40 48 95 100 100 99 88 70 75 80 96 95 94 76 46 42 40 46 38 35 45 34
10 10 10 11 14 17 15 17 19 22 20 24 31 32 45 57 82 100 97 100 86 52 33 28 29 42 97 100 100 100 100 100 77 86 76 97 100 100 99 82 53 46 38 45 39 48 45
10 11 12 13 15 23 23 24 28 29 28 29 36 42 52 78 100 100 100 92 54 29 27 35 58 98 100 100 100 100 100 100 100 94 87 88 100 100 100 99 80 66 43 46 42 40 46
10 11 11 12 18 22 27 30 34 41 45 42 44 54 64 90 100 100 100 91 50 30 34 65 99 100 100 100 100 100 100 100 100 96 92 94 97 96 100 100 94 85 56 50 44 42 38
11 12 12 12 14 24 34 32 33 43 48 54 60 56 69 82 100 100 99 98 60 34 47 82 100 100 100 100 100 100 100 100 100 100 97 96 92 100 100 100 96 94 70 51 49 48 44
10 12 13 13 20 26 28 33 39 33 49 50 62 72 70 78 99 100 100 99 72 38 67 87 100 100 100 100 100 100 100 100 100 100 100 100 100 100 100 100 87 60 71 48 53 53 48
8 11 12 12 23 30 32 35 34 34 29 41 52 65 83 73 83 99 100 100 85 49 57 80 100 99 100 100 100 100 100 100 100 100 100 100 100 100 100 98 78 64 61 48 49 50 40
7 9 10 9 12 23 27 26 24 31 30 31 36 50 70 86 81 92 100 100 93 80 49 82 99 100 98 100 100 100 100 100 100 100 100 100 100 92 87 87 78 67 63 62 48 55 41
6 8 8 6 8 15 10 6 6 6 12 20 29 37 52 75 77 95 92 100 99 100 74 52 84 100 95 99 97 92 96 94 85 76 75 77 90 66 66 70 67 65 62 59 53 44 44
6 6 7 5 9 8 4 4 4 4 6 8 14 29 39 53 63 89 100 98 100 100 85 79 58 68 70 84 96 91 80 75 76 75 69 66 70 70 59 65 59 59 85 76 70 46 40
5 5 5 4 10 4 3 2 2 3 4 5 7 12 28 40 43 84 98 96 94 96 92 100 90 77 68 66 71 79 82 81 80 73 72 78 70 70 75 73 58 53 57 54 41 39 28
4 5 5 5 8 3 2 2 2 2 2 4 5 7 14 32 35 68 96 98 83 88 100 100 100 98 97 92 94 99 99 97 94 90 85 82 93 80 64 55 35 28 27 26 24 25 23
4 5 4 6 6 3 2 2 2 2 2 3 4 6 10 20 37 51 74 99 93 96 100 100 100 100 96 94 100 100 100 100 98 87 82 75 72 53 34 28 27 31 36 36 35 31 26
5 6 4 6 5 2 2 2 2 2 2 3 4 6 7 15 30 37 58 89 99 100 100 100 100 100 96 99 100 100 99 99 94 86 58 53 46 50 59 57 46 37 31 34 20 17 17
5 6 5 8 4 2 2 2 2 2 3 3 4 5 7 9 24 30 52 85 86 100 100 100 100 100 100 100 100 100 99 90 81 59 50 44 70 69 54 30 26 24 23 22 18 13 10
5 6 4 9 4 2 2 2 2 2 3 3 4 6 9 11 17 22 38 72 93 100 100 100 99 97 100 100 100 100 89 73 67 57 57 62 72 74 46 31 16 10 7 7 6 7 5
5 6 4 9 4 2 2 2 3 3 3 3 4 6 9 10 11 12 32 87 81 95 95 89 92 100 99 100 100 90 75 76 61 76 64 69 92 100 84 41 18 15 9 8 7 6 5
5 6 5 9 4 2 2 3 3 4 3 4 6 8 9 9 12 16 31 68 99 84 90 92 91 91 96 100 100 77 79 70 94 65 86 100 100 100 89 56 27 23 11 8 6 6 5
6 6 5 8 4 2 2 3 3 4 3 4 6 7 8 8 12 14 26 56 73 68 84 88 86 91 100 98 78 78 79 99 73 97 100 100 100 91 81 82 76 49 36 25 15 10 6
6 6 5 8 4 2 3 3 4 4 4 5 6 7 9 10 10 13 18 25 41 55 67 90 93 97 89 78 67 83 100 100 100 100 100 99 91 83 82 93 99 92 74 61 45 20 14
7 6 6 7 4 3 3 4 4 5 5 6 7 8 9 12 15 15 19 28 37 51 71 88 97 87 67 61 84 100 94 100 100 100 96 94 100 100 99 100 100 100 98 89 77 36 29
7 6 7 6 4 3 3 4 5 6 6 8 9 12 12 11 13 17 19 22 24 28 34 45 56 57 70 87 81 98 100 100 100 96 100 100 100 98 100 87 100 100 100 100 98 84 75
8 7 9 6 4 3 3 4 6 7 8 8 9 9 12 16 17 20 27 31 39 44 48 50 58 87 75 79 84 100 100 100 95 98 100 100 100 100 100 100 100 100 100 100 100 100 100
8 7 10 6 4 3 4 5 7 8 9 10 11 12 14 17 22 28 36 35 55 58 64 77 76 77 79 70 76 81 100 100 85 90 91 100 100 100 94 100 100 100 100 100 100 100 100
9 8 12 6 5 3 4 4 7 8 11 12 14 18 19 23 26 38 50 70 70 75 78 77 84 73 69 70 78 94 94 87 68 64 100 100 99 100 99 100 100 100 100 100 100 97 100
9 8 13 6 4 3 5 4 7 10 12 14 17 23 32 37 42 60 80 75 70 78 88 88 82 72 68 74 78 88 96 83 70 69 98 100 96 100 97 100 100 100 100 100 100 98 98
9 8 13 6 4 3 5 5 8 11 13 16 18 32 54 48 62 77 81 74 77 76 98 88 70 73 67 77 95 98 95 83 77 64 70 97 98 100 100 100 100 100 100 100 83 85 93
10 8 12 6 4 4 5 5 8 13 13 20 27 46 56 63 62 78 72 72 74 82 99 75 63 74 58 71 86 91 100 90 97 83 73 79 75 84 82 91 96 96 82 89 95 96 100

GFSGBSN_250_rhum_033.txt.gz
RH
6 6 6 7 8 8 9 10 14 16 16 14 12 12 14 16 18 23 34 36 69 100 100 100 100 100 99 91 83 79 76 80 82 86 86 83 62 67 81 71 54 50 53 46 42 37 32
7 6 7 8 8 10 10 12 16 21 22 20 19 15 15 18 18 22 29 36 52 82 99 100 100 100 100 100 99 88 76 81 87 86 84 89 83 61 81 86 57 70 63 61 48 44 39
7 6 7 9 10 11 11 15 16 24 26 28 27 25 21 22 23 26 30 40 44 72 94 100 100 100 100 100 100 100 97 95 96 100 100 99 81 73 66 90 75 81 86 89 77 52 40
7 6 8 9 10 12 14 14 20 24 30 34 34 34 32 26 30 35 41 48 54 63 80 100 100 100 96 100 97 100 100 100 100 100 100 100 100 81 61 79 87 95 96 94 88 63 44
8 7 8 8 10 11 12 17 24 26 33 33 39 36 39 37 29 36 49 52 60 68 83 99 100 100 97 98 98 100 100 100 100 100 100 100 100 97 68 71 74 98 98 100 91 88 67
8 7 9 10 11 10 10 17 28 34 34 37 39 35 37 46 48 37 43 59 78 88 99 100 100 100 93 73 70 76 76 85 98 100 100 100 100 100 74 82 75 81 87 100 100 100 100
7 6 8 9 11 11 15 20 25 27 35 34 36 41 37 40 52 50 50 82 96 97 100 100 100 81 40 34 38 46 62 93 95 100 100 89 100 100 100 98 95 88 80 80 96 100 98
7 6 6 8 9 8 10 18 18 14 16 25 29 35 39 40 42 52 62 96 96 100 98 91 99 60 33 38 57 71 93 100 100 100 100 100 100 100 100 100 100 88 84 95 82 100 95
6 5 6 7 7 7 11 11 7 5 5 6 10 26 36 38 38 39 83 90 97 99 94 99 89 49 38 46 78 95 100 100 100 100 100 100 100 100 100 97 91 98 90 86 82 75 63
6 5 5 6 6 6 8 5 4 3 3 3 5 7 30 34 44 42 73 88 100 100 100 100 85 51 45 65 89 90 92 96 100 97 94 95 97 89 94 95 99 97 100 79 71 64 54
6 5 5 6 5 6 6 3 2 2 2 2 3 5 8 31 40 38 72 95 92 99 100 95 89 68 63 68 100 86 86 100 100 100 100 100 100 100 100 100 77 68 63 62 56 42 38
6 5 5 6 5 6 4 2 2 2 2 2 2 4 6 22 35 45 75 81 63 84 98 100 96 85 66 74 94 92 97 97 92 96 99 96 93 95 83 72 58 54 54 52 50 45 30
6 5 6 6 5 6 4 2 2 2 2 2 2 3 6 11 33 39 74 52 53 75 100 100 100 99 82 67 80 85 92 90 89 86 88 87 88 89 80 76 77 76 66 52 45 42 30
6 5 6 6 5 6 3 2 2 2 2 2 2 3 5 8 16 30 54 59 65 89 100 100 100 100 99 91 82 83 90 97 90 92 95 96 100 86 78 83 80 68 58 52 28 24 17
6 5 6 6 5 6 3 2 2 2 2 2 3 3 5 7 16 23 50 57 76 100 100 100 100 100 95 100 100 100 97 91 95 97 100 100 99 99 84 68 69 54 36 25 23 24 17
6 5 6 7 5 6 3 2 2 3 2 2 3 3 5 7 10 19 31 51 97 100 98 92 100 97 100 100 100 100 100 100 100 100 100 98 85 68 68 67 47 41 32 24 17 11 10
6 5 6 7 5 6 3 2 2 3 3 3 3 3 5 8 9 11 17 46 95 90 97 91 97 100 100 100 100 100 100 100 100 100 97 74 67 68 57 57 49 46 37 32 14 5 4
6 5 6 7 5 5 3 2 2 3 3 3 3 3 5 7 9 10 14 45 77 80 97 97 92 100 100 100 100 100 100 100 100 94 73 72 69 64 63 67 70 66 70 44 39 20 8
6 5 6 6 6 5 3 2 3 3 3 3 3 4 6 8 10 12 17 32 58 85 92 100 100 100 100 100 100 100 100 100 94 79 77 67 65 64 82 82 87 65 60 51 32 22 13
6 5 6 6 6 5 3 2 3 3 3 4 3 4 6 8 10 13 19 31 57 74 92 100 100 100 100 100 100 100 100 100 82 83 76 75 78 91 96 91 73 93 80 56 52 34 19
6 5 6 6 7 5 3 2 3 4 4 4 4 5 8 10 10 11 14 25 47 85 85 100 100 100 100 100 100 100 100 95 89 84 84 92 90 84 85 70 88 99 100 85 63 49 29
6 6 7 7 7 5 3 3 3 4 5 5 5 6 8 9 11 11 15 20 36 74 83 93 100 100 100 100 100 100 97 90 92 98 100 91 83 85 82 100 100 100 96 74 88 84 33
7 6 8 7 8 6 3 3 4 6 6 7 6 8 10 11 12 15 16 25 31 48 74 99 100 99 100 100 93 100 98 83 100 100 100 96 100 72 88 100 100 100 94 85 84 87 63
7 8 8 8 8 6 4 3 4 6 6 8 9 9 10 12 13 13 18 20 28 42 59 88 100 84 80 86 100 98 82 100 97 100 97 98 100 99 100 100 100 100 97 100 100 94 80
8 9 9 8 8 7 4 4 4 7 7 8 9 10 12 14 15 16 18 24 29 35 44 59 73 73 72 94 84 83 99 87 95 100 85 78 99 100 100 100 100 93 88 100 100 100 100
10 9 10 9 8 7 5 5 5 8 10 10 11 12 12 14 18 19 21 24 26 32 39 46 54 59 52 54 88 96 86 72 100 100 96 77 78 100 86 100 100 100 98 91 100 100 100
12 10 10 10 10 9 5 4 5 8 11 10 11 13 15 19 24 26 29 33 30 30 35 44 50 54 74 82 73 72 70 99 100 86 74 75 100 100 99 100 100 100 100 94 100 100 100
12 11 11 10 12 10 6 5 6 7 11 12 14 15 17 20 28 32 36 42 46 58 66 71 76 76 79 74 70 63 80 100 99 89 68 64 94 100 100 100 96 100 100 100 88 100 100
12 11 10 10 14 8 5 5 6 7 12 14 17 18 20 26 32 39 48 56 81 82 79 77 70 86 66 64 62 74 94 100 97 94 68 65 64 73 78 81 90 100 100 97 95 93 100

GFSGBSN_250_rhum_036.txt.gz
RH
10 8 8 8 8 9 10 10 9 9 8 8 13 19 17 16 16 18 21 28 32 39 41 56 87 100 99 85 94 79 75 93 100 100 100 100 100 100 92 78 62 65 79 72 57 51 50
11 8 8 8 8 9 10 10 10 10 9 10 13 20 24 18 16 16 19 23 22 32 41 43 56 100 100 100 97 95 83 84 85 81 94 100 100 100 100 91 71 66 71 76 78 61 51
12 9 8 8 9 9 10 11 10 10 11 10 12 17 23 24 20 19 20 22 22 24 37 46 55 82 100 100 100 100 94 91 86 82 85 99 100 100 100 87 74 71 68 66 76 76 64
10 9 9 9 8 8 10 11 11 10 11 14 12 15 20 26 26 20 22 24 24 22 26 38 56 62 99 100 100 100 100 100 96 92 92 93 98 97 93 88 82 73 66 69 67 84 70
10 9 8 8 9 10 12 11 11 14 18 19 24 19 18 22 27 25 22 24 25 29 31 36 52 63 95 100 100 100 100 100 100 100 100 100 98 98 97 92 90 89 81 64 58 68 87
9 9 8 8 8 9 11 11 13 21 29 26 25 26 27 23 27 29 26 23 30 38 45 53 63 66 87 100 100 100 100 100 100 100 100 100 99 99 100 98 96 92 90 88 67 59 80
9 8 7 7 7 7 8 8 10 17 18 16 13 17 24 31 30 31 28 22 30 48 78 77 78 64 83 100 100 100 98 92 96 100 100 100 100 100 100 100 100 99 91 88 83 72 66
9 8 8 7 6 6 7 6 8 9 7 5 5 6 10 21 32 30 25 27 52 58 50 66 72 69 77 87 88 81 86 90 94 97 100 100 100 100 100 100 100 100 100 96 90 91 61
10 8 8 6 6 5 6 5 6 5 4 3 3 3 5 7 24 30 28 48 43 58 54 67 87 82 84 86 88 92 99 99 94 92 100 100 100 100 100 100 100 100 90 98 95 90 77
10 7 7 6 6 5 5 4 5 3 2 2 2 2 3 5 12 26 35 50 43 55 56 67 86 93 90 99 96 100 100 82 68 70 64 77 87 94 96 100 98 89 85 89 92 95 85
10 7 7 6 5 5 4 5 4 3 2 2 2 2 2 4 7 26 44 52 46 44 55 70 89 97 100 100 97 87 61 43 57 66 65 74 87 91 97 83 75 81 94 85 70 64 58
10 7 7 6 5 5 4 5 3 2 2 2 2 2 2 4 7 22 48 53 41 33 60 77 92 99 100 100 91 61 47 56 81 84 91 91 89 91 85 80 75 78 80 81 83 76 49
10 8 7 6 5 5 4 4 3 2 2 2 2 2 2 4 6 17 46 47 34 36 63 85 99 99 100 98 79 54 55 76 84 88 93 88 96 98 95 89 83 81 75 66 61 56 53
10 8 7 6 5 5 5 3 2 2 3 2 2 2 3 3 6 14 28 37 31 51 75 100 100 94 100 98 71 56 75 93 97 97 100 100 100 94 87 79 73 71 73 75 64 58 61
10 8 7 5 4 5 5 3 2 2 3 2 2 2 2 4 6 13 28 33 41 70 78 99 94 96 93 99 80 62 74 79 87 96 97 100 99 88 83 80 79 85 96 76 65 59 47
9 7 6 5 4 5 5 3 2 2 2 3 2 2 3 3 6 10 24 37 65 69 67 85 93 78 82 89 95 86 76 81 85 93 98 98 97 97 86 93 76 79 78 66 59 49 43
10 7 6 5 5 5 5 3 2 2 2 3 2 3 3 4 6 10 17 49 81 76 56 79 93 94 85 99 100 100 100 100 100 100 100 100 98 99 89 75 77 73 63 62 56 50 42
10 8 6 5 5 5 5 3 2 2 3 3 2 3 3 5 7 9 23 55 82 63 57 81 97 94 100 100 100 96 87 100 100 100 100 100 99 82 76 75 66 62 54 73 79 64 44
10 8 6 4 5 5 5 3 2 3 3 3 3 3 4 5 8 9 25 57 76 75 75 76 90 96 100 100 100 93 100 100 100 99 100 96 85 81 71 63 54 82 76 60 59 69 56
10 8 6 4 6 6 6 3 2 3 4 3 3 4 5 6 9 12 30 60 60 70 86 90 100 100 100 98 100 100 100 100 100 100 96 88 84 71 61 70 79 65 72 99 100 91 82
10 8 6 5 6 6 6 3 2 4 4 4 5 5 5 7 10 11 17 40 57 68 92 93 99 100 100 100 100 100 100 100 100 99 93 87 71 75 77 79 64 87 85 99 91 98 70
10 8 6 5 7 8 8 4 3 4 5 5 6 6 7 8 9 12 15 21 44 69 79 99 100 100 100 100 100 100 100 100 98 94 84 73 79 81 76 89 76 88 100 100 75 91 57
10 9 6 5 6 8 10 5 3 4 6 7 6 7 8 9 10 11 14 18 26 53 68 98 100 100 100 100 100 100 100 97 100 92 84 83 76 82 100 82 81 100 100 100 100 87 76
10 9 6 5 6 9 10 5 3 4 6 8 8 8 8 10 12 13 15 19 27 42 64 94 100 100 100 100 100 100 100 97 97 92 100 93 78 74 100 98 100 100 100 100 100 100 82
10 9 7 6 7 10 11 6 4 4 6 9 9 9 10 10 11 13 14 17 29 42 58 91 99 100 100 100 100 100 99 94 98 96 100 94 71 77 100 100 96 100 100 100 100 99 98
10 9 7 8 9 10 12 8 4 4 6 10 10 10 10 11 12 13 14 17 22 32 53 76 92 96 96 95 100 100 99 100 99 100 100 95 91 85 82 92 100 98 93 100 100 100 100
10 9 8 10 11 12 14 8 5 5 6 11 13 12 12 13 13 14 17 18 22 28 38 50 67 71 85 88 98 97 87 100 89 100 92 94 82 78 86 100 100 100 100 100 99 100 100
9 9 9 11 13 12 16 8 5 5 6 12 13 14 14 14 14 15 16 20 24 28 37 44 54 68 80 90 95 82 83 80 100 99 94 88 68 62 76 82 85 96 88 100 99 100 100
9 10 9 11 14 12 15 8 5 5 6 12 14 15 16 16 15 20 22 22 29 36 42 47 51 55 59 63 68 69 86 96 75 86 88 94 69 64 70 75 82 89 85 98 94 100 100

GFSGBSN_250_rhum_039.txt.gz
RH
11 12 13 10 9 8 8 7 7 8 10 10 8 8 10 11 15 20 19 18 19 32 46 66 75 81 81 92 100 98 77 88 100 100 100 100 100 100 100 100 99 86 94 97 100 99 87
11 13 12 10 9 9 8 8 8 9 10 10 10 9 10 12 13 19 20 19 17 28 42 56 54 68 75 85 100 100 88 86 90 100 100 100 100 100 100 100 100 100 96 85 81 80 87
11 12 12 11 12 10 9 8 8 10 10 10 9 11 12 14 14 15 21 20 16 21 34 45 52 64 69 67 93 100 100 90 81 76 80 100 100 100 100 100 100 100 87 75 69 65 67
10 11 11 9 10 10 9 10 11 13 12 11 11 12 16 17 17 16 19 23 19 17 23 41 56 64 90 67 71 94 100 100 100 98 83 85 96 100 100 100 100 92 93 89 84 72 67
10 10 11 9 8 8 7 7 8 12 14 18 20 15 16 18 19 23 21 23 23 20 19 24 43 42 71 87 73 89 100 100 100 100 100 90 84 86 96 100 97 96 100 100 96 83 69
10 10 10 9 8 8 6 6 7 8 10 15 18 19 11 15 18 20 27 29 25 25 18 20 24 37 58 86 88 77 86 100 100 100 100 100 99 93 91 91 92 87 88 89 88 87 79
11 10 10 10 8 7 6 5 6 7 7 7 6 6 6 8 10 22 27 29 22 25 24 28 27 24 42 70 80 84 77 99 100 100 100 100 100 100 100 98 92 92 94 88 90 85 80
12 10 10 9 8 7 5 5 5 5 5 4 3 3 4 4 6 10 23 26 26 40 47 24 25 25 26 35 43 52 72 94 100 100 100 100 100 100 100 100 100 100 99 92 83 78 76
12 10 10 10 8 6 4 5 5 4 3 2 2 2 2 3 4 6 19 27 38 63 39 30 23 30 33 33 38 48 58 78 100 100 100 100 100 100 100 100 100 100 97 99 96 91 87
11 11 10 9 7 5 4 5 5 4 2 2 2 2 2 2 3 4 16 24 49 52 38 43 42 41 54 67 67 73 79 90 100 100 100 100 100 100 100 100 100 100 100 100 96 96 94
12 11 10 9 7 6 4 5 4 3 2 2 2 2 2 2 3 4 9 29 49 54 39 39 37 54 61 65 95 84 76 78 93 95 91 88 84 81 81 76 87 88 100 100 100 97 92
12 11 10 9 7 5 4 4 4 2 2 2 2 2 2 2 3 4 8 32 48 44 33 42 44 63 64 71 72 85 76 73 80 75 71 79 92 99 99 99 100 100 100 100 100 96 81
12 11 10 8 6 5 4 4 4 2 2 2 2 2 2 2 3 4 8 32 40 31 40 52 44 73 73 86 91 91 94 98 93 93 95 98 100 98 94 92 93 89 81 74 73 71 61
12 11 10 8 6 5 4 4 3 2 2 2 2 2 2 2 4 4 8 16 28 30 52 58 58 69 82 92 96 100 100 97 100 98 92 76 50 50 57 62 66 67 70 73 55 65 64
12 11 10 7 6 6 4 4 3 2 2 2 2 2 2 3 3 5 9 20 25 46 62 62 63 86 93 98 100 100 100 94 88 73 47 45 64 73 82 87 86 87 73 81 71 68 64
12 11 9 7 6 6 5 4 3 2 2 2 2 2 3 3 3 5 8 18 37 56 75 71 80 90 100 100 96 100 92 77 58 47 57 88 89 90 91 76 68 75 88 92 87 72 74
12 11 9 7 6 6 5 4 3 2 3 3 2 2 3 3 4 6 7 22 40 59 64 72 75 93 99 96 90 90 92 65 54 63 80 83 80 84 70 73 97 100 99 80 74 74 62
12 11 8 6 6 6 5 5 3 2 3 3 3 2 3 3 4 8 13 43 54 55 62 66 80 91 91 92 94 100 94 73 66 68 82 96 99 92 96 100 98 91 78 80 66 61 74
11 11 8 6 6 6 6 5 3 2 4 3 3 3 3 4 6 9 17 43 53 46 67 81 90 92 100 100 100 100 96 90 92 97 98 99 99 97 100 97 92 87 68 61 81 70 91
11 11 8 6 6 6 6 6 4 2 4 4 4 3 4 5 8 11 20 40 45 48 64 77 92 98 98 99 99 96 95 100 97 96 98 100 100 100 99 95 81 56 58 72 70 86 97
12 11 8 7 7 6 6 6 4 3 4 5 5 5 5 6 9 11 16 31 54 57 68 84 97 100 100 99 96 94 100 98 98 100 100 100 100 99 95 72 59 56 83 96 97 97 99
12 10 8 7 9 7 7 7 5 4 4 6 6 6 6 8 10 12 19 46 68 65 69 77 96 100 94 91 90 94 94 87 89 98 100 99 100 90 71 62 60 62 78 100 100 100 100
12 10 9 8 9 7 8 8 6 5 4 8 7 8 8 9 10 12 23 54 89 90 95 100 100 100 99 96 96 100 97 98 98 100 97 97 91 74 74 68 76 94 93 98 96 99 100
12 11 9 9 9 7 8 8 9 6 6 9 8 8 9 11 12 13 19 45 93 95 99 100 100 100 100 100 100 100 100 98 98 99 100 95 76 74 61 87 99 84 91 82 100 100 91
11 11 10 10 8 7 9 8 12 6 7 9 10 10 9 10 11 14 18 28 60 87 91 98 100 100 100 100 100 100 100 99 99 97 100 88 77 72 64 99 97 87 88 77 95 100 100
12 11 12 12 9 8 8 8 14 7 7 8 10 9 11 11 12 13 15 18 30 64 92 86 99 100 100 100 100 100 100 99 98 99 99 84 87 96 74 72 92 94 86 94 92 100 84
11 11 13 11 11 9 8 9 13 10 8 8 11 10 11 11 12 12 13 14 18 27 62 86 81 100 100 100 100 100 94 97 97 100 97 93 86 88 71 60 72 100 100 100 100 100 100
11 11 12 11 12 11 9 10 15 14 8 8 11 11 12 13 13 13 14 15 17 20 28 47 67 85 100 100 100 100 95 93 97 100 95 100 96 93 80 64 60 89 100 91 97 100 100
11 11 12 10 12 12 10 10 14 14 8 8 9 12 14 14 15 15 16 17 19 21 26 34 56 65 94 99 100 100 93 92 98 100 99 94 98 100 66 58 66 76 88 88 84 93 100

GFSGBSN_250_rhum_042.txt.gz
RH
11 11 10 10 10 11 11 10 8 7 7 7 8 10 10 9 8 9 12 14 14 14 15 20 30 40 49 41 75 100 78 97 100 100 100 100 100 100 100 100 100 100 100 100 100 91 92
12 12 12 11 11 12 11 11 9 8 7 8 8 9 10 11 9 8 11 12 17 14 15 18 20 30 50 66 91 96 92 94 78 100 100 100 100 100 100 100 100 100 100 100 100 100 100
12 11 11 11 10 12 10 10 9 9 10 10 9 8 9 11 12 9 10 12 15 19 17 16 19 24 39 70 100 90 100 98 100 91 100 100 100 100 100 100 100 100 100 100 100 100 84
13 11 11 11 10 11 10 9 8 6 6 9 11 10 9 10 13 14 10 14 14 19 22 20 17 22 30 63 100 100 100 98 99 84 70 91 100 100 100 100 100 100 100 100 100 100 100
13 11 11 11 10 10 10 8 7 5 5 6 8 9 11 9 7 15 13 13 16 20 22 21 19 20 29 50 85 99 100 100 98 100 100 93 84 92 100 100 100 100 100 100 100 100 100
12 12 12 11 9 10 9 7 6 4 4 5 6 6 5 5 5 7 17 17 20 19 19 23 20 20 36 56 84 96 98 100 100 100 100 100 98 76 83 98 100 100 100 100 100 100 100
12 13 12 11 9 10 8 6 5 4 3 4 4 3 2 2 3 4 10 22 22 20 15 26 28 20 30 56 70 87 98 94 87 96 100 100 100 100 84 70 70 87 100 100 100 100 97
12 13 12 11 9 10 8 6 5 3 4 4 3 2 2 2 2 3 5 13 23 18 23 29 29 23 23 35 53 70 81 97 95 92 100 100 100 100 100 99 96 84 70 70 71 80 71
11 13 12 11 9 10 7 6 4 3 4 4 2 2 2 3 3 3 4 7 22 20 32 42 30 31 23 22 46 60 70 93 99 84 90 99 100 100 100 100 98 96 94 88 79 74 77
12 13 12 11 9 10 6 5 4 3 4 3 2 2 2 3 3 3 4 7 14 20 34 32 35 37 30 26 33 36 56 70 94 100 96 96 100 100 100 100 90 89 99 100 95 88 84
12 14 12 10 10 9 6 5 4 3 4 2 2 2 2 3 3 3 4 8 7 20 36 38 51 43 31 26 28 29 36 50 73 77 95 99 93 100 100 100 94 94 100 100 100 100 100
13 14 12 10 10 8 6 5 3 4 4 2 2 2 2 2 3 3 4 4 6 20 34 31 57 50 49 42 42 39 38 39 51 61 63 75 96 99 98 100 96 87 93 85 86 92 91
12 14 13 10 9 7 6 5 3 4 4 2 2 2 2 2 2 2 3 4 7 25 27 41 59 58 62 55 66 70 66 61 50 60 58 69 82 85 100 100 99 100 100 100 88 84 92
13 14 14 10 9 6 5 5 3 4 3 2 2 2 2 2 2 2 3 6 11 19 42 60 60 51 63 61 63 76 82 85 84 96 93 89 77 92 88 84 92 92 90 75 71 79 86
13 15 14 10 8 6 5 5 3 5 3 2 2 2 2 2 2 3 4 9 16 31 62 83 79 64 70 65 68 89 92 79 81 80 77 77 84 74 75 78 75 75 77 93 98 94 84
14 15 14 10 8 6 6 5 4 6 2 2 2 2 2 2 2 4 5 8 26 41 79 84 87 78 88 92 93 99 96 92 90 92 96 93 88 92 92 86 86 90 68 54 51 48 60
14 16 14 10 7 6 6 5 4 6 2 2 3 2 2 3 3 4 6 11 29 52 78 90 82 74 69 82 81 90 96 100 100 99 94 82 90 92 78 60 49 55 70 68 66 74 57
14 15 13 10 7 6 6 5 5 6 2 3 3 3 3 3 3 5 10 16 37 58 71 91 82 83 92 98 95 100 100 100 100 94 87 72 62 47 48 60 73 97 73 80 79 82 80
15 14 13 10 7 6 6 5 5 6 3 3 4 3 3 4 4 8 12 29 46 61 90 92 77 86 97 100 100 100 100 95 87 65 53 48 48 53 75 98 94 82 78 80 89 78 70
14 14 12 10 8 6 6 6 6 6 3 3 4 4 4 5 7 9 15 36 49 54 74 85 78 92 100 99 100 100 100 97 83 66 62 73 76 89 89 82 73 70 84 72 68 72 67
14 13 12 11 8 7 6 6 7 7 4 4 5 5 6 6 8 10 11 21 31 51 83 90 89 98 99 100 100 100 100 97 90 81 82 83 90 86 74 75 85 75 65 68 76 78 67
14 13 13 11 9 8 7 6 8 8 5 4 6 7 8 7 10 13 11 19 40 68 92 96 97 100 100 100 100 100 100 96 90 87 88 90 89 76 81 84 75 67 65 70 83 81 90
13 12 14 11 9 8 8 7 8 11 7 4 8 9 9 9 10 14 19 35 57 91 99 98 93 98 100 100 100 98 95 98 98 92 85 85 85 86 87 81 71 62 88 78 84 93 100
12 12 13 12 10 8 8 9 9 11 10 5 7 11 10 10 12 16 27 44 68 95 100 100 100 100 100 100 100 100 100 97 87 84 82 94 99 98 76 67 66 70 69 84 82 93 100
12 12 12 13 11 9 8 9 10 10 12 7 7 11 12 11 11 15 28 47 77 92 100 100 100 100 100 100 100 99 97 91 89 92 94 100 100 80 70 65 93 99 77 84 100 99 98
12 12 12 14 12 11 9 9 11 11 11 8 7 11 14 13 13 13 20 43 75 88 97 97 100 100 100 100 100 98 95 94 94 92 100 100 86 68 73 69 90 74 72 98 100 100 94
11 13 13 16 12 12 10 9 12 11 12 11 6 8 13 13 13 14 15 30 84 98 100 99 99 100 98 100 100 100 99 100 100 100 97 94 78 79 80 84 78 61 100 100 99 83 95
11 13 13 15 13 12 12 11 10 11 12 12 7 8 13 14 15 15 14 17 28 47 72 93 100 99 100 100 100 100 100 100 100 100 100 95 82 88 80 71 70 65 72 79 75 78 96
12 12 12 14 13 12 11 12 11 11 12 12 6 7 11 15 16 16 16 16 18 30 51 71 86 93 98 100 93 100 95 100 100 100 100 87 94 97 79 88 72 81 76 63 68 80 82

GFSGBSN_250_rhum_045.txt.gz
RH
23 19 13 11 11 12 12 10 10 10 9 9 7 6 6 7 8 8 9 9 11 10 10 12 13 12 19 42 71 63 77 71 100 100 100 100 100 100 100 98 95 92 86 97 100 93 87
24 17 12 10 12 12 12 10 10 10 8 8 8 8 6 6 8 9 9 9 10 10 10 11 13 14 14 41 70 74 57 88 81 99 100 100 100 100 100 100 96 95 94 99 100 100 100
23 17 11 11 12 12 12 10 10 8 7 7 6 6 10 9 6 9 10 11 10 10 10 10 12 14 15 28 83 78 58 62 88 82 100 100 100 100 100 100 100 97 100 100 100 100 100
23 16 11 12 12 11 9 10 8 7 6 5 5 5 6 8 7 4 6 10 12 11 11 11 11 16 21 19 56 57 80 68 83 97 94 100 100 100 100 100 100 100 100 100 100 100 100
24 13 12 13 13 10 9 8 8 5 5 5 4 4 4 3 3 2 2 6 11 13 13 11 10 14 20 20 31 52 81 100 82 92 99 95 100 100 100 100 100 100 100 100 100 100 100
19 13 12 14 12 10 9 8 8 5 4 4 3 4 2 2 2 2 2 3 8 16 16 11 10 13 22 26 21 34 68 100 100 91 98 100 93 93 100 100 100 100 100 100 100 100 100
16 12 12 14 13 10 8 7 6 4 4 4 3 2 2 2 3 3 3 3 5 10 14 17 17 20 25 28 21 28 49 94 100 92 81 91 100 99 100 99 100 100 100 100 100 100 100
14 12 13 14 12 9 7 7 5 4 4 4 3 2 2 3 2 3 3 2 4 7 12 23 19 15 22 25 22 22 38 78 100 100 84 90 100 100 94 80 92 100 100 100 100 100 100
13 13 13 14 12 9 6 7 5 4 4 4 3 2 3 2 2 3 3 3 4 8 10 26 22 25 24 30 28 31 30 56 76 99 100 92 90 93 98 100 94 83 89 93 100 100 100
13 13 14 14 11 8 6 6 4 4 3 3 2 3 2 2 2 2 3 3 4 5 11 25 26 24 30 35 27 31 44 36 60 94 96 100 100 100 100 100 92 91 81 85 82 82 85
13 14 14 14 11 8 6 6 4 4 3 3 2 3 2 2 2 2 3 3 3 6 18 31 31 34 44 39 32 42 63 67 91 100 100 99 100 100 92 84 90 86 84 77 76 72 71
14 14 14 13 11 8 6 6 5 4 3 3 2 3 2 2 2 2 3 2 4 7 21 29 33 38 50 44 32 30 57 83 86 99 100 100 100 94 89 90 97 100 90 73 75 77 74
14 13 14 13 12 8 7 6 5 4 3 3 2 3 2 2 2 2 2 3 7 8 23 36 45 48 52 43 39 37 41 81 81 85 85 93 88 88 81 84 87 96 98 82 67 65 68
14 14 14 12 12 8 7 6 5 4 3 3 3 3 2 2 2 2 3 6 8 15 41 40 53 46 53 45 37 32 34 51 70 78 87 90 95 89 85 75 83 86 86 83 87 97 85
14 14 13 12 12 9 7 6 5 5 3 3 3 3 2 2 2 3 3 6 11 31 49 53 51 56 55 49 50 48 40 36 44 50 52 58 64 58 62 66 61 76 76 87 92 95 91
15 14 14 12 12 9 7 7 6 5 4 3 3 3 2 2 2 2 4 8 15 40 48 66 80 87 71 70 76 60 58 64 62 51 67 70 54 58 65 64 72 78 96 93 87 79 82
15 14 14 11 13 9 7 7 6 5 4 4 4 3 3 2 2 3 5 7 25 46 56 81 86 66 54 77 85 80 86 83 83 83 78 81 76 82 70 75 86 94 92 80 80 80 84
15 14 14 11 13 9 7 7 7 6 5 5 4 3 3 3 3 4 5 9 28 46 68 75 79 79 88 86 86 67 74 78 90 92 88 96 90 74 77 87 99 100 97 98 93 75 67
16 14 14 11 13 10 7 6 7 5 5 6 4 4 4 4 4 6 8 15 35 52 65 76 79 78 73 94 97 100 100 100 100 100 100 98 96 94 100 99 90 76 64 66 72 72 64
16 13 14 10 13 11 8 6 7 5 5 7 4 5 5 5 6 7 11 20 40 55 76 77 81 84 96 100 99 94 99 100 100 98 94 91 83 76 71 65 68 73 70 66 80 71 74
14 12 13 9 13 11 9 7 8 6 5 6 6 6 6 7 8 8 12 28 48 68 74 90 94 100 100 100 100 100 100 100 96 83 67 62 65 67 83 79 68 63 63 70 68 78 72
12 13 11 10 13 12 10 8 8 8 6 8 9 6 8 8 10 12 12 31 48 60 78 95 98 95 99 100 100 100 100 98 96 88 86 82 83 77 71 65 56 67 70 72 74 70 70
11 12 10 10 13 13 11 8 9 9 9 10 13 7 10 10 10 24 40 51 64 79 96 100 98 100 100 100 100 100 100 100 100 96 86 78 72 70 64 60 70 72 69 70 70 98 86
11 11 10 10 13 13 11 9 10 9 10 9 12 11 9 11 11 17 37 45 62 89 93 97 99 100 100 100 99 100 100 100 100 95 84 75 68 67 62 73 83 75 73 70 96 94 92
10 10 10 11 13 12 11 10 9 9 10 12 11 16 7 12 12 12 24 39 65 83 98 96 98 100 98 100 95 100 100 100 98 92 83 76 74 70 84 90 76 83 76 79 83 99 87
10 10 10 11 13 13 11 10 10 9 8 11 12 16 9 10 13 12 17 34 54 89 100 100 100 99 100 100 99 100 100 100 99 97 86 84 86 86 86 89 66 94 85 83 100 100 89
10 10 10 11 13 14 12 11 11 11 8 9 12 14 14 7 12 13 13 24 46 81 99 100 98 99 100 100 99 100 100 100 99 95 86 91 97 92 84 77 70 90 79 100 96 82 81
9 10 10 11 15 14 12 12 11 12 9 9 10 12 16 7 11 13 14 15 33 50 78 95 99 94 93 98 96 99 100 94 90 94 92 99 100 89 82 81 90 79 74 68 72 69 81
9 11 10 12 15 13 12 11 11 11 9 9 10 12 13 7 7 13 14 14 18 30 50 78 91 95 88 93 93 91 92 97 99 100 100 100 100 83 87 76 83 70 78 71 74 81 70

GFSGBSN_250_rhum_048.txt.gz
RH
31 30 24 14 12 13 12 11 10 10 9 7 6 6 6 6 5 6 7 7 9 10 10 12 12 12 12 13 17 22 34 96 100 100 100 100 100 100 100 100 100 95 98 100 91 64 59
36 30 19 13 13 13 12 11 10 9 8 6 5 5 5 6 7 5 5 7 8 10 11 12 12 12 14 15 14 24 33 41 93 100 100 100 100 100 100 100 100 100 100 100 100 98 91
32 32 16 13 14 13 13 11 8 8 7 5 5 5 4 4 4 4 4 4 6 9 12 11 13 13 14 17 20 24 28 47 48 95 100 100 100 100 100 100 100 100 100 100 100 100 100
31 26 14 12 14 13 13 10 7 8 6 5 5 4 4 3 2 2 2 2 3 6 11 12 12 13 16 14 18 27 30 39 60 65 98 100 100 100 100 100 100 100 100 100 100 100 97
26 18 13 13 13 13 13 10 6 7 5 4 4 3 3 2 2 3 3 3 3 3 8 14 13 14 15 17 20 24 33 38 69 67 78 93 100 100 100 100 100 100 100 100 100 100 100
23 16 12 13 14 13 12 8 6 6 5 5 3 3 2 2 2 2 2 3 3 3 4 10 16 14 15 20 17 21 27 33 70 67 78 87 90 97 100 100 100 100 100 100 100 100 99
17 13 12 14 13 12 11 7 5 6 4 4 3 3 2 2 2 2 2 3 4 3 3 7 21 21 20 16 16 17 25 23 54 74 65 85 95 85 100 100 100 100 100 100 100 100 99
16 13 13 13 11 10 10 6 5 5 4 4 3 3 2 2 2 2 2 3 4 4 4 6 20 25 21 17 17 20 26 26 38 98 78 76 97 100 95 99 100 100 100 100 100 100 100
15 14 14 12 11 9 10 6 6 5 4 4 3 2 2 2 2 2 2 3 4 4 4 7 28 36 25 19 21 26 25 29 45 88 100 80 77 85 86 91 95 100 100 100 100 100 100
14 13 13 11 10 9 9 6 6 5 5 4 3 2 2 2 2 1 2 3 3 4 3 10 30 34 26 19 22 22 27 24 29 74 98 85 76 72 90 93 95 95 100 100 100 100 100
13 13 12 9 9 8 9 6 5 5 5 4 4 2 2 2 2 1 2 3 3 4 4 14 31 32 27 27 32 33 31 34 32 57 90 99 100 100 82 81 93 99 100 99 87 99 100
13 13 11 8 8 8 9 6 5 6 5 4 3 2 2 2 2 1 2 3 3 4 6 17 28 30 31 38 43 40 38 43 42 40 85 96 90 100 97 75 82 90 97 86 94 95 91
12 12 10 8 8 7 9 6 5 6 5 4 4 2 3 2 2 2 2 2 4 4 13 26 35 40 42 56 64 47 44 36 40 54 90 92 87 90 100 96 84 86 88 92 97 94 97
12 12 9 9 7 8 9 6 6 6 6 4 3 2 3 2 2 2 2 3 5 12 22 38 43 44 44 48 49 36 35 35 50 69 80 85 84 95 100 100 100 89 93 97 97 84 74
12 11 9 8 8 8 8 6 6 7 6 4 4 3 3 2 2 2 3 4 9 20 37 45 42 42 58 65 51 40 34 38 69 59 65 69 78 81 89 99 94 90 90 95 94 86 82
12 11 9 8 8 7 8 6 6 8 6 5 4 3 4 3 3 3 3 4 12 30 44 59 77 78 69 58 46 40 38 44 50 65 58 71 77 87 89 90 98 98 91 82 76 76 79
12 11 8 7 8 7 8 6 6 8 7 5 4 3 4 4 4 4 4 5 15 37 55 70 75 73 72 54 45 38 39 39 42 55 68 65 68 77 82 92 100 99 85 61 56 63 76
11 11 8 8 8 7 8 6 5 8 8 5 5 4 6 6 5 5 5 8 27 45 48 65 75 79 52 52 54 57 50 46 54 59 64 70 78 85 99 95 94 90 86 78 66 80 80
10 9 7 8 8 7 8 7 5 7 8 6 6 5 7 7 7 7 7 17 38 49 55 70 74 70 76 90 94 82 81 74 79 78 71 65 78 89 91 94 85 70 66 79 96 89 82
10 8 7 7 8 8 8 7 6 6 7 8 7 7 8 9 10 10 11 20 36 51 65 71 67 77 83 94 97 100 100 96 94 94 93 88 84 90 98 97 92 90 96 97 93 97 84
8 7 7 8 8 8 9 8 6 7 9 9 9 11 8 11 14 19 27 40 48 60 72 76 75 82 84 94 100 100 100 100 100 97 95 94 99 100 100 98 90 94 91 78 85 82 70
8 7 8 8 9 8 10 11 8 7 8 9 10 13 13 12 15 23 34 51 62 72 75 70 80 78 80 97 96 100 94 98 99 98 99 100 98 93 84 75 75 80 76 68 68 69 72
8 8 8 8 9 9 11 12 10 9 8 8 10 14 18 14 14 21 32 48 65 75 79 80 89 83 89 92 95 98 100 100 100 93 83 72 74 83 85 83 76 64 67 70 73 79 74
8 8 7 8 9 9 12 13 10 9 9 9 10 12 18 21 15 17 26 34 51 72 84 87 87 91 91 88 94 100 100 100 93 90 94 98 97 83 73 68 66 69 66 70 76 99 77
8 8 6 8 9 10 11 13 11 11 9 9 9 10 15 26 17 16 19 25 41 61 80 86 89 97 91 92 98 100 100 100 100 99 98 92 80 74 70 68 68 68 73 80 76 75 73
8 7 7 9 9 10 12 14 11 11 10 10 9 10 12 17 26 13 17 22 39 54 71 82 93 94 99 98 96 98 100 100 100 98 95 89 75 73 66 67 73 76 86 82 72 80 63
7 7 7 9 10 10 12 13 12 11 10 10 10 10 10 14 24 17 14 17 21 46 60 79 88 93 96 98 99 100 99 100 100 100 98 82 83 69 71 70 84 81 100 90 94 72 66
7 7 7 9 10 11 12 13 11 11 10 11 10 9 10 12 18 18 11 15 20 28 41 60 82 85 87 94 97 98 98 96 99 100 100 95 82 76 86 80 93 88 95 98 83 73 73
7 7 7 9 10 12 12 12 11 10 10 11 10 9 9 11 14 12 9 14 15 19 26 39 56 77 81 90 95 95 100 99 99 100 96 91 84 87 96 89 99 92 90 88 83 73 77

GFSGBSN_250_rhum_051.txt.gz
RH
42 34 25 15 14 12 12 9 10 9 8 8 7 6 6 6 5 5 5 4 5 6 8 8 8 8 10 13 15 15 14 33 82 100 100 100 100 100 100 100 100 100 100 100 98 75 70
40 31 19 13 12 11 10 8 9 8 7 8 6 6 5 4 4 3 3 2 3 4 8 9 8 9 10 15 13 15 15 18 54 100 100 100 100 100 100 100 100 100 100 100 100 98 93
32 25 13 11 11 10 9 8 8 7 7 6 6 4 4 4 3 2 3 2 3 3 6 8 8 9 11 14 14 15 15 18 30 78 100 100 100 100 100 100 100 100 100 100 100 100 100
30 19 11 11 11 10 9 7 7 6 6 6 5 4 3 3 2 2 3 3 3 3 4 7 9 10 14 12 15 16 16 18 22 61 100 100 100 100 100 100 100 100 100 100 100 100 100
21 12 10 11 11 10 9 6 6 5 6 5 4 4 3 3 2 2 2 2 2 3 3 6 10 12 15 13 17 17 17 18 27 31 66 100 100 100 100 100 100 100 100 100 100 100 100
16 11 11 11 11 10 8 5 5 5 5 5 4 4 3 2 2 2 2 2 2 3 4 5 10 14 15 16 15 19 18 22 22 29 46 88 100 100 100 100 100 100 100 100 100 100 100
15 12 11 11 11 9 9 5 5 5 5 5 4 3 3 2 2 2 2 2 2 3 4 4 12 19 16 14 14 17 18 20 34 43 45 42 84 100 100 100 100 100 100 100 100 100 100
16 11 11 12 11 9 9 5 5 5 5 4 4 3 2 2 2 1 1 2 2 3 5 5 12 22 18 17 17 18 18 22 38 36 57 57 42 95 100 100 100 100 100 100 100 100 100
14 11 12 12 11 9 8 5 5 5 5 4 4 3 2 2 2 2 1 2 2 3 5 6 11 24 21 18 18 22 21 32 35 38 47 63 69 64 81 100 100 100 100 100 100 100 100
12 13 12 11 10 9 8 5 5 5 5 4 3 3 2 2 2 2 2 2 3 3 5 5 10 24 23 23 21 21 21 29 31 31 55 59 54 64 62 72 86 100 100 100 100 100 100
13 13 12 10 10 9 8 5 5 5 5 4 4 3 2 2 2 2 2 2 3 4 5 6 11 23 28 27 28 28 28 31 33 24 51 90 60 53 71 77 79 97 99 100 100 100 100
12 13 11 9 9 9 7 5 5 5 6 4 4 3 2 2 2 2 2 2 3 4 4 6 11 31 33 31 31 33 41 36 40 31 35 60 64 57 62 71 82 90 92 86 94 100 100
12 12 11 9 8 8 6 6 6 5 6 6 5 3 2 2 2 2 2 2 3 4 5 7 19 28 34 44 51 52 56 42 34 37 60 70 67 75 61 70 90 90 85 85 74 83 100
12 11 11 9 9 8 7 6 6 5 6 6 5 3 2 2 2 2 2 2 3 4 9 17 28 39 45 53 50 59 67 57 43 41 48 69 79 87 99 95 73 78 81 90 94 89 92
11 11 10 9 9 8 7 7 6 5 6 6 4 3 2 3 3 4 3 3 4 7 21 36 38 41 48 55 58 63 46 36 36 34 39 55 73 90 100 100 85 82 80 91 95 96 100
11 11 10 9 9 8 8 7 6 6 7 7 5 4 3 4 4 5 5 4 7 18 36 43 65 78 57 67 71 59 42 39 38 42 57 59 80 93 100 91 90 89 94 100 86 84 97
11 10 9 9 9 8 8 7 6 6 8 7 7 5 5 5 6 6 6 8 12 27 44 53 54 63 71 47 42 39 37 38 45 51 64 74 81 92 95 100 75 90 99 100 100 100 90
11 10 9 8 9 8 8 7 7 8 8 8 8 7 6 7 9 9 9 14 18 26 37 55 70 75 55 46 45 41 40 46 50 60 75 84 98 100 100 98 97 93 91 84 94 99 94
11 10 10 8 9 9 9 8 7 8 9 11 10 8 9 10 14 17 19 23 34 42 53 71 81 78 77 82 65 52 51 54 59 64 72 88 97 100 99 98 88 86 86 78 87 86 78
10 9 9 8 8 9 9 8 8 10 10 12 11 10 12 12 19 33 32 29 32 38 42 57 64 65 73 71 80 85 72 65 62 72 88 92 99 100 98 88 92 92 89 86 82 80 82
10 9 8 8 8 8 9 8 8 10 11 11 13 12 12 15 17 28 44 50 52 48 57 58 56 67 76 73 84 87 91 84 76 78 84 89 99 96 94 88 77 70 81 89 78 88 64
9 9 8 8 8 8 9 8 8 10 10 10 19 14 14 15 17 29 29 46 59 57 60 64 64 66 77 80 86 74 88 91 92 92 96 98 100 94 92 88 93 100 100 94 94 100 97
9 8 8 7 8 8 8 8 9 10 10 10 12 20 15 18 21 21 29 31 44 50 59 60 60 66 68 78 86 97 99 94 98 100 100 100 100 100 94 93 100 100 99 100 93 86 88
8 7 8 7 7 8 8 9 10 10 10 9 11 14 20 18 22 28 25 32 36 51 59 57 63 64 67 74 79 84 91 90 87 92 97 100 100 99 96 99 88 78 82 84 89 89 82
7 7 7 7 7 8 8 9 10 11 10 9 10 11 15 20 19 24 27 22 45 51 58 68 68 70 72 74 74 81 92 96 100 100 100 94 81 71 74 79 83 80 78 79 76 79 91
6 7 7 6 6 7 9 10 10 10 9 9 10 10 11 14 19 20 27 24 25 54 68 67 76 73 76 72 81 93 91 92 87 80 76 81 85 88 84 78 82 80 77 70 71 85 100
6 7 7 6 6 7 8 9 9 9 10 8 9 9 9 11 15 19 21 28 20 31 55 67 76 77 79 74 80 88 86 89 90 90 94 87 84 81 83 84 78 67 66 74 90 95 92
6 6 7 6 6 7 8 8 8 8 8 8 10 10 8 8 11 14 20 24 22 19 41 56 67 78 79 77 79 95 94 97 99 100 100 96 89 86 80 76 69 75 77 87 100 97 86
6 7 7 6 6 7 7 8 7 7 7 8 10 10 9 11 10 11 16 19 18 14 24 53 58 64 71 72 77 91 96 97 97 98 100 100 98 89 81 71 76 84 88 93 100 100 93

GFSGBSN_250_rhum_054.txt.gz
RH
27 21 18 12 10 10 10 9 8 8 6 6 6 6 6 6 5 4 4 3 3 2 3 4 5 7 6 5 8 9 9 11 21 73 100 100 100 100 100 100 100 100 100 100 100 97 98
24 18 17 13 10 10 10 9 7 7 6 6 6 5 5 5 4 3 3 3 2 2 2 3 4 6 6 8 8 8 9 10 19 37 100 100 100 100 100 100 100 100 100 100 100 97 92
20 18 14 12 10 10 10 8 7 7 6 6 5 4 4 4 3 2 2 2 2 2 2 3 3 5 7 9 7 10 10 12 16 29 53 100 100 100 100 100 100 100 100 100 100 100 100
18 18 15 11 10 10 9 7 6 7 6 6 4 4 4 3 3 2 2 2 2 2 2 2 3 3 9 9 8 11 11 14 16 31 36 75 100 100 100 100 100 100 100 100 100 100 100
17 16 15 11 10 10 9 7 6 7 6 5 4 3 3 3 2 2 2 2 2 2 2 2 3 4 10 10 10 12 12 16 15 28 36 40 97 100 100 100 100 100 100 100 100 100 100
20 18 15 10 10 9 8 6 6 7 6 5 4 3 3 2 2 2 2 1 1 1 2 2 4 5 12 12 12 13 14 17 16 20 28 38 46 98 100 100 100 100 100 100 100 100 100
27 23 13 9 9 8 8 6 5 6 5 4 3 3 2 2 2 2 2 1 1 1 2 3 5 11 10 13 11 14 15 20 19 21 22 28 30 64 100 100 100 100 100 100 100 100 100
35 27 10 9 8 8 8 6 5 6 4 4 3 3 3 2 2 2 2 1 1 2 2 4 7 7 13 18 14 16 16 22 22 24 24 29 25 49 96 100 100 100 100 100 100 100 100
35 29 10 9 8 8 8 7 5 5 5 4 4 3 3 2 2 2 1 1 2 2 3 5 7 7 15 13 16 18 18 24 26 24 25 29 29 36 74 80 100 100 100 100 100 100 100
29 21 9 10 9 9 8 7 6 5 5 5 4 4 3 2 2 2 1 2 2 3 4 5 6 11 16 18 19 19 18 25 29 24 24 24 37 48 31 68 80 100 100 100 100 100 100
30 13 10 10 9 10 8 7 5 5 4 4 4 4 3 2 2 1 2 2 2 3 4 6 8 10 14 22 20 19 21 23 30 26 25 26 29 36 40 49 75 91 100 100 100 100 100
30 12 11 10 8 10 8 7 6 5 4 4 4 3 3 2 2 2 2 2 3 4 4 6 6 12 22 21 20 20 25 26 40 26 22 27 30 38 52 64 52 73 100 100 100 100 100
28 13 11 10 9 9 9 7 6 5 4 4 4 3 3 2 2 2 3 3 3 4 6 7 12 21 27 27 24 24 28 29 48 36 28 34 32 45 66 72 64 57 73 100 100 100 100
18 12 11 10 10 10 9 8 6 6 5 5 5 4 4 3 3 3 4 3 3 4 7 8 16 28 32 31 27 28 32 37 56 56 35 59 60 58 73 91 100 66 60 60 88 100 100
12 11 11 10 9 10 10 9 7 7 6 6 7 5 4 4 4 5 6 5 4 5 10 21 34 36 38 36 36 36 34 32 44 40 28 42 65 54 58 72 92 99 82 71 68 62 86
10 10 11 10 9 10 10 9 7 7 7 7 9 8 6 5 6 9 10 9 8 14 25 35 38 42 37 34 39 39 37 43 34 34 30 39 67 67 70 73 82 94 94 89 81 87 91
9 10 10 10 9 9 10 8 8 8 10 8 10 10 8 7 7 12 15 14 16 18 24 28 26 24 35 35 33 32 40 40 45 43 45 51 65 67 78 82 92 93 78 80 84 91 100
8 9 9 10 9 9 9 8 9 7 10 10 11 11 9 9 10 14 19 22 24 26 30 32 40 47 57 52 49 49 51 48 49 49 47 55 67 81 91 100 98 92 99 77 75 89 99
8 8 9 9 8 9 8 8 9 8 10 14 13 12 11 11 12 17 26 30 28 27 33 43 55 58 59 61 65 62 53 44 44 44 52 62 85 99 99 100 100 100 95 86 82 76 79
8 8 8 8 8 8 7 7 9 8 11 13 16 14 12 11 12 20 26 33 45 43 43 43 42 43 43 46 44 49 49 40 44 50 62 74 90 96 97 99 96 90 81 76 78 74 84
8 7 8 8 7 7 7 7 8 8 10 12 16 16 13 14 13 17 26 32 40 47 47 40 43 48 44 51 42 39 47 47 53 60 72 81 90 93 98 98 96 99 100 100 100 100 88
8 7 7 7 6 6 7 7 8 8 9 11 13 17 18 17 14 17 26 47 46 46 50 48 50 51 58 56 59 47 54 58 58 66 72 80 85 94 95 96 100 100 100 99 94 93 76
8 7 7 7 5 6 7 7 8 7 8 10 12 14 19 20 16 16 20 27 47 55 57 55 55 54 60 56 59 61 55 62 70 77 84 86 86 88 89 97 100 98 94 86 86 87 93
9 7 7 6 6 6 6 7 8 7 8 9 10 12 14 17 22 17 17 24 29 53 72 72 59 60 60 58 60 70 83 84 81 80 82 87 91 88 78 86 88 92 86 87 100 100 100
8 7 6 6 6 6 6 7 7 6 7 8 8 10 12 14 24 21 19 18 27 33 63 87 79 63 68 66 76 77 78 89 97 95 95 100 98 93 97 100 100 98 93 98 100 96 94
8 7 6 6 6 6 6 7 7 6 6 8 8 9 11 11 17 23 23 21 19 29 35 77 97 69 72 71 70 70 67 77 86 93 97 100 99 96 100 100 100 94 91 85 87 95 99
7 6 6 6 6 6 6 7 7 6 6 7 7 9 10 8 11 13 19 23 21 21 28 38 89 90 70 69 67 62 76 87 98 100 99 94 90 83 73 75 76 80 84 87 85 92 89
7 7 6 6 6 6 6 7 7 6 5 6 7 9 9 8 8 9 12 18 22 22 26 27 44 94 88 70 66 74 87 83 90 83 75 69 73 78 80 81 85 86 80 73 76 82 93
8 7 6 6 7 6 6 7 7 6 6 6 7 8 8 7 6 8 8 10 20 22 23 27 22 63 92 79 69 72 71 80 85 81 73 75 80 78 76 80 81 77 69 68 76 91 96

GFSGBSN_250_rhum_057.txt.gz
RH
20 16 14 12 12 10 7 6 6 6 6 6 5 5 4 4 4 4 4 3 3 2 2 2 2 3 5 5 7 6 6 7 8 9 13 49 92 100 100 100 100 100 100 100 92 93 100
20 16 14 13 12 9 7 6 6 6 5 5 5 4 4 3 3 3 3 2 2 2 2 2 2 3 3 5 7 6 6 7 9 9 10 23 65 100 100 100 100 100 100 100 100 88 92
20 15 12 12 10 7 6 6 6 6 5 5 4 4 3 2 2 2 2 2 2 2 2 2 2 3 3 6 6 6 6 7 8 10 9 16 46 99 100 100 100 100 100 100 100 100 100
19 17 13 13 10 7 6 6 6 5 4 4 4 3 3 2 2 2 2 2 2 2 2 2 2 3 4 5 7 8 7 9 10 10 11 10 18 63 100 100 100 100 100 100 100 100 100
20 19 14 14 9 8 6 6 6 5 4 4 3 3 3 2 2 2 2 2 1 1 1 1 2 3 4 6 7 8 8 10 11 11 12 12 18 27 74 100 100 100 100 100 100 100 100
20 16 16 12 8 8 6 6 5 4 4 3 3 3 3 2 2 2 2 1 1 1 1 1 2 3 5 6 7 11 9 10 14 13 14 13 12 21 33 100 100 100 100 100 100 100 100
22 17 16 9 8 8 6 6 5 4 4 4 4 3 3 2 2 2 2 1 1 1 1 2 2 3 5 6 8 11 10 17 14 13 14 15 14 15 51 59 100 100 100 100 100 100 100
24 20 12 8 8 7 6 6 5 4 4 4 4 3 3 2 2 2 2 1 1 1 2 2 3 3 6 7 10 13 15 19 17 15 15 17 18 17 37 45 86 100 100 100 100 100 100
24 16 10 8 8 7 7 6 4 4 4 4 4 3 2 2 2 2 2 1 2 2 2 2 3 5 7 8 8 11 17 21 18 17 20 19 20 20 24 54 54 100 100 100 100 100 100
17 11 9 8 7 7 7 6 5 4 4 3 4 3 2 2 2 2 2 2 2 2 3 3 4 6 8 9 13 21 23 24 19 20 22 25 25 24 24 47 60 99 100 100 100 100 100
14 11 9 8 8 8 7 6 5 4 4 3 4 3 3 3 2 2 2 2 2 3 4 4 5 6 8 10 14 20 22 25 22 21 30 44 52 21 24 53 66 72 100 100 100 100 100
11 10 9 8 8 8 8 6 5 4 4 4 4 3 3 3 2 2 3 3 3 4 5 5 5 6 7 13 18 22 25 25 29 22 26 36 44 30 21 29 41 59 85 100 100 100 100
11 10 9 8 9 9 9 7 6 4 4 5 5 4 4 4 3 3 4 4 3 4 5 7 10 12 19 21 22 25 28 30 27 23 19 29 40 37 19 20 25 41 53 92 97 100 100
10 8 9 8 9 10 9 7 6 5 5 6 6 6 5 5 4 4 6 7 5 5 10 15 19 22 27 26 24 26 26 31 51 33 31 29 40 45 33 21 21 27 44 67 65 93 100
10 10 9 8 10 10 9 8 7 6 6 6 6 7 7 6 6 8 10 13 12 7 9 20 29 29 30 30 29 28 27 32 32 23 22 25 30 36 38 32 23 23 36 53 76 82 97
10 9 8 8 9 10 9 8 7 6 7 7 7 8 8 8 8 9 14 20 24 19 16 16 15 28 26 28 29 26 29 30 37 43 28 31 34 36 41 42 47 29 38 62 77 81 74
11 11 9 10 9 10 8 8 6 7 8 7 7 9 9 9 8 8 14 29 25 26 29 26 29 27 29 29 29 30 30 33 34 37 34 42 38 40 36 43 49 51 38 46 65 78 75
12 11 11 12 10 9 8 7 7 7 8 9 8 10 11 10 10 9 10 19 29 33 28 27 26 29 33 40 38 37 34 37 37 35 31 35 39 41 50 55 62 73 80 80 85 87 86
12 12 12 12 10 9 8 7 7 7 8 10 10 9 11 12 12 11 11 18 28 39 38 34 31 32 35 33 33 36 41 40 43 49 51 46 39 45 53 74 81 84 86 90 98 100 90
13 12 13 11 10 8 8 7 7 7 8 9 11 10 10 13 13 12 12 15 25 40 50 50 45 42 38 35 39 38 43 49 48 49 51 60 60 53 60 71 95 100 91 98 98 100 95
14 14 15 13 10 8 8 8 8 8 8 9 9 11 12 12 13 13 13 14 18 34 53 59 54 52 48 44 40 40 41 39 46 49 48 53 60 67 75 75 85 92 97 100 89 95 82
16 15 16 14 10 8 8 8 8 8 7 9 9 9 12 14 12 12 17 14 16 22 42 66 64 61 54 54 51 39 39 40 46 52 55 57 74 88 93 97 100 95 88 85 84 85 77
16 16 16 13 10 7 8 8 8 8 8 8 9 8 11 13 16 13 14 17 16 19 27 53 74 68 67 60 62 56 49 42 46 59 68 78 86 94 95 100 100 100 100 90 90 90 92
17 16 16 12 10 8 7 8 8 9 8 8 9 8 9 11 14 17 16 18 18 18 22 31 59 83 76 71 69 59 62 54 57 51 57 72 85 92 94 93 94 93 88 95 100 98 99
17 16 17 12 10 9 7 7 8 8 8 8 8 8 9 10 11 16 18 20 20 19 19 24 35 66 97 86 84 70 75 83 83 80 72 70 71 76 82 85 86 88 92 99 100 100 100
17 16 16 13 9 8 8 7 7 8 8 8 8 8 8 10 10 12 15 21 27 20 19 22 26 44 72 88 92 84 80 86 91 93 96 95 93 95 94 95 93 100 99 100 100 100 100
15 15 14 13 8 8 7 7 7 7 7 8 7 8 8 9 9 9 11 16 22 24 18 20 26 27 49 79 93 87 79 80 93 96 99 100 100 99 100 100 98 100 100 100 100 100 100
12 15 12 10 8 7 7 6 6 6 6 7 7 8 8 8 8 8 8 9 14 21 24 20 22 28 27 52 80 90 86 75 83 96 100 98 97 97 99 100 100 100 98 96 97 96 100
12 13 10 8 7 6 6 6 6 6 6 6 6 7 8 8 7 8 8 7 10 13 17 22 20 22 26 31 58 82 77 73 93 99 93 85 87 95 91 86 83 82 88 92 91 93 99

GFSGBSN_250_rhum_060.txt.gz
RH
24 26 22 19 11 7 5 4 4 4 4 4 3 3 3 3 3 2 3 3 3 2 3 3 3 2 2 4 7 9 7 6 6 7 10 40 91 97 100 100 100 100 96 98 100 100 100
22 21 17 13 8 6 5 4 4 4 4 4 3 3 3 2 2 2 2 2 2 2 2 2 2 2 2 4 6 7 6 6 7 7 8 16 78 99 100 100 100 100 100 99 100 100 100
22 18 17 10 7 6 5 4 4 4 4 3 3 2 2 2 2 2 2 2 2 2 2 2 2 2 3 4 5 7 6 6 7 7 8 9 47 88 100 100 99 100 100 100 100 100 100
23 16 14 8 7 5 5 4 4 3 3 3 3 3 2 2 2 2 1 1 1 1 1 2 2 2 2 3 4 6 6 7 7 8 8 8 10 50 100 100 100 92 92 100 100 100 100
22 16 12 7 6 5 5 4 4 3 3 3 3 3 2 2 2 1 1 1 1 1 1 1 1 2 2 3 4 5 6 7 8 8 9 8 9 12 88 100 100 99 94 90 100 100 100
18 11 8 6 5 5 5 5 4 3 3 3 3 3 2 2 2 1 2 1 1 1 1 1 1 2 2 3 4 4 6 8 8 8 10 9 9 11 13 96 100 100 100 98 95 100 100
17 11 8 6 6 5 5 4 4 3 3 3 3 3 3 2 2 2 2 1 1 1 1 1 2 2 2 3 4 6 9 10 10 11 13 10 9 9 12 25 98 100 100 100 91 93 100
16 10 8 7 7 6 5 4 4 3 3 3 3 3 3 2 2 2 2 1 2 2 2 2 2 2 3 3 4 7 9 10 13 14 13 11 10 10 10 14 41 100 100 100 100 100 97
12 10 9 8 8 8 5 5 5 4 4 3 3 3 3 2 2 2 2 2 2 2 2 2 2 3 4 5 6 10 11 22 16 19 15 14 13 11 13 13 19 42 100 100 100 100 100
15 14 13 12 9 9 6 6 6 4 4 4 3 3 3 3 2 2 2 2 2 2 3 3 3 4 5 7 8 8 16 19 15 16 15 16 15 12 13 14 16 25 68 100 100 100 100
18 25 23 16 10 11 9 7 7 5 5 5 4 4 3 3 3 2 2 3 2 3 5 4 4 5 6 8 10 15 23 22 18 21 22 22 18 14 15 17 18 22 31 79 100 100 100
23 33 38 28 12 11 11 9 8 6 5 6 5 4 4 3 3 3 4 4 3 3 5 7 7 6 7 10 15 22 21 20 22 26 28 21 19 18 16 17 19 21 23 36 72 100 100
21 28 31 26 13 11 11 10 10 7 5 7 6 5 5 5 5 4 5 5 6 5 5 7 11 12 11 18 24 27 22 19 20 26 29 24 21 18 17 18 19 20 21 28 44 91 100
21 20 19 16 14 12 12 12 11 8 6 7 7 6 7 6 6 6 7 8 13 14 11 9 12 19 30 24 22 22 20 23 23 23 22 22 18 15 16 19 19 18 20 23 38 51 77
16 16 14 16 16 14 13 14 12 9 7 7 8 7 8 7 8 8 10 10 17 21 19 17 15 16 23 25 27 27 25 21 20 22 23 22 23 18 14 17 18 18 20 19 29 37 50
16 18 16 16 17 16 15 14 15 10 8 8 8 8 8 9 8 8 9 12 23 23 23 23 27 22 20 25 25 24 24 22 20 20 22 28 31 24 23 18 24 21 27 30 28 33 50
18 16 17 20 19 18 17 14 16 11 9 8 8 8 8 9 9 10 9 11 22 31 31 28 26 34 30 24 25 27 26 24 24 26 24 27 32 36 33 24 26 33 52 51 49 57 67
18 20 16 20 20 18 18 16 16 13 10 9 9 9 8 9 9 10 12 10 15 25 34 37 33 30 31 32 30 29 30 31 30 27 26 33 36 50 50 42 37 33 30 46 38 50 60
15 23 20 22 19 22 18 16 14 13 11 9 9 10 9 8 10 10 11 12 12 21 34 45 48 45 40 37 37 36 34 37 47 51 49 37 30 40 51 64 55 51 38 46 43 42 52
17 20 22 21 18 20 19 15 13 13 11 9 9 11 10 9 9 10 11 13 13 14 24 38 48 54 55 51 47 47 51 52 46 49 43 43 39 42 43 49 63 65 63 58 66 75 70
20 19 20 25 18 18 19 15 12 12 12 10 9 10 10 11 9 10 10 12 15 13 16 28 42 50 55 54 53 52 52 53 49 50 51 49 57 51 46 46 66 85 86 94 88 89 86
18 20 24 27 16 18 16 14 13 11 10 10 8 9 11 10 10 10 10 12 12 14 14 16 28 41 48 55 56 58 48 40 45 43 48 53 60 63 60 52 63 90 97 94 95 96 100
13 22 24 22 17 19 16 12 13 10 9 9 8 8 10 10 10 10 11 10 12 14 15 15 20 35 48 56 56 51 52 45 40 36 41 46 53 64 70 68 71 80 93 91 92 88 81
17 19 24 17 15 16 16 12 10 10 8 8 8 7 9 10 10 10 10 11 11 13 17 16 17 26 44 65 68 60 58 51 44 46 47 54 59 73 78 84 88 86 91 99 94 83 82
15 17 21 15 13 15 16 12 9 8 8 7 7 6 8 9 10 9 10 11 12 14 17 17 16 20 27 58 74 84 66 62 56 58 58 56 65 75 85 96 100 94 91 99 99 94 99
12 23 14 13 12 12 15 11 10 8 7 7 6 6 6 8 10 9 9 11 11 14 17 21 16 17 22 41 65 82 88 79 69 62 66 76 70 71 80 89 98 100 97 100 99 99 95
13 16 12 13 13 12 13 11 9 7 6 6 6 6 6 7 9 9 8 9 10 13 18 22 19 18 18 24 50 71 92 91 83 80 74 80 96 87 81 80 87 94 97 97 96 97 98
19 12 14 12 11 11 11 9 8 7 6 6 5 5 5 6 8 8 8 8 8 12 21 20 19 20 19 18 27 58 77 96 89 86 86 88 90 98 99 100 98 100 100 99 98 99 100
9 13 14 10 9 9 9 8 7 7 6 5 5 5 5 6 7 8 7 7 9 9 10 18 22 20 20 20 22 31 63 82 90 90 94 92 92 92 90 100 97 100 99 99 98 91 93

GFSGBSN_250_rhum_063.txt.gz
RH
30 27 23 13 8 6 5 4 4 4 3 3 3 2 2 2 2 2 2 2 2 2 2 2 3 3 3 5 9 13 10 9 7 9 9 9 16 45 86 95 100 100 97 88 97 100 100
28 23 16 16 10 6 5 5 4 4 3 3 3 2 2 2 2 2 2 2 2 2 2 2 2 2 3 4 6 9 10 8 7 9 9 9 13 29 85 98 86 100 100 93 99 100 100
22 24 21 16 12 7 6 5 5 4 4 2 2 2 2 2 2 2 1 1 1 2 2 2 2 2 2 3 4 7 9 8 7 8 9 9 10 14 44 100 100 100 75 94 100 100 100
29 27 29 21 12 9 7 5 5 4 3 2 3 2 2 2 2 2 1 1 1 1 1 1 1 2 2 2 3 5 8 8 6 9 10 9 8 10 26 65 100 100 78 80 100 100 100
24 28 27 19 13 9 8 6 5 4 4 3 3 3 2 2 2 2 2 1 1 1 1 1 1 1 2 2 3 5 7 9 8 9 8 8 8 9 12 51 87 100 96 83 100 100 100
27 25 27 16 13 10 8 6 6 4 3 3 3 3 3 2 2 2 2 2 1 1 1 1 1 1 2 2 3 4 5 8 9 10 8 8 9 9 10 16 46 100 100 95 99 100 100
29 26 20 14 13 10 8 6 6 5 3 3 3 3 3 3 2 2 2 2 1 1 1 1 1 2 2 2 3 4 5 8 10 11 8 9 10 9 9 13 59 98 100 100 100 100 100
30 24 18 16 12 10 8 7 6 5 4 4 3 3 3 3 3 3 2 2 1 2 2 1 2 2 2 2 3 5 6 8 10 14 9 9 11 11 10 10 14 85 100 100 95 100 100
29 28 15 18 13 9 7 6 6 6 4 4 4 4 4 3 3 3 3 2 2 2 2 2 2 2 2 3 3 4 6 9 11 13 12 14 13 12 10 10 12 68 100 100 100 100 98
27 28 21 21 15 11 9 6 6 6 5 5 4 4 4 4 3 3 4 3 2 2 2 2 3 3 4 4 6 7 9 10 12 14 14 14 13 13 11 10 11 42 100 100 100 100 100
26 24 22 20 16 14 10 8 5 6 6 6 5 5 5 4 3 4 4 4 2 3 3 4 4 4 5 6 8 10 11 13 16 18 18 16 13 13 11 11 11 12 91 100 100 100 100
31 28 24 18 22 19 13 9 7 6 7 7 7 7 6 6 5 4 4 5 5 5 5 4 7 6 7 8 9 12 12 14 17 18 18 19 16 13 12 11 12 12 21 99 100 100 100
33 29 26 22 25 26 22 15 10 7 8 8 9 8 8 7 6 5 6 6 8 9 7 5 8 10 10 11 11 13 17 18 18 20 18 17 15 14 14 13 13 13 13 18 92 100 100
27 18 23 26 29 38 35 23 18 9 8 9 9 9 9 9 8 7 7 7 10 12 14 12 10 10 13 12 13 19 18 21 25 25 24 19 16 16 15 17 16 15 14 14 15 39 100
26 19 22 28 26 32 31 29 20 14 8 10 9 10 9 10 9 8 8 9 11 12 17 20 19 16 16 15 20 24 24 24 24 21 19 20 20 19 17 14 14 13 14 14 13 16 20
21 19 22 24 21 28 40 44 32 18 10 11 11 9 10 10 10 8 9 10 11 14 16 21 22 26 22 19 22 22 26 25 25 22 19 20 19 18 20 18 16 14 16 16 16 16 18
20 16 22 25 27 30 36 39 36 29 13 10 12 10 9 10 11 10 9 9 11 13 20 21 24 27 27 24 22 21 23 24 25 24 26 25 24 22 22 20 19 18 17 18 19 21 20
22 17 16 27 26 37 39 37 36 30 16 10 11 10 9 9 10 11 9 10 12 13 20 26 28 28 29 30 27 25 25 25 29 29 30 33 31 29 23 21 22 26 21 21 23 23 23
21 18 23 27 19 35 32 39 40 40 16 11 11 9 9 8 9 10 10 9 11 13 14 25 32 39 40 37 32 33 28 28 27 31 32 35 38 43 38 30 29 27 33 32 27 28 29
19 18 23 47 23 40 37 34 49 55 30 18 12 10 8 9 9 9 10 9 10 11 13 15 29 36 43 57 57 46 39 35 35 30 30 33 36 46 54 54 47 43 43 46 49 52 50
18 20 22 37 32 43 26 32 34 50 41 24 12 12 9 8 8 9 10 10 10 11 12 14 19 35 36 40 53 61 59 55 48 43 37 36 36 36 46 47 49 48 51 49 62 65 58
20 21 27 34 36 41 44 32 27 39 58 20 14 12 9 8 8 9 10 9 10 11 11 13 15 20 42 44 44 52 54 50 54 50 50 53 54 44 44 45 46 51 49 45 51 55 62
18 24 29 31 45 50 34 32 26 36 46 48 14 12 10 8 7 8 9 10 10 10 11 12 16 16 20 42 43 41 49 50 45 46 50 50 50 45 46 45 53 58 54 66 66 72 70
17 27 24 33 59 57 23 33 16 28 41 44 16 11 10 8 7 7 8 9 9 10 11 12 14 17 17 23 44 42 38 41 44 42 42 44 47 47 53 55 61 50 66 75 85 87 79
14 18 24 37 48 58 29 23 43 29 32 27 25 11 10 8 7 7 7 8 9 10 10 11 12 16 17 19 30 47 46 42 46 42 42 45 48 52 69 74 68 72 70 83 90 86 88
17 19 22 24 33 35 21 23 24 19 17 22 12 10 10 8 6 7 7 7 8 9 10 12 14 13 17 18 20 37 54 55 57 56 50 55 51 54 68 84 95 85 88 91 97 100 100
15 16 15 25 27 42 30 17 16 20 13 15 12 10 8 7 6 6 6 7 7 9 9 12 13 15 16 18 20 25 49 62 63 70 66 58 70 70 74 79 93 90 90 100 99 95 98
14 14 13 22 22 28 17 34 13 13 15 14 9 9 8 7 6 6 6 6 6 8 9 10 11 13 20 20 21 23 28 64 71 80 83 77 70 65 86 82 85 88 94 96 96 90 95
10 24 15 14 16 23 14 13 11 12 12 16 9 8 7 7 6 6 6 6 7 7 8 9 13 15 17 19 22 23 27 37 78 80 83 81 79 84 77 86 86 86 86 83 84 85 83

GFSGBSN_250_rhum_066.txt.gz
RH
37 33 23 24 21 13 8 6 6 6 5 4 3 2 2 2 2 2 2 2 2 2 2 2 2 2 4 7 10 11 10 8 8 10 11 12 14 20 51 96 100 100 100 93 99 100 100
38 25 21 24 21 13 8 6 6 6 5 4 3 2 2 2 2 2 2 1 1 2 1 2 2 2 3 5 6 10 10 8 8 11 10 12 13 13 25 53 90 100 100 78 78 100 100
34 24 25 22 28 15 9 5 5 6 4 4 3 2 2 2 2 2 2 2 1 1 1 1 2 2 2 3 5 10 11 9 8 11 11 11 12 12 15 28 70 100 86 82 61 100 100
29 24 26 30 33 18 10 6 5 5 5 3 3 2 2 2 2 2 2 1 1 1 1 1 1 2 2 3 4 8 9 11 9 10 13 11 11 11 12 18 30 77 85 81 82 97 100
28 26 29 33 21 16 12 8 6 5 4 3 3 2 2 3 2 2 2 2 1 1 1 1 2 1 2 2 4 6 10 12 10 10 11 12 11 12 12 12 14 29 63 81 100 100 100
23 32 30 33 25 17 13 9 6 4 4 3 2 2 3 3 3 2 2 2 2 1 1 1 1 2 2 2 3 4 9 10 15 10 11 11 12 12 10 10 12 14 47 84 100 100 100
28 30 32 29 24 20 13 9 6 4 4 3 3 3 3 3 3 3 2 2 2 2 1 1 1 2 2 2 3 4 8 10 15 13 12 11 11 11 13 12 12 12 30 66 100 100 100
32 35 42 35 24 22 16 9 7 5 4 3 3 4 3 3 3 3 3 3 2 2 2 2 1 2 2 2 3 4 6 9 16 22 12 12 13 13 11 10 9 10 13 50 93 100 100
34 39 48 45 24 23 15 10 8 7 5 4 3 4 3 3 3 4 3 3 3 2 2 2 2 2 2 2 3 3 5 8 14 27 14 15 16 16 11 10 10 9 11 19 64 100 100
34 38 52 53 30 23 15 12 9 9 6 5 4 5 4 4 4 4 4 4 4 3 3 3 2 3 2 3 3 5 6 8 9 16 14 17 14 15 12 11 10 10 11 14 35 100 100
27 46 51 52 29 27 18 15 11 14 12 7 5 5 5 5 5 4 4 4 4 6 4 3 3 4 3 4 4 5 7 9 11 12 14 16 11 12 12 12 12 11 10 13 86 100 100
36 52 54 43 29 31 22 18 13 20 20 11 7 6 6 6 6 6 5 5 4 8 7 5 5 5 6 5 6 6 7 9 10 11 14 18 19 20 18 13 12 12 11 12 25 74 99
38 50 52 45 34 35 26 16 22 24 24 16 10 6 7 7 7 7 7 6 6 10 10 8 8 7 8 8 8 8 8 10 12 14 14 14 16 19 21 18 13 12 11 11 13 51 84
36 49 50 59 38 38 40 24 29 35 38 27 26 12 7 8 8 8 8 7 8 8 11 11 13 13 13 11 11 12 11 10 12 14 15 16 15 15 18 20 15 13 12 11 11 14 61
38 48 54 65 37 38 42 40 41 34 42 51 43 22 12 9 9 8 8 8 8 9 10 13 14 20 19 17 16 17 17 17 17 17 19 21 20 19 18 17 15 14 13 13 13 13 16
44 49 56 51 34 39 45 41 52 33 30 40 32 30 25 10 10 10 9 8 8 9 11 13 15 15 22 24 21 22 23 22 21 18 20 21 23 20 16 16 15 14 14 14 13 14 15
45 53 58 36 30 32 47 51 41 39 44 60 52 56 34 26 10 11 10 9 9 8 10 12 21 18 17 22 27 28 29 28 27 25 25 23 21 22 20 17 15 17 16 16 16 15 15
47 57 46 31 25 30 35 40 44 50 53 57 34 40 40 39 11 11 10 9 9 9 9 12 12 21 19 18 22 23 26 30 31 32 35 31 29 29 28 29 26 24 24 21 20 18 17
51 56 37 23 26 26 28 41 46 71 63 52 56 84 51 32 25 12 11 10 9 9 9 10 12 12 21 22 18 23 24 28 30 30 34 36 33 35 33 34 33 29 27 26 24 22 19
51 45 36 23 20 30 28 32 43 66 54 54 36 58 52 44 31 11 12 10 9 8 9 10 12 12 15 27 26 23 21 25 27 29 31 35 32 35 35 31 36 35 28 26 25 24 21
48 35 34 21 16 26 28 34 46 66 60 56 76 54 69 52 34 9 10 11 9 8 9 9 12 15 14 18 31 30 28 30 31 30 34 40 44 46 42 33 34 35 35 34 31 26 26
40 30 25 18 15 20 27 34 39 48 56 66 31 46 35 24 17 10 9 10 10 8 8 9 10 12 16 16 26 40 36 32 32 39 41 34 28 33 44 39 33 33 33 43 46 40 36
36 30 23 22 16 23 34 44 44 44 57 50 47 50 34 37 18 10 8 9 10 9 7 8 10 10 13 16 18 31 41 37 37 37 38 43 37 35 35 37 45 52 34 35 38 45 45
32 28 27 22 16 21 31 47 59 45 63 38 39 48 35 43 16 8 7 8 9 10 8 7 9 10 12 13 14 18 34 42 36 35 35 36 39 44 33 38 43 36 45 39 39 46 57
25 25 24 19 20 17 23 38 49 68 50 43 36 39 21 30 14 8 7 7 8 9 8 7 8 10 12 14 17 16 18 40 41 36 32 30 33 42 46 50 42 47 53 53 44 43 48
21 23 21 19 20 18 20 27 41 41 50 36 31 42 31 16 11 8 7 6 7 9 9 8 8 9 10 14 15 16 17 24 41 42 39 34 32 34 40 49 63 55 58 52 50 51 58
21 27 19 17 18 20 16 31 25 45 34 47 46 20 51 51 18 9 6 6 6 8 8 8 8 8 10 12 14 18 19 21 29 49 48 43 38 38 43 48 55 60 63 65 70 77 75
25 34 28 22 19 20 25 26 22 34 35 46 42 34 23 17 9 9 5 5 6 7 8 7 8 8 10 12 14 16 21 22 24 40 69 54 51 48 47 52 70 65 69 85 76 72 88
37 32 35 30 16 19 33 26 23 19 17 36 14 14 9 15 7 7 5 5 5 6 8 8 8 8 10 12 14 18 21 22 24 27 50 70 65 60 59 54 61 78 85 78 77 83 100

GFSGBSN_250_rhum_069.txt.gz
RH
54 46 40 30 26 34 24 13 9 5 4 3 3 3 2 2 2 2 2 1 1 1 2 2 2 2 4 6 6 8 9 8 8 12 10 10 11 13 16 18 33 97 100 98 96 100 100
55 48 43 34 39 37 26 15 9 5 4 3 3 3 2 2 2 2 2 1 1 1 1 1 2 2 3 5 5 8 9 8 8 12 12 11 12 13 16 18 25 48 80 98 86 100 100
48 51 41 36 40 43 27 16 10 6 4 3 3 3 2 2 2 2 2 1 1 1 1 1 2 2 2 4 6 7 10 10 9 11 13 12 11 14 16 17 26 37 52 75 98 100 100
46 53 39 36 54 49 30 18 12 8 5 3 2 3 2 2 2 2 2 2 2 1 1 1 2 2 2 3 6 8 8 10 10 11 12 13 11 14 15 17 21 25 23 28 92 99 100
47 52 46 39 54 47 41 24 14 10 6 4 3 3 2 2 2 2 2 2 2 1 1 1 1 2 2 3 5 6 9 10 10 11 12 13 13 14 16 18 17 17 16 26 97 88 100
54 49 47 36 48 56 54 27 18 14 8 5 3 3 3 2 2 2 2 2 2 2 1 1 1 2 2 2 3 6 11 11 12 12 12 13 12 13 14 17 55 48 34 29 99 100 85
63 52 41 43 48 59 56 35 24 17 11 6 4 3 3 2 2 2 2 2 2 2 2 2 1 2 2 2 3 4 8 13 13 12 12 12 13 16 18 20 48 86 33 22 73 100 82
60 55 41 42 51 63 47 39 26 20 13 9 6 5 4 3 2 3 3 3 3 3 2 2 2 2 2 2 3 5 7 10 14 14 12 11 13 16 15 16 17 58 85 49 52 87 82
58 63 47 42 52 68 40 35 27 24 18 12 8 5 4 4 3 3 3 4 4 3 4 2 2 2 2 2 3 4 8 8 13 13 17 11 15 16 15 14 15 17 68 57 25 61 92
54 66 50 42 51 61 38 34 30 28 23 17 13 8 6 5 4 4 4 4 5 4 7 4 3 3 3 3 3 4 5 8 13 18 18 13 15 15 17 15 14 15 15 24 20 33 90
61 71 58 44 51 50 35 35 28 28 32 30 21 16 14 6 6 5 5 4 5 5 7 7 4 3 4 4 4 5 6 8 12 16 19 18 15 16 17 15 14 13 11 11 16 16 21
63 69 61 47 52 58 34 39 29 28 30 31 38 31 19 17 9 6 6 5 5 6 6 9 9 4 4 5 5 5 6 6 8 10 15 16 16 23 20 17 16 12 11 11 13 14 14
66 79 64 48 58 56 38 30 34 31 37 44 47 46 41 26 11 7 7 7 7 6 7 7 11 9 5 6 9 7 6 10 13 12 12 9 14 20 17 19 16 13 12 12 12 11 13
76 90 68 48 57 62 41 26 33 38 51 42 65 57 59 32 25 10 8 8 8 8 7 7 9 13 10 7 9 12 10 8 9 8 8 11 15 20 26 21 17 14 14 14 13 12 13
75 85 67 57 63 58 47 24 29 36 50 46 46 63 86 61 49 17 9 7 8 8 9 8 9 14 17 12 10 12 13 13 13 11 11 13 14 17 22 23 20 16 18 16 16 13 13
72 84 66 57 54 59 50 28 24 32 49 52 40 61 98 95 61 32 11 8 8 8 8 9 10 10 18 17 12 12 14 18 20 18 16 16 16 17 19 18 18 17 13 17 18 18 15
76 77 73 62 44 58 54 32 24 30 49 49 51 81 83 99 92 53 18 9 8 8 8 9 8 12 13 23 18 15 15 18 24 25 26 25 24 23 23 21 21 19 17 15 18 17 15
72 72 71 51 39 52 53 30 26 29 43 53 61 61 72 87 89 59 18 10 8 8 8 8 9 8 13 18 25 20 17 17 21 26 29 32 34 33 34 34 29 25 24 21 17 17 15
69 66 52 38 44 56 45 28 29 30 44 52 53 59 54 64 85 75 27 14 8 7 9 8 8 9 9 13 22 28 23 19 20 22 24 28 30 34 34 33 34 29 27 22 19 16 14
72 57 45 40 44 48 47 27 35 36 47 50 61 62 59 51 55 68 53 18 8 6 7 8 8 9 8 9 14 25 34 27 22 23 24 26 27 31 34 35 37 34 33 30 25 20 18
68 47 43 39 43 44 34 25 36 48 45 50 56 78 74 62 58 53 60 35 12 6 6 8 8 8 9 8 10 13 25 36 36 26 25 25 25 26 30 35 41 39 35 36 32 25 22
50 41 38 38 39 40 29 20 39 50 50 62 65 90 77 71 44 64 59 39 21 8 5 6 8 8 9 10 9 12 14 21 30 39 35 30 28 25 27 24 29 42 42 37 29 30 27
39 31 34 41 37 36 26 20 30 43 45 49 81 86 85 93 50 42 32 24 16 8 5 5 7 8 8 10 11 12 14 17 25 35 37 35 32 32 31 27 30 34 40 35 37 33 27
34 28 39 39 34 35 28 20 26 37 41 52 74 74 74 72 53 53 28 20 12 7 5 4 6 7 8 9 11 11 14 17 22 40 39 38 37 38 34 34 33 30 31 37 43 42 47
29 27 34 41 33 33 27 18 26 28 28 41 47 77 69 68 48 38 27 23 13 8 5 4 5 7 7 8 10 12 14 15 20 34 44 39 36 37 38 42 40 32 30 32 32 33 45
30 32 39 45 40 35 23 17 30 28 26 32 35 54 61 49 41 26 16 24 11 8 6 5 5 6 7 7 9 11 11 15 17 21 38 45 41 36 34 35 44 34 45 41 37 37 37
37 44 46 47 45 37 26 19 23 19 27 36 28 38 52 60 34 20 26 19 8 6 5 5 5 6 7 8 8 11 12 13 16 19 26 40 54 48 36 35 35 37 50 48 53 48 42
54 52 49 51 43 39 25 24 30 21 18 26 28 42 52 71 51 36 25 17 6 6 5 4 6 6 6 7 8 10 11 14 15 18 21 26 42 57 47 37 36 44 53 59 54 50 54
65 54 53 51 42 33 28 30 28 24 23 27 35 47 56 81 64 43 27 16 7 5 5 4 5 6 6 7 8 9 11 13 15 19 22 28 31 48 62 49 42 41 51 69 74 71 69

GFSGBSN_250_rhum_072.txt.gz
RH
38 39 43 43 56 28 21 17 16 10 7 4 2 3 4 3 2 2 2 1 1 1 1 2 1 2 2 3 4 5 6 6 7 8 7 12 12 11 11 12 15 26 100 100 97 100 100
42 40 40 42 52 44 23 21 18 11 7 4 3 2 4 3 2 2 2 1 1 1 1 1 1 2 2 3 4 5 7 8 8 9 7 12 14 11 12 12 14 32 100 71 97 100 100
37 41 41 42 51 53 35 27 22 15 10 5 4 2 3 3 2 2 2 2 2 1 1 1 1 2 2 3 3 6 7 8 8 9 7 12 13 13 12 12 14 20 100 68 100 100 100
35 42 42 43 52 51 46 33 28 20 12 8 5 3 3 3 2 2 2 2 2 2 1 1 1 2 2 3 3 5 8 8 8 11 10 11 14 14 13 12 14 19 35 52 68 100 100
36 42 43 47 46 49 42 46 30 24 15 10 7 4 4 4 3 2 2 2 2 2 2 1 1 2 2 2 3 5 8 10 10 11 12 11 15 15 13 13 15 18 19 56 68 94 100
38 40 44 52 49 49 40 46 43 32 21 14 10 7 4 4 3 2 3 2 2 3 2 2 2 2 2 2 3 4 8 10 11 12 14 11 14 15 14 15 19 28 24 66 98 79 99
42 39 49 63 49 51 46 46 56 35 24 18 14 10 6 5 4 3 3 3 3 3 4 2 2 2 2 3 3 3 7 10 9 12 11 11 14 18 17 17 20 23 22 41 100 100 82
44 39 55 65 52 54 51 54 62 42 28 22 16 12 8 7 4 5 3 3 3 3 5 3 2 2 2 3 3 4 6 9 10 13 12 12 16 17 16 15 18 21 25 28 60 67 48
46 38 60 62 58 62 58 58 69 53 28 24 21 17 14 10 8 5 4 4 4 4 4 6 3 2 2 2 3 3 6 9 12 13 15 16 17 16 18 17 17 21 28 31 29 47 57
46 40 57 62 66 66 66 58 62 53 29 26 26 28 26 18 18 8 6 4 5 4 5 4 5 3 3 2 3 3 4 9 11 12 13 17 16 16 16 18 18 19 22 28 34 29 70
46 42 58 62 70 69 74 58 64 44 30 27 29 37 36 44 30 21 10 6 4 5 5 5 6 6 3 4 4 5 5 9 13 16 15 16 17 16 16 17 17 18 19 26 26 37 30
49 43 58 67 74 73 80 59 61 57 33 31 33 49 42 50 51 31 18 11 7 5 5 5 6 8 6 4 5 5 6 8 10 10 12 17 18 17 17 17 18 16 17 18 21 23 30
52 44 59 62 75 81 79 58 58 59 37 36 38 45 65 52 58 48 37 17 14 6 6 5 6 7 10 8 6 7 8 9 10 10 16 16 16 16 16 17 16 17 17 18 18 18 23
54 45 56 67 77 83 82 64 60 47 36 34 48 44 62 58 57 62 62 30 12 10 5 6 5 7 9 13 8 7 10 9 8 8 9 14 14 14 17 19 19 18 16 16 14 15 21
53 50 51 66 77 81 77 66 51 48 28 32 40 48 52 71 66 69 50 50 23 12 8 6 6 6 8 12 14 10 9 15 13 17 14 13 14 15 17 18 19 19 17 18 18 17 18
54 50 49 66 77 79 73 67 52 47 28 33 39 48 48 54 85 74 55 50 48 23 13 7 7 6 8 9 15 16 12 11 14 18 19 19 20 22 24 25 21 20 20 19 18 19 19
54 54 50 68 76 77 71 65 51 50 31 31 37 62 52 68 68 79 65 47 56 33 21 10 6 7 6 9 10 20 16 14 13 14 16 17 20 20 20 24 33 33 29 26 21 21 21
51 49 49 65 80 77 73 59 55 53 38 34 46 58 62 63 78 73 62 42 47 37 27 18 8 6 6 7 11 12 22 17 16 15 14 16 17 20 20 19 19 19 20 19 24 26 22
52 48 49 68 74 75 74 58 52 59 52 39 41 51 69 78 73 72 61 70 34 38 25 16 13 7 7 6 8 12 15 24 19 18 18 19 22 24 23 24 24 24 23 22 21 19 19
49 48 51 72 75 72 76 57 45 56 57 47 36 52 71 72 85 93 82 60 74 46 26 18 12 9 6 7 8 11 12 21 26 21 21 24 23 23 27 30 31 28 24 22 20 18 17
49 47 53 71 71 73 67 49 42 56 62 50 39 42 50 61 81 88 90 78 60 60 30 19 15 9 8 7 7 9 14 14 25 34 24 21 24 28 27 29 30 34 33 29 27 20 19
48 46 57 67 70 78 57 42 39 58 64 50 37 36 41 52 74 86 76 75 60 50 35 21 11 11 8 8 7 8 10 15 16 31 40 31 24 22 26 28 30 31 36 31 26 25 22
51 48 60 70 72 69 47 44 42 57 57 50 36 38 37 41 50 86 74 79 59 48 30 21 11 8 8 8 8 7 9 11 15 24 40 42 43 31 24 23 26 38 39 33 29 35 26
48 54 66 74 77 56 48 42 58 62 54 51 39 34 38 34 45 64 66 74 82 47 25 16 12 7 8 7 8 8 8 10 14 15 22 44 44 47 40 33 32 26 28 36 32 30 36
58 64 74 71 55 44 47 49 52 57 61 53 37 34 36 36 44 83 63 73 70 44 22 13 11 6 6 7 8 8 8 10 11 16 14 20 41 43 41 43 40 28 27 33 38 35 39
74 74 68 47 38 43 49 62 63 69 64 54 34 30 44 34 40 64 67 60 53 42 21 12 8 7 6 6 7 8 9 10 12 12 16 15 22 37 40 39 42 37 38 36 35 36 41
75 62 45 36 45 46 58 61 71 70 62 52 36 33 42 46 32 49 62 74 53 36 12 10 6 6 7 6 6 8 8 10 12 14 18 19 18 27 40 43 37 36 48 49 41 36 37
62 47 42 48 53 64 64 68 69 69 69 45 30 32 44 52 37 48 58 73 41 22 11 8 5 5 6 6 5 6 8 9 11 13 17 19 18 20 30 44 47 41 39 40 52 54 53
59 60 59 64 70 74 73 75 63 60 54 42 40 36 37 35 53 46 38 55 23 15 11 7 4 5 6 6 6 7 7 8 10 14 18 20 22 21 21 32 49 52 46 42 45 53 60

GFSGBSN_250_rhum_075.txt.gz
RH
76 58 44 41 33 32 34 32 24 15 15 12 8 5 3 3 3 2 2 2 2 2 1 1 1 1 2 2 3 4 6 5 6 7 7 8 9 12 14 16 17 14 13 16 18 24 60
81 60 43 41 34 37 33 31 29 16 16 20 10 5 4 3 3 3 2 2 2 2 1 1 1 1 2 2 2 4 6 6 7 8 7 8 9 10 14 17 15 15 12 15 20 20 49
80 60 46 41 33 40 36 32 37 21 20 23 15 7 5 3 3 4 3 3 2 2 2 1 1 1 2 2 2 3 6 7 7 7 7 9 9 11 14 16 16 14 12 16 20 19 40
85 69 49 46 41 36 40 40 44 25 29 28 21 10 8 4 4 3 4 2 3 2 2 2 1 1 2 2 3 3 6 10 8 8 9 10 10 10 14 17 16 13 14 17 19 21 61
91 78 70 66 50 40 40 44 47 35 42 29 21 14 8 6 4 4 4 3 3 2 2 2 2 2 2 2 3 3 5 8 9 9 10 12 12 12 16 19 20 13 15 18 21 62 82
96 86 81 74 54 43 36 46 49 38 49 38 26 19 15 8 5 4 4 4 3 4 3 3 2 2 2 2 3 3 4 6 10 10 9 11 12 12 16 18 21 16 19 20 23 96 100
100 93 87 76 58 47 40 50 56 51 52 45 28 20 17 13 7 5 4 4 4 4 3 4 2 2 2 3 3 3 4 4 9 11 11 11 13 14 21 24 21 17 20 22 26 55 84
100 96 92 74 59 50 45 47 56 66 59 48 32 21 20 15 10 8 5 4 5 4 4 4 4 2 2 2 3 3 4 5 10 14 11 12 15 14 18 21 19 16 20 21 24 38 59
100 96 96 79 68 51 41 48 64 76 64 52 35 28 21 19 15 13 8 6 4 5 4 5 4 4 3 2 3 3 4 6 10 14 12 13 15 14 19 20 17 16 19 23 25 29 73
100 100 97 87 71 58 48 50 71 80 73 57 44 33 25 23 28 16 14 9 5 6 6 4 4 4 4 3 3 4 4 6 10 13 12 12 15 17 18 20 17 17 17 21 27 24 48
97 100 100 96 72 59 51 51 67 86 79 61 54 45 30 24 32 30 24 17 10 6 11 6 5 5 5 4 3 4 5 6 8 12 12 12 17 19 19 21 20 19 18 18 23 27 25
98 100 100 93 84 60 51 52 74 91 88 65 53 52 40 32 29 44 34 31 17 11 8 11 6 6 5 6 5 5 5 6 8 11 11 12 16 19 22 21 22 19 18 18 20 30 26
93 100 100 100 87 74 55 52 74 94 93 69 54 57 45 37 42 33 41 48 39 18 13 10 10 7 6 5 7 6 6 6 9 13 13 13 14 17 18 20 21 20 19 19 20 22 34
87 100 100 100 85 76 55 54 76 99 92 69 52 58 42 42 50 43 40 45 47 29 18 14 13 9 8 7 7 9 6 6 8 12 12 21 20 18 18 21 21 22 21 23 23 24 43
83 100 100 100 86 87 57 57 81 97 91 68 50 58 52 41 53 64 47 58 39 52 28 18 20 14 9 8 8 10 11 7 8 11 16 19 22 18 17 19 21 22 22 23 25 24 23
88 98 100 100 89 98 61 58 87 97 88 69 47 57 59 43 64 58 60 63 64 51 50 25 18 20 16 9 10 8 13 12 9 8 12 19 18 20 22 22 20 20 22 21 22 28 27
86 92 99 100 96 97 72 62 92 96 91 69 49 57 61 51 57 63 53 57 70 65 50 37 24 17 21 12 9 11 9 14 14 11 9 10 17 25 32 40 43 34 30 29 30 27 27
90 86 94 96 100 100 74 71 94 98 93 67 48 57 63 62 54 63 55 50 71 73 59 44 23 20 21 18 9 9 11 14 16 15 14 11 10 14 17 26 36 39 41 25 28 38 37
100 97 84 92 96 96 75 70 92 97 90 62 45 60 71 66 58 64 48 61 88 74 64 55 32 23 20 23 10 9 11 13 17 20 17 15 12 12 12 13 15 18 20 24 22 24 23
94 100 88 88 89 93 73 74 99 97 85 52 45 67 72 66 62 54 43 58 69 59 56 45 31 21 17 22 15 9 9 11 14 22 23 19 18 16 15 14 13 16 18 17 17 19 29
95 96 88 93 85 88 77 76 96 93 76 47 44 66 70 68 64 45 47 50 65 63 54 51 29 20 17 19 18 9 8 9 11 16 26 26 22 19 18 17 18 16 17 18 20 21 17
91 92 94 96 92 76 73 88 95 86 60 45 50 62 72 68 57 49 42 57 60 56 49 46 30 19 17 16 16 11 8 8 10 12 17 29 31 24 21 23 21 21 24 24 25 22 24
97 88 97 100 89 70 70 96 90 73 55 43 58 59 76 66 56 47 40 51 72 60 39 39 27 15 14 13 12 10 9 8 9 12 13 16 29 37 28 24 23 29 24 24 24 31 28
100 92 96 98 83 59 84 94 78 65 50 53 63 67 75 67 50 37 36 53 64 63 58 29 24 14 11 12 8 9 9 8 9 11 14 13 20 39 38 36 33 30 26 30 28 30 39
100 89 90 98 68 65 98 86 73 55 55 55 66 82 84 68 54 38 41 45 56 64 55 34 22 11 8 9 7 8 7 9 8 11 14 14 15 26 41 40 58 39 34 30 31 28 35
98 82 91 80 58 100 88 75 62 56 58 55 67 89 84 73 53 44 43 52 44 56 51 31 20 9 6 6 6 8 7 8 8 9 10 13 18 19 33 44 48 38 42 46 41 32 34
91 94 80 64 90 95 76 63 61 57 54 59 69 94 90 67 60 45 41 48 54 57 44 24 11 8 5 5 5 7 7 8 8 8 9 11 14 18 18 31 39 41 44 46 49 43 34
97 69 87 95 90 76 64 59 56 56 54 59 68 84 83 71 68 51 37 46 52 47 41 22 12 6 4 4 4 5 6 7 8 8 9 13 15 17 20 22 31 45 45 39 39 46 49
75 98 98 83 66 66 62 59 55 58 62 67 76 71 75 81 71 45 36 43 53 48 45 21 10 5 4 4 4 5 6 8 9 8 9 11 11 18 22 20 25 39 44 43 40 39 37

GFSGBSN_250_rhum_078.txt.gz
RH
97 97 100 96 99 86 69 61 42 27 28 30 21 14 12 9 5 4 3 3 2 2 2 2 1 1 1 1 2 3 4 5 5 5 5 7 8 11 15 16 18 14 9 10 14 17 18
86 94 100 98 97 86 78 63 52 32 34 34 25 18 15 10 5 4 3 3 2 2 2 2 2 1 1 1 2 2 4 6 6 5 6 7 8 9 14 16 18 17 12 11 14 16 18
70 95 100 100 89 85 78 68 60 38 33 40 36 28 20 13 8 3 4 3 3 2 2 2 2 2 1 1 2 2 3 6 6 5 6 7 8 10 12 17 17 18 15 12 12 15 18
78 84 99 100 99 84 82 81 56 46 34 45 42 34 25 21 13 5 4 3 3 3 2 2 2 2 1 2 2 2 3 5 6 6 7 7 9 10 11 15 17 18 17 14 14 14 16
87 92 85 100 99 99 88 87 73 50 46 40 41 43 39 32 16 8 4 4 3 3 3 2 3 2 2 2 2 3 3 4 8 9 7 8 9 11 11 12 16 19 20 19 18 16 16
91 99 77 100 100 100 89 91 84 61 52 39 49 54 50 43 26 13 6 4 4 4 3 3 3 3 2 2 2 3 3 4 8 10 8 8 9 10 13 13 15 20 24 24 21 19 17
92 100 83 95 100 100 99 98 96 70 51 44 58 54 56 42 38 23 10 4 4 5 4 4 4 3 2 2 2 3 4 4 7 9 10 9 10 14 17 16 17 20 26 25 23 22 19
100 100 88 99 98 100 98 100 99 86 54 46 69 58 61 41 39 34 19 8 5 5 6 5 4 4 3 2 2 3 4 5 7 11 10 10 12 14 14 15 18 18 23 23 22 21 20
100 99 90 97 96 100 100 94 100 86 58 51 76 73 69 43 38 38 29 15 7 6 6 6 5 4 4 3 3 3 4 5 6 8 11 14 14 15 15 16 17 19 20 20 20 19 20
98 100 90 98 92 98 100 89 100 95 65 52 82 79 73 50 41 44 36 27 14 9 6 6 5 4 4 5 3 3 4 5 6 10 14 16 14 14 16 17 16 18 21 20 22 20 19
100 99 92 89 95 96 99 96 90 93 80 59 87 88 76 54 48 44 37 39 26 14 12 8 8 5 5 5 6 4 4 6 7 9 12 14 16 16 17 18 18 19 21 21 22 21 19
100 100 94 85 98 100 93 98 86 96 88 63 84 93 81 54 46 50 46 45 34 20 17 13 11 11 7 6 6 5 5 6 7 10 14 18 18 18 18 17 20 21 24 22 23 22 20
100 100 93 89 94 99 100 100 91 95 92 68 84 96 86 56 46 51 50 45 41 37 24 14 15 12 11 9 6 7 6 6 8 10 14 17 22 23 22 20 23 23 24 23 21 21 21
100 100 94 95 92 94 100 100 93 96 92 83 85 94 85 62 44 51 50 51 41 46 49 30 18 16 15 14 10 6 10 6 7 10 17 22 22 23 25 25 24 23 23 22 24 23 25
100 100 93 93 85 93 97 100 94 96 100 91 87 95 85 58 44 57 52 55 55 63 57 42 24 21 17 15 16 9 7 12 8 7 10 21 27 22 23 24 24 27 25 24 23 24 26
100 100 97 91 91 92 88 93 95 92 100 87 94 96 88 58 44 53 56 51 55 65 74 53 38 27 21 16 18 16 8 8 13 9 9 16 22 26 26 24 22 26 26 25 26 33 31
100 100 96 95 88 93 90 88 96 95 100 90 100 95 84 53 46 53 62 64 46 55 72 67 46 32 22 20 15 22 12 8 8 13 10 9 13 19 23 29 27 24 26 26 28 30 37
100 100 100 92 88 92 80 87 96 95 100 88 98 96 80 54 47 52 62 70 59 55 74 72 48 35 23 20 15 14 20 10 8 9 13 13 11 12 17 23 28 34 36 32 30 32 31
100 100 100 100 90 93 78 81 98 95 100 88 100 97 77 56 48 51 65 73 55 60 59 70 58 45 26 21 20 15 16 14 9 8 10 13 15 12 11 13 19 24 35 41 42 39 37
100 100 100 100 100 94 78 80 93 95 95 88 100 90 79 58 46 51 69 71 59 53 55 76 66 49 30 22 18 15 14 14 10 9 9 11 13 14 14 13 12 15 18 22 26 30 39
100 100 100 98 100 90 92 80 86 99 94 85 100 93 68 60 44 50 61 68 66 61 73 60 57 42 40 25 20 15 12 12 10 10 9 11 14 16 16 17 16 15 15 14 15 20 20
100 100 100 100 100 100 95 76 87 100 92 82 98 90 63 59 42 43 53 68 65 60 75 63 70 41 35 24 15 13 9 9 11 10 10 10 12 18 17 19 18 18 18 16 16 17 19
100 100 100 100 100 100 100 72 100 100 80 89 92 79 59 59 38 40 55 58 62 73 70 66 71 57 32 22 15 10 7 6 10 9 10 11 11 14 20 23 21 22 20 20 19 18 17
100 100 100 100 100 100 100 92 100 100 74 96 88 72 68 59 43 42 52 60 64 77 56 68 72 59 36 18 12 7 6 5 8 8 9 9 10 15 22 25 36 29 21 23 26 25 25
100 100 100 100 100 100 100 100 100 83 77 97 75 66 62 56 46 36 51 64 68 77 61 64 61 59 36 13 8 6 5 5 6 6 8 9 9 14 16 22 44 36 30 29 29 24 26
100 100 100 100 100 100 100 99 83 72 89 90 71 66 55 48 49 36 53 57 61 64 61 61 59 47 25 13 7 5 4 4 5 6 6 8 8 12 16 15 37 30 31 40 45 38 35
99 100 100 100 100 100 100 97 69 74 96 84 70 59 51 57 51 38 53 73 63 59 53 61 63 49 21 14 7 4 4 4 5 5 6 8 9 12 14 19 18 16 30 42 46 55 54
100 100 100 100 100 100 99 81 77 84 82 68 66 56 55 79 74 47 65 73 64 62 55 64 61 41 14 12 8 4 4 4 5 5 6 8 10 10 12 19 14 22 32 39 48 50 48
100 100 100 100 99 97 92 86 84 79 65 61 57 50 59 91 89 54 64 80 69 72 57 60 62 38 17 11 8 4 4 4 6 5 6 8 9 10 15 16 15 19 20 28 39 47 46

GFSGBSN_250_rhum_081.txt.gz
RH
50 74 66 67 92 74 82 71 76 68 62 62 46 24 20 23 27 20 10 4 4 3 2 2 2 1 1 1 1 2 2 4 5 5 6 7 7 8 8 12 14 12 13 13 14 17 16
48 64 81 72 89 76 82 76 76 72 60 71 57 26 21 23 28 22 13 4 4 3 2 2 2 1 1 1 1 1 2 4 6 5 6 8 8 8 8 10 14 14 14 15 14 15 15
54 72 83 77 85 71 77 78 78 84 61 71 59 28 21 18 34 30 19 5 4 3 3 2 2 2 1 2 2 2 2 4 7 6 6 8 8 8 8 9 14 16 15 17 14 15 16
58 72 86 84 84 82 76 81 68 82 69 74 71 30 26 19 38 33 26 10 4 4 4 2 2 2 2 2 2 2 3 3 6 6 6 8 8 9 9 9 13 17 16 18 15 14 16
60 74 86 88 87 77 72 83 68 80 81 73 79 48 29 21 41 40 31 15 4 4 4 3 3 2 2 2 2 2 3 3 4 6 8 8 8 9 10 10 11 17 19 20 19 14 14
53 74 93 97 89 77 83 87 72 80 82 74 74 62 36 28 40 41 39 21 5 5 4 5 4 3 2 2 2 2 3 3 4 7 7 7 8 9 10 10 11 17 20 22 23 18 15
49 76 94 100 92 78 85 89 77 90 83 79 77 65 46 36 45 46 42 30 9 6 4 6 5 3 3 2 2 2 3 3 5 10 10 8 10 10 11 12 14 16 22 25 29 22 17
58 69 96 100 97 78 90 85 83 88 92 87 79 68 46 41 45 54 44 40 21 6 6 7 6 5 3 3 2 2 3 4 6 10 12 10 10 12 12 13 14 15 22 26 24 22 19
72 70 94 100 100 86 98 91 81 90 94 90 85 73 66 48 53 57 43 45 29 10 11 7 6 7 4 4 3 3 3 4 6 8 11 13 11 10 12 13 13 15 18 21 22 24 21
66 70 81 100 100 99 100 94 87 95 92 100 89 79 69 57 57 70 48 45 38 15 18 9 8 9 9 4 5 3 4 4 6 9 11 14 13 12 12 13 14 15 16 17 20 23 23
60 85 86 100 100 100 100 92 90 91 94 97 90 84 77 58 70 76 50 46 40 25 19 14 10 10 10 11 5 6 4 4 5 7 12 14 16 16 16 16 14 14 15 16 18 24 25
70 90 96 100 100 100 100 94 91 91 88 99 96 93 82 62 73 79 53 47 48 39 26 26 15 15 12 10 13 6 7 5 5 8 12 16 17 17 15 16 16 15 15 17 20 23 26
100 99 100 100 100 100 99 92 94 95 84 97 92 97 89 69 74 75 59 44 49 56 29 20 19 18 14 14 11 15 7 7 6 7 11 16 22 22 21 18 18 18 17 18 19 23 29
100 100 100 100 100 100 92 89 95 97 82 96 94 98 92 79 76 74 60 47 46 49 48 24 27 22 23 19 16 14 15 9 8 6 8 14 17 23 27 24 23 20 21 22 22 23 28
100 100 100 100 100 100 99 84 86 91 92 90 94 100 90 80 75 77 60 48 44 52 60 50 24 26 19 23 22 19 14 14 11 9 8 10 16 19 20 22 24 24 24 23 23 24 28
100 100 100 100 100 100 100 90 82 84 91 99 89 100 95 85 84 77 60 46 47 53 62 81 49 38 26 21 23 22 21 15 12 11 11 9 13 17 21 23 24 22 21 21 23 26 25
100 100 100 100 100 100 100 99 77 78 94 100 99 97 92 93 88 81 67 50 44 52 65 73 63 56 44 30 26 25 22 21 12 9 9 12 10 14 17 22 24 26 26 27 28 28 27
100 100 100 100 100 100 100 100 75 76 88 98 100 98 97 93 86 83 71 52 40 56 59 76 72 68 47 41 39 20 24 20 14 11 7 10 14 12 16 18 20 21 22 23 26 29 29
100 100 100 100 100 100 100 100 94 68 82 99 100 98 98 88 87 86 69 50 43 55 54 78 83 74 60 39 34 25 21 20 13 8 10 7 13 14 12 15 20 22 21 21 25 29 33
100 100 100 100 100 100 100 100 100 67 77 100 100 100 96 82 76 86 70 47 45 50 57 77 77 82 57 38 31 23 21 20 12 8 9 7 8 12 14 13 13 18 18 18 19 28 44
100 100 100 100 100 100 100 100 100 71 74 100 100 99 98 76 79 82 64 51 42 46 57 75 95 68 55 47 32 22 20 19 12 6 7 9 7 8 14 16 14 14 13 15 20 26 23
100 100 100 100 100 100 100 100 100 98 79 100 100 100 90 64 69 72 57 47 41 54 56 69 99 79 74 47 28 21 21 18 10 5 6 9 6 7 8 16 18 18 15 13 13 15 22
100 100 100 100 100 100 100 100 100 86 85 98 100 100 89 59 73 70 55 43 45 51 56 66 85 84 78 40 24 16 11 13 6 5 5 7 7 6 7 8 15 22 18 17 16 14 14
88 100 100 100 100 99 100 100 100 92 84 97 100 100 85 67 77 70 59 43 44 49 53 67 76 72 68 37 18 13 11 9 5 4 4 6 6 6 7 9 13 16 17 21 20 19 19
87 98 100 100 98 99 100 100 100 99 83 98 100 97 79 69 78 64 55 52 42 48 56 64 76 84 61 47 15 10 8 6 4 4 4 6 6 7 7 9 15 12 12 23 25 19 22
97 100 98 97 100 100 100 100 100 100 98 100 98 98 89 87 72 67 58 50 47 57 59 54 65 76 67 56 18 12 8 6 4 4 4 5 6 6 8 8 12 11 11 17 32 32 31
100 100 100 100 100 100 100 100 100 100 96 98 97 97 98 90 69 58 56 54 48 55 52 55 64 75 66 60 20 14 12 5 5 4 4 5 6 7 8 9 12 9 10 19 29 38 38
98 100 96 89 100 100 100 100 100 100 98 97 90 91 97 84 65 47 58 52 54 59 54 51 62 75 66 59 19 12 12 6 5 4 4 5 6 7 9 9 9 7 18 18 27 31 37
98 98 95 96 99 100 100 100 99 100 98 89 86 95 92 81 56 48 58 57 52 56 51 58 62 66 72 51 34 11 14 7 4 5 5 6 6 7 10 11 10 11 15 17 20 24 30

GFSGBSN_250_rhum_084.txt.gz
RH
92 83 69 62 71 91 75 81 69 68 69 75 71 57 47 33 31 26 27 14 7 7 4 2 2 2 2 1 1 1 1 2 5 5 6 6 8 9 11 13 14 13 12 14 13 16 16
100 96 74 64 78 86 83 79 74 75 70 72 79 62 58 41 36 23 35 19 9 8 5 2 2 2 2 1 1 1 1 2 5 6 6 7 8 9 10 12 14 13 13 14 13 15 16
97 100 94 70 70 86 88 82 72 77 72 71 81 66 60 52 43 25 35 26 11 9 6 3 3 2 2 1 1 1 1 2 4 6 6 7 8 10 10 12 15 13 13 16 15 14 16
100 100 100 87 71 87 90 90 73 79 73 75 80 75 68 60 49 33 33 44 17 11 8 4 3 2 2 2 2 2 2 2 3 6 6 7 8 9 10 11 13 13 12 13 15 15 18
84 100 100 93 79 79 98 97 75 74 79 75 76 75 74 60 50 34 37 47 27 12 10 6 4 3 2 2 2 2 2 2 2 6 6 7 8 9 10 10 11 11 12 14 16 15 17
67 85 100 100 91 83 97 100 76 73 79 73 86 70 82 63 58 46 35 48 39 16 11 9 5 3 3 2 2 2 2 2 3 4 6 7 8 10 10 11 11 11 11 15 20 17 17
62 79 98 100 100 89 98 100 82 76 86 73 87 69 80 72 61 45 40 54 43 30 10 10 6 4 3 3 3 2 3 3 3 5 7 7 8 10 10 10 11 11 11 15 23 20 17
73 72 97 100 100 86 99 100 90 78 94 74 85 71 81 78 72 50 40 62 50 35 17 10 8 5 5 4 4 3 3 3 4 5 8 8 9 9 9 10 11 11 12 14 21 20 16
68 83 88 100 100 85 99 98 95 85 94 79 84 74 80 80 65 54 45 69 58 42 27 15 9 11 7 6 5 4 4 4 4 6 8 10 10 10 11 11 12 13 14 14 14 19 19
71 91 84 100 100 95 100 99 100 86 88 82 85 76 83 78 62 56 49 70 65 48 33 17 10 10 13 10 9 7 6 5 7 7 10 11 10 10 10 12 13 13 14 14 14 18 21
69 78 89 100 100 100 100 100 100 91 84 89 78 75 83 84 70 62 54 69 68 48 38 20 12 9 10 16 20 18 10 8 6 9 11 12 12 11 10 10 12 13 14 16 15 15 21
59 73 100 100 100 100 100 100 100 92 85 92 82 76 90 88 78 66 46 61 73 50 44 37 16 12 12 12 19 31 33 12 9 6 9 12 13 13 11 11 11 12 13 13 14 14 18
47 77 100 100 100 100 100 100 100 90 87 93 84 81 92 87 83 70 56 62 78 52 51 49 26 13 16 15 16 18 27 34 14 10 8 7 11 13 15 14 12 13 14 14 14 15 18
39 83 100 100 100 100 100 100 100 91 88 96 86 88 86 87 85 75 62 64 73 55 53 52 48 18 20 19 18 16 20 26 38 15 11 8 9 11 16 18 16 13 13 15 16 17 21
56 94 100 100 100 100 100 100 100 92 91 90 90 92 84 92 90 73 75 67 75 59 48 59 56 29 20 25 20 21 21 24 28 28 13 11 8 11 12 15 18 17 17 18 18 19 23
54 100 100 100 100 100 100 100 100 93 91 94 96 92 88 95 86 82 73 67 73 58 49 55 59 45 35 28 23 30 27 21 24 31 22 12 11 10 13 16 18 21 20 19 20 21 24
52 98 100 100 100 100 100 100 100 100 91 95 96 90 82 94 84 85 81 68 71 59 49 54 64 86 43 50 36 34 32 25 22 23 29 16 11 11 12 16 18 17 18 21 22 24 24
45 82 100 100 100 100 100 100 100 100 99 100 96 95 86 91 89 81 76 77 75 61 48 50 65 74 60 40 50 34 30 27 21 18 20 13 14 12 11 12 15 18 19 20 22 27 27
48 82 100 100 100 100 100 100 100 100 100 98 81 89 93 92 97 81 78 81 77 55 50 49 54 66 73 44 45 39 31 24 16 14 14 10 12 12 11 12 15 20 20 20 20 24 29
36 76 100 100 100 100 100 100 100 100 100 89 75 83 93 93 93 86 83 82 80 55 48 48 53 62 74 60 39 47 30 20 14 11 11 7 8 12 11 12 13 14 16 17 19 23 28
39 88 90 100 100 100 100 100 100 100 100 85 81 78 98 100 93 83 92 92 73 50 46 43 46 57 63 74 51 42 26 19 11 8 8 6 6 10 10 12 13 14 12 14 22 27 24
43 55 100 100 100 100 100 100 100 100 100 84 74 92 96 100 94 91 92 95 70 52 43 43 42 51 58 61 55 38 22 19 10 5 5 4 5 6 10 9 12 16 14 15 19 24 26
56 47 85 100 100 100 100 100 100 100 100 86 80 99 99 100 84 97 99 86 64 52 45 43 44 50 58 62 77 31 18 15 12 6 4 4 4 5 9 9 10 18 19 15 13 15 20
61 51 65 100 100 100 100 100 100 100 100 96 82 89 90 94 95 100 98 79 66 55 44 41 42 46 57 66 66 46 12 13 12 6 4 4 5 5 7 8 10 12 11 17 18 16 17
66 49 68 100 100 98 100 100 100 100 100 100 93 98 89 82 98 100 94 86 60 55 46 35 43 46 49 69 65 47 12 9 10 6 4 4 4 5 6 7 8 8 8 16 21 18 20
62 51 74 94 100 100 100 100 100 100 100 100 96 93 84 88 98 99 89 75 62 58 46 39 41 45 52 64 67 63 10 10 10 8 4 4 4 6 7 7 8 7 8 11 15 22 24
55 53 71 100 100 100 100 100 100 100 100 100 97 90 83 81 100 99 83 67 58 58 46 39 40 44 49 60 68 74 20 11 13 10 5 4 4 5 7 7 8 7 7 9 13 17 26
51 48 68 92 99 100 100 100 100 100 100 100 100 96 78 90 100 89 77 60 62 55 51 43 40 39 45 55 64 78 49 12 10 15 6 5 4 4 7 8 8 6 8 11 14 16 17
52 46 48 73 93 100 100 99 100 100 100 100 100 86 85 88 88 78 66 60 60 59 57 42 44 41 47 53 55 56 53 13 14 13 7 5 5 4 6 10 8 8 9 14 13 15 15

GFSGBSN_250_rhum_090.txt.gz
RH
48 44 43 44 46 67 98 100 100 100 89 99 98 100 88 84 85 73 62 54 47 27 11 9 4 3 4 2 2 1 1 2 2 2 2 4 3 5 9 12 18 17 24 24 19 18 19
50 48 49 41 58 73 80 100 100 100 96 99 100 100 89 90 90 73 67 52 47 35 15 13 7 4 5 3 2 1 1 2 2 2 2 3 4 4 7 10 14 20 24 26 21 18 20
62 56 53 46 58 95 91 100 100 100 100 99 94 100 97 92 93 74 72 54 50 48 20 15 12 7 4 4 2 1 1 2 2 2 3 4 6 6 8 9 11 20 24 27 24 19 19
68 65 51 53 59 95 100 98 100 100 96 100 100 100 100 93 96 75 72 54 50 54 28 16 17 12 5 4 2 2 2 2 2 2 2 6 8 8 12 17 17 16 19 26 27 21 18
80 71 60 71 86 84 99 91 98 97 93 100 100 100 100 94 96 79 74 56 50 54 48 18 21 18 8 5 4 2 2 2 2 2 3 5 8 8 10 16 27 20 18 18 23 22 18
86 75 73 68 98 100 99 97 97 82 73 99 100 100 100 94 97 85 76 57 49 47 65 28 22 18 13 8 6 3 3 2 3 3 3 4 8 8 9 14 12 16 17 19 23 18 15
88 83 80 82 100 84 100 100 100 88 68 81 100 100 100 92 99 87 76 58 46 55 59 49 24 19 18 13 9 6 3 3 3 5 5 4 7 10 8 11 14 11 13 15 16 17 16
99 95 79 84 98 97 100 100 100 72 70 76 100 100 100 100 95 87 74 62 47 53 69 58 33 21 17 15 15 13 8 4 5 6 10 8 10 10 8 8 11 12 16 16 16 19 18
97 96 95 84 92 100 100 91 77 69 68 75 100 100 100 100 98 90 70 64 51 56 70 61 50 27 24 17 15 17 21 16 8 7 8 13 14 13 11 10 11 12 14 12 13 14 13
100 100 100 92 100 100 100 100 76 69 64 74 100 100 100 100 98 90 69 65 53 55 61 58 56 44 30 22 17 16 18 27 30 14 11 11 14 13 12 11 10 11 12 13 16 15 19
98 100 100 100 93 100 100 88 71 66 61 73 100 100 100 100 100 92 74 67 53 54 58 57 57 50 39 26 21 18 16 20 29 30 15 12 14 14 13 11 11 11 11 13 15 16 13
89 95 100 98 59 82 80 77 67 57 66 96 100 100 100 100 100 94 75 69 61 60 56 57 57 54 43 31 27 24 18 17 20 23 26 18 12 14 14 14 13 12 13 14 17 16 14
67 100 91 100 51 99 79 73 63 49 74 100 100 100 100 100 100 95 75 68 63 66 58 52 54 47 48 37 31 29 21 26 21 22 22 23 17 10 14 14 12 12 12 12 13 13 16
59 100 99 84 71 82 68 70 53 41 64 100 100 100 100 100 100 93 76 69 66 67 62 63 57 51 47 47 38 39 35 30 24 20 20 19 19 16 8 14 14 13 11 11 12 12 15
75 100 100 88 68 80 73 69 48 46 72 100 100 100 100 100 100 86 73 73 72 71 68 68 69 52 45 44 35 36 41 37 32 20 17 20 15 18 13 8 14 13 13 11 11 12 12
56 100 100 92 79 68 78 63 41 38 78 100 100 100 100 100 100 89 72 80 76 75 75 66 70 56 47 42 40 34 33 40 34 21 17 18 18 10 18 12 9 12 14 12 11 12 13
59 94 100 69 75 63 72 52 46 60 97 100 100 100 100 100 99 87 71 84 78 76 78 69 69 62 45 40 44 34 30 36 34 23 16 15 15 9 12 19 10 9 12 16 15 12 12
74 100 97 81 81 60 63 53 59 72 100 100 100 100 100 100 100 89 79 82 82 85 77 71 67 58 43 38 44 41 38 36 34 28 17 15 13 11 6 14 11 8 8 11 14 16 13
95 100 93 85 83 60 61 63 68 82 100 100 100 100 100 100 100 90 78 89 88 85 82 71 68 57 46 39 41 43 40 40 33 32 16 13 12 8 5 8 13 11 10 11 13 16 20
68 100 84 95 73 60 67 64 68 86 100 100 100 100 100 100 100 90 83 94 91 80 82 68 61 56 44 39 43 45 47 40 34 27 20 13 10 10 5 5 8 11 10 9 9 12 21
76 99 76 80 53 69 66 63 69 90 100 100 100 100 100 100 100 91 91 96 91 81 79 75 60 57 45 36 43 46 50 45 34 22 18 12 11 8 5 5 5 6 8 9 9 13 16
75 88 80 62 49 67 61 72 62 97 100 100 100 100 100 100 100 94 94 87 86 74 79 77 71 58 43 38 38 44 51 49 43 22 16 10 10 8 5 5 5 5 6 8 11 10 15
93 76 80 50 56 64 68 65 77 100 100 100 100 100 100 99 100 95 88 88 84 77 75 81 69 56 48 37 38 44 45 45 40 22 14 9 8 8 6 5 5 5 6 8 12 11 13
84 75 73 48 65 59 70 74 96 100 100 100 100 100 99 99 100 99 82 87 84 75 80 86 76 59 44 34 36 38 40 45 49 21 11 9 7 8 5 5 5 6 7 8 10 14 13
84 81 70 67 63 70 75 76 100 100 100 100 100 100 100 96 100 93 83 76 84 79 85 71 66 53 39 36 34 33 36 46 50 25 10 8 7 7 7 5 5 5 6 6 8 13 14
80 78 54 59 70 82 75 83 97 100 100 100 100 100 96 94 96 92 82 76 80 94 84 72 67 54 46 35 34 34 36 42 46 27 10 8 7 8 6 6 6 6 5 6 8 10 12
94 81 70 76 75 77 74 84 87 100 100 100 100 100 100 100 91 81 82 78 84 95 77 73 62 57 44 35 36 32 33 39 49 45 14 7 8 8 8 6 6 6 5 6 8 12 11
87 63 69 81 80 74 89 88 88 89 100 100 100 100 100 100 85 91 82 87 90 78 67 66 53 51 41 37 38 32 35 37 50 60 33 9 7 6 8 6 6 6 6 7 11 13 12
86 70 78 73 73 86 94 92 87 95 100 100 100 100 100 100 94 88 84 82 79 73 62 59 59 48 46 46 46 38 35 38 46 55 48 16 7 5 6 7 5 6 6 7 10 13 14

GFSGBSN_250_rhum_093.txt.gz
RH
50 48 56 57 64 65 60 55 48 56 75 100 100 89 98 96 100 100 90 74 60 56 52 24 11 10 4 4 3 2 1 1 1 2 2 3 4 5 6 7 10 18 20 21 25 27 27
64 61 58 57 71 73 67 58 50 62 73 95 99 84 100 93 88 100 92 71 59 54 50 33 14 12 6 5 4 2 2 1 2 2 2 2 4 4 5 6 10 17 22 24 24 29 28
74 77 75 69 69 77 76 63 55 73 75 90 100 88 100 90 86 100 95 76 59 59 51 40 18 13 7 6 5 2 2 1 2 2 2 3 4 6 6 8 10 16 26 27 26 25 30
98 95 89 73 78 89 76 72 62 75 91 100 100 100 100 79 92 100 99 83 61 60 51 48 19 13 12 6 5 4 2 2 2 2 2 3 3 5 7 8 8 9 20 19 30 27 25
81 98 100 96 93 90 82 82 74 77 100 100 100 100 100 77 87 100 100 87 66 59 52 53 26 18 16 13 8 7 3 2 2 2 3 3 4 8 8 8 11 9 14 18 26 28 25
51 68 78 100 92 91 88 92 75 83 100 100 100 97 97 75 82 100 100 93 66 58 54 54 43 22 18 17 12 8 7 3 2 2 3 3 6 13 11 10 9 14 15 15 24 28 28
26 45 56 66 69 99 96 98 83 84 100 100 100 100 94 73 79 96 100 91 70 59 56 59 60 27 21 23 18 10 9 8 3 3 4 6 6 14 13 12 13 12 12 13 19 26 26
16 18 28 34 76 99 90 98 90 88 97 98 100 100 86 69 75 100 100 89 66 62 55 57 60 42 23 22 23 18 12 12 9 5 4 5 12 11 11 12 12 11 11 11 11 23 19
14 15 22 29 77 100 99 100 96 95 99 100 100 100 81 66 72 100 100 89 66 65 56 57 61 51 30 23 24 18 16 17 18 16 9 5 8 21 15 12 14 13 9 12 18 15 17
13 13 13 19 52 100 100 100 100 100 95 100 100 96 73 61 94 100 100 89 67 67 56 60 62 52 32 30 26 21 18 20 21 23 20 11 7 10 19 16 14 14 12 10 11 14 12
9 15 14 17 32 95 100 100 100 100 100 100 100 86 63 76 100 100 100 88 72 66 57 62 64 57 39 35 32 25 20 19 20 21 25 21 15 8 11 18 17 14 13 9 10 11 12
8 12 18 19 26 99 97 100 100 100 100 100 100 73 58 100 100 100 100 92 72 68 61 61 65 55 48 40 34 29 25 20 21 23 19 25 24 17 9 12 16 17 16 16 10 9 9
8 10 16 16 28 100 100 87 100 100 100 100 89 65 65 100 100 100 100 90 80 75 62 60 64 52 48 47 37 31 30 28 21 21 20 19 24 22 18 10 12 13 15 15 13 10 11
9 13 16 16 31 75 100 96 100 100 100 100 78 53 71 100 100 100 100 89 82 74 69 61 58 55 48 51 43 34 30 35 24 21 17 15 16 24 19 16 10 11 13 14 14 13 15
8 10 17 16 30 87 96 100 100 100 100 88 68 54 87 100 100 100 98 91 86 74 76 64 57 60 45 49 44 36 35 39 33 20 16 12 10 17 18 14 15 10 14 12 13 15 15
6 9 17 16 38 74 100 100 100 100 98 81 57 69 98 100 100 100 93 96 93 77 80 66 66 58 51 49 46 38 40 40 37 30 16 13 8 11 14 15 12 16 10 12 13 12 13
4 7 16 14 47 60 100 100 100 96 91 77 50 76 100 100 100 100 96 98 91 78 83 69 64 67 53 48 42 40 39 43 38 33 16 14 9 8 10 11 9 10 13 11 14 12 12
4 6 17 15 56 51 100 100 99 87 83 64 50 95 100 100 100 100 97 95 90 82 80 71 62 72 53 52 40 41 38 45 42 33 22 14 8 7 10 9 7 7 14 12 11 13 14
4 6 12 22 45 77 100 100 100 94 75 52 70 100 100 100 100 99 94 90 90 85 77 70 65 78 65 55 43 38 37 42 52 32 22 16 7 6 7 8 6 5 10 17 11 10 15
4 5 10 27 42 100 100 100 100 83 64 54 75 100 100 100 100 99 90 94 84 95 78 72 71 77 64 62 41 36 35 48 56 38 28 24 9 6 6 7 6 5 5 11 13 10 10
4 3 8 17 56 100 100 100 84 81 58 70 86 100 100 100 100 97 84 91 85 86 80 74 68 61 54 57 44 33 33 46 53 46 32 26 13 6 6 6 5 4 4 5 12 13 10
5 5 15 39 74 100 100 98 87 62 63 83 89 100 100 100 100 97 85 99 99 89 80 79 67 58 54 52 40 31 35 41 46 50 37 20 16 7 5 6 5 5 5 5 8 10 12
4 7 12 54 64 100 100 89 75 60 84 86 98 98 100 100 99 86 88 92 93 90 78 80 74 62 57 52 40 37 35 35 44 55 41 21 15 7 5 6 5 5 5 5 5 8 14
4 12 30 56 89 100 95 84 66 72 77 90 100 99 98 99 90 84 88 97 92 92 79 79 75 61 55 48 47 36 31 38 40 52 44 22 12 8 5 6 6 5 5 5 6 6 9
9 31 54 69 100 100 90 70 68 80 85 98 100 100 93 80 76 91 100 100 99 89 87 85 79 66 56 51 45 38 30 33 38 44 46 25 11 7 5 5 6 6 5 5 6 6 7
21 47 57 100 100 95 81 65 73 88 87 100 100 100 88 84 93 98 100 100 96 81 90 79 74 59 52 47 44 42 34 34 39 47 40 35 14 10 8 5 6 6 5 6 6 6 7
37 63 85 99 98 84 74 65 90 98 99 100 100 98 90 95 99 100 99 98 94 91 88 81 72 57 45 48 40 40 36 33 39 47 49 56 28 14 10 7 5 5 6 6 6 7 8
45 76 100 100 88 78 60 74 94 96 100 99 96 95 100 100 88 78 77 92 93 93 85 78 71 56 47 50 45 46 37 36 38 43 51 58 47 21 11 10 5 4 5 6 5 6 7
53 84 96 98 82 74 67 76 87 100 99 100 100 100 100 100 91 73 71 87 94 97 84 75 69 56 51 46 49 49 42 38 35 40 45 62 60 39 19 10 6 4 5 5 6 6 6

GFSGBSN_250_rhum_096.txt.gz
RH
71 64 60 76 59 55 61 60 60 63 62 65 70 65 70 79 94 94 100 97 72 69 60 48 38 16 9 9 5 3 2 1 1 2 2 3 4 5 6 9 10 17 9 12 16 25 26
55 57 66 78 63 73 66 79 81 80 72 76 76 66 74 87 97 95 100 94 73 73 70 49 45 20 11 11 5 4 2 1 1 2 2 3 5 6 8 11 11 19 20 15 18 25 30
22 24 26 32 53 81 74 87 92 93 94 87 79 70 77 93 99 100 100 94 72 75 70 54 50 26 12 10 6 5 3 2 2 2 3 3 5 6 9 10 9 17 25 24 23 27 29
16 17 17 24 43 61 61 79 90 90 100 98 90 82 82 93 100 100 100 90 71 73 69 57 48 34 17 14 11 7 5 2 2 2 2 4 4 7 7 9 12 12 19 19 20 25 29
10 11 15 19 19 26 41 63 78 100 100 100 95 85 83 95 100 100 100 88 73 74 70 52 52 37 25 18 13 9 9 5 2 2 2 3 6 8 8 9 10 10 18 21 19 31 42
16 14 17 16 16 17 20 53 66 90 100 100 93 87 86 100 100 100 100 92 81 80 69 55 56 47 36 23 17 16 10 8 4 3 3 3 6 12 10 8 9 10 15 22 20 31 31
25 15 17 16 19 18 17 20 59 76 100 100 100 95 99 100 100 100 100 90 81 86 67 60 60 56 47 27 18 22 14 9 10 4 4 3 4 16 18 13 9 9 8 15 20 20 24
18 17 14 16 17 22 22 18 25 63 96 87 100 94 100 100 100 100 100 76 84 82 63 60 60 61 45 32 24 21 18 12 11 15 6 5 4 5 13 16 16 12 10 11 15 14 21
13 18 17 15 16 21 23 17 28 52 74 91 100 100 100 100 100 100 98 80 89 86 60 62 60 64 46 41 29 27 22 14 13 13 18 9 8 6 8 12 15 17 14 12 14 16 12
13 10 15 13 14 16 25 18 21 33 69 100 100 100 100 100 100 100 80 86 89 77 68 65 57 65 55 42 33 29 27 20 14 16 12 20 16 10 9 11 12 13 13 13 12 12 14
12 9 10 13 14 17 25 18 22 37 84 100 100 100 100 100 100 100 80 86 89 66 72 65 57 67 56 40 39 36 32 27 20 21 18 14 19 23 11 12 10 13 11 10 13 12 13
5 5 6 9 13 17 22 19 19 47 80 100 100 100 100 100 100 99 83 87 87 67 79 67 58 67 56 42 40 42 34 29 23 21 21 18 15 21 25 13 14 11 11 12 10 11 9
3 3 4 8 10 14 23 17 15 40 97 100 100 100 100 100 100 100 84 89 87 78 77 71 58 65 58 46 42 46 41 31 26 22 19 19 14 15 22 25 14 13 12 12 12 10 10
3 3 3 7 9 14 21 18 29 39 98 100 100 100 100 100 100 94 84 88 79 88 82 76 62 60 58 47 46 47 42 34 34 27 22 19 12 10 14 20 23 15 11 12 10 9 10
2 2 3 6 7 14 22 17 25 40 97 100 100 100 100 100 100 82 92 92 73 92 86 75 63 67 60 54 52 42 41 34 37 30 24 22 15 9 9 14 16 23 17 15 15 11 9
2 2 3 5 7 14 21 20 25 58 98 100 100 100 100 100 90 81 100 88 71 96 95 73 57 66 61 56 48 40 37 38 39 31 20 18 14 9 8 9 12 15 18 16 13 14 12
2 2 3 6 6 9 16 34 55 71 100 100 100 100 100 94 82 93 99 79 77 99 98 75 60 64 70 49 44 39 37 38 38 36 22 16 14 9 6 7 8 10 12 15 16 13 14
2 2 3 6 5 8 17 16 27 90 100 100 100 100 100 93 77 90 96 70 89 98 95 78 66 62 62 53 39 40 38 36 37 38 27 15 12 9 5 5 7 6 8 10 13 15 13
1 2 4 5 5 8 10 16 42 100 100 100 100 100 100 78 87 98 87 76 91 97 88 80 69 64 57 50 47 40 38 35 40 39 32 18 14 10 5 5 6 6 6 5 9 18 17
1 3 5 6 5 7 9 12 66 100 99 100 100 100 99 77 91 100 87 79 91 94 86 83 71 68 58 46 47 41 37 38 41 36 40 27 16 16 8 4 4 5 5 5 5 9 19
2 4 4 6 5 8 11 36 98 100 100 100 100 100 87 76 89 100 86 86 85 92 88 80 71 70 66 55 45 45 42 39 39 42 43 34 19 20 8 4 4 6 5 5 5 6 14
2 4 4 5 6 7 10 42 97 100 100 100 100 98 80 70 96 100 93 85 92 97 88 79 73 74 66 53 45 42 40 42 41 42 47 40 23 17 11 4 4 5 5 5 5 6 9
3 4 4 4 7 8 13 60 94 100 100 100 99 92 86 81 100 99 93 85 93 90 96 82 71 74 63 54 40 40 38 38 41 44 47 38 29 15 14 7 4 5 6 5 5 6 6
10 6 5 5 7 14 38 71 100 100 100 98 88 79 90 77 96 96 88 93 100 97 99 86 71 74 62 50 39 38 42 41 38 45 47 36 29 12 9 12 6 4 5 5 5 5 6
10 8 6 7 8 24 59 100 100 100 97 91 88 95 87 87 85 82 82 98 100 100 97 88 76 73 69 54 39 36 39 40 36 40 50 43 26 16 11 13 10 5 4 5 5 5 6
10 8 6 8 21 54 96 100 100 100 92 80 80 88 93 77 85 99 100 100 98 100 97 94 85 76 71 54 44 37 39 39 35 39 45 44 35 41 20 14 13 10 4 4 5 5 6
9 7 8 23 46 76 100 100 100 99 80 75 78 91 76 70 99 99 100 98 98 98 99 100 92 72 68 56 47 38 37 38 37 38 40 48 48 46 41 20 12 12 6 4 4 5 5
9 7 16 38 76 100 100 100 100 93 73 74 72 86 66 82 99 100 100 98 98 91 100 100 92 72 64 59 47 41 36 38 39 36 38 44 47 51 51 32 19 13 10 5 3 4 5
9 9 32 70 98 100 100 100 97 80 71 79 74 89 84 92 100 100 94 97 90 91 100 100 92 77 67 64 50 45 39 38 41 40 39 40 46 62 55 54 25 14 15 9 4 4 4

GFSGBSN_250_rhum_099.txt.gz
RH
15 14 15 19 26 35 46 49 60 50 70 69 67 65 64 87 88 91 74 88 90 86 87 84 68 45 17 9 12 9 3 2 1 1 1 2 3 4 4 8 12 11 21 16 12 11 16
28 16 12 12 15 21 27 30 31 30 46 51 71 89 88 92 97 98 80 92 97 95 94 82 67 46 23 13 13 8 3 3 1 2 2 2 4 5 6 8 10 13 23 24 18 16 17
24 20 19 15 12 15 18 20 22 19 23 32 66 100 100 100 96 99 94 93 99 100 96 83 77 45 30 14 10 8 5 5 2 2 2 2 4 6 8 10 12 31 35 38 13 21 16
30 26 17 14 15 15 16 18 22 21 21 25 31 100 100 100 100 98 100 97 99 100 96 84 71 49 33 15 13 12 6 6 4 2 2 3 6 7 9 12 13 18 31 54 26 29 20
31 31 22 18 17 19 15 19 22 22 21 19 24 90 100 100 100 100 100 100 100 100 96 84 73 53 45 29 14 14 11 8 8 3 3 3 6 7 8 9 12 14 20 23 13 20 33
42 38 26 20 26 33 14 16 22 25 25 18 24 53 100 100 100 100 100 100 100 100 96 86 72 62 50 40 21 17 16 10 8 6 4 4 4 8 7 6 9 20 27 30 15 17 25
57 40 29 18 20 32 20 16 19 21 26 17 24 70 100 100 100 100 100 100 100 100 94 79 67 68 59 50 30 19 18 16 11 11 7 5 4 4 10 10 9 12 17 20 14 12 20
40 36 23 14 12 24 28 16 18 23 26 20 20 68 100 100 100 100 100 100 100 100 95 74 67 69 58 53 37 20 19 19 18 15 17 14 8 6 6 10 12 12 14 22 20 15 16
45 38 33 24 22 14 21 28 20 21 26 22 25 82 100 100 100 100 100 100 100 100 96 72 66 73 61 55 41 30 20 19 19 17 17 18 21 10 9 5 7 15 18 23 22 18 16
41 26 23 20 18 10 15 21 21 25 23 23 39 98 99 100 100 100 100 100 100 100 96 70 75 73 62 57 42 34 20 20 18 18 19 23 20 22 11 14 8 7 14 20 21 22 19
25 19 17 12 8 8 8 13 21 26 26 23 66 98 100 100 100 100 100 100 100 100 95 63 81 70 64 63 46 33 27 20 20 20 19 22 23 18 22 14 13 12 8 7 16 16 19
18 14 8 6 4 5 5 9 14 24 16 20 66 94 100 100 100 100 100 100 100 99 82 66 82 72 65 65 46 38 37 29 25 22 18 18 19 20 16 20 18 13 14 11 9 14 15
16 9 5 4 4 4 4 8 13 17 13 24 57 99 100 100 100 100 100 100 100 98 66 69 85 75 66 70 50 40 41 37 32 26 19 18 18 16 12 14 20 22 12 13 10 9 9
11 7 4 3 3 3 5 7 14 10 14 30 58 97 100 100 100 100 100 100 100 93 57 72 89 76 67 69 44 41 39 40 30 25 22 17 17 14 13 10 12 17 19 11 11 11 10
5 4 2 2 2 3 5 8 12 10 13 25 73 100 100 100 100 100 100 100 100 74 60 73 93 71 68 62 41 41 43 39 33 26 22 16 16 12 10 8 10 12 16 21 15 12 11
3 2 2 2 2 2 6 7 14 10 12 28 86 100 100 100 100 100 100 100 99 66 64 78 97 72 69 59 45 44 46 42 35 29 26 18 15 14 8 6 7 10 10 12 16 14 10
2 2 2 2 2 2 6 6 8 9 13 26 95 100 100 100 100 100 100 100 89 66 67 83 91 69 72 53 48 44 44 42 38 34 29 23 14 15 10 5 5 6 8 10 11 15 15
2 2 2 2 2 2 7 8 8 8 16 30 95 100 100 100 100 100 100 100 83 72 76 91 86 71 71 49 45 49 41 41 40 33 37 27 15 15 14 6 4 4 6 7 9 10 15
2 2 2 2 2 3 8 9 9 6 32 46 100 100 100 100 100 100 100 98 83 72 93 92 81 75 76 53 41 44 43 40 44 36 40 29 20 15 16 9 4 4 5 5 7 8 13
2 1 2 2 2 5 6 9 9 16 44 54 89 97 100 100 100 100 97 91 82 77 97 96 82 76 73 62 44 44 49 39 40 41 38 34 28 18 18 13 5 3 4 5 5 6 12
2 2 2 2 5 7 9 11 13 30 54 71 100 100 100 100 100 100 94 95 78 86 93 100 87 76 73 62 50 41 47 37 38 41 39 39 37 26 16 18 9 4 4 5 5 6 6
2 2 2 2 5 6 10 10 14 30 62 85 100 100 100 100 100 100 94 91 83 93 93 100 90 76 75 56 43 42 45 39 41 38 41 40 42 34 15 15 11 5 4 4 5 5 6
2 2 2 2 2 6 9 8 13 27 85 100 100 100 100 100 100 98 94 90 86 87 98 98 91 75 80 61 52 47 44 38 39 38 38 40 46 35 16 9 10 9 5 4 4 5 6
2 2 4 3 5 6 11 12 27 58 100 100 100 100 100 99 98 99 88 88 93 95 100 98 88 82 80 75 59 50 44 40 40 37 38 44 46 33 23 10 10 12 11 6 4 5 6
2 2 3 7 7 8 9 24 58 91 100 100 100 100 98 98 98 97 78 93 100 100 98 94 93 81 74 75 57 48 46 41 40 36 35 40 47 38 33 18 11 12 10 10 7 4 5
3 4 6 11 9 8 21 58 71 98 100 100 100 94 85 97 87 80 76 97 100 97 85 91 89 80 69 69 58 56 48 45 39 34 38 41 44 49 36 33 17 13 14 12 11 6 4
4 6 7 12 10 17 60 64 85 100 100 100 100 93 92 87 83 88 92 100 100 92 84 96 90 77 72 67 61 56 53 49 40 36 38 44 47 42 51 49 27 21 16 12 10 9 5
5 9 12 15 9 29 66 78 100 100 100 100 100 99 91 89 92 91 100 100 100 90 97 96 91 85 76 66 67 54 56 50 41 37 40 44 43 44 49 54 49 29 14 15 11 10 8
10 16 16 13 14 35 84 85 88 100 100 100 100 93 82 95 100 100 100 100 96 93 100 100 92 82 70 69 66 55 54 50 48 40 42 48 45 50 48 55 57 24 16 16 12 9 8

GFSGBSN_250_rhum_102.txt.gz
RH
37 38 32 26 22 20 24 14 16 17 22 21 25 24 29 32 36 40 68 72 91 100 100 74 85 80 58 32 10 12 9 4 2 2 1 1 1 2 2 2 3 4 5 8 10 10 13
46 42 36 37 33 27 24 23 19 20 19 23 17 20 26 23 30 34 78 70 98 100 100 82 99 82 58 36 18 17 10 5 2 3 2 2 2 2 3 3 3 4 7 18 26 21 22
61 62 56 56 45 45 50 26 25 22 20 22 20 20 23 21 20 33 64 83 100 100 100 83 100 86 65 50 27 18 15 6 3 3 2 2 3 5 5 5 5 6 9 23 22 15 12
61 66 58 55 37 46 46 33 22 26 29 20 21 22 22 20 19 39 79 94 100 100 100 95 100 85 65 62 29 20 18 7 4 4 3 3 4 5 7 7 7 9 16 24 45 20 15
88 72 62 46 38 36 44 46 24 25 29 20 22 20 18 18 20 38 93 100 100 100 100 100 100 85 74 56 34 27 20 12 4 4 6 4 4 5 8 10 12 12 33 45 59 35 29
93 81 60 51 32 23 30 25 30 30 33 23 20 23 19 19 20 76 100 100 100 100 100 100 100 90 80 56 48 34 23 18 13 9 7 9 6 6 7 10 15 16 20 20 26 23 18
98 88 59 38 36 20 16 23 20 33 38 22 25 23 23 20 23 100 100 100 100 100 100 100 98 80 85 62 55 39 25 20 23 21 18 14 15 10 10 11 11 23 25 25 32 19 12
90 71 53 34 39 16 14 13 17 23 17 21 27 22 23 21 32 90 100 100 100 100 100 100 99 84 78 68 61 49 25 20 24 24 22 21 20 18 19 11 12 20 23 28 26 21 24
74 64 47 36 20 11 13 10 13 18 18 16 24 21 21 20 50 98 100 100 100 100 100 100 98 91 72 72 67 56 31 23 22 22 25 26 28 20 17 23 15 16 18 19 27 24 30
62 48 39 20 11 9 10 10 8 12 16 12 20 22 21 26 66 100 100 100 100 100 100 100 96 95 66 73 75 60 34 26 20 20 24 30 32 29 21 14 23 13 18 17 20 23 26
60 46 26 17 8 7 6 7 6 8 14 11 19 18 17 21 58 100 100 100 100 100 100 100 97 85 65 72 76 57 37 27 22 18 19 24 30 34 29 22 13 24 14 14 13 16 17
53 38 24 9 7 6 5 7 6 7 15 14 18 17 16 28 51 100 100 100 100 100 99 100 100 71 69 73 72 52 37 27 23 21 19 22 27 30 30 25 16 14 23 14 13 13 11
48 25 11 8 6 5 5 5 7 6 8 14 20 13 13 27 64 100 100 100 100 100 100 100 100 64 74 75 67 48 37 30 24 22 21 20 23 24 26 24 14 12 10 22 14 12 14
42 20 8 6 5 3 3 3 5 5 9 12 20 11 15 32 74 100 100 100 100 99 100 100 92 69 75 76 63 48 38 31 27 26 23 20 19 22 18 19 15 9 10 11 22 14 16
28 13 6 4 3 2 2 2 3 4 9 11 18 10 17 38 75 99 100 100 100 98 100 100 75 75 75 78 59 44 38 35 30 28 25 22 16 19 16 14 13 8 6 8 12 24 13
22 9 4 2 2 2 2 2 2 4 8 10 15 11 19 53 76 100 100 100 95 100 100 99 80 82 80 81 54 46 43 39 35 30 28 22 15 16 15 11 10 7 5 6 7 10 19
13 6 3 2 2 2 2 2 2 4 8 11 13 17 29 64 83 100 100 100 90 100 100 90 91 90 82 82 48 46 50 42 35 32 31 24 18 14 15 12 8 6 4 5 6 7 10
7 4 2 2 2 2 2 2 3 4 6 13 15 25 50 92 94 100 100 100 100 100 100 87 100 92 79 78 48 47 50 42 35 33 32 25 25 13 16 15 10 6 4 4 5 6 8
5 3 2 2 2 1 2 2 3 4 12 15 18 33 74 90 100 100 100 100 100 100 94 93 100 94 81 76 65 43 47 46 37 36 36 30 25 18 13 16 14 8 4 3 5 5 6
5 3 2 2 2 2 2 2 2 6 11 12 17 46 83 85 100 100 100 99 100 100 99 99 100 94 80 78 69 43 44 46 38 39 40 33 27 22 14 15 15 11 6 3 4 4 5
6 3 2 2 2 2 2 2 3 7 14 15 17 82 82 100 100 100 100 99 100 99 99 100 100 98 81 78 59 50 44 45 43 42 40 34 34 25 17 14 14 13 8 5 3 4 5
6 3 2 2 2 2 2 4 9 18 15 23 61 68 92 100 90 89 99 100 100 99 100 100 97 94 81 75 60 53 47 48 43 40 40 37 36 32 24 12 15 13 11 9 5 3 5
6 3 2 3 3 4 3 8 19 16 21 66 68 83 99 97 78 89 100 100 92 100 100 100 97 90 81 78 68 55 49 49 44 42 42 38 38 37 33 17 12 10 11 10 9 6 3
6 3 3 3 3 3 4 8 17 22 45 63 100 98 98 82 73 86 100 99 92 100 100 100 96 92 78 75 68 57 52 51 46 43 47 39 38 38 41 30 12 12 10 9 8 8 6
6 3 3 4 6 8 11 19 39 47 53 80 87 100 98 66 68 86 100 98 92 100 100 100 100 91 74 72 67 62 57 55 51 44 46 42 39 38 44 42 21 11 14 12 11 9 8
6 4 4 5 12 13 12 13 29 43 79 91 100 97 90 78 74 94 100 99 99 100 100 100 100 85 78 70 59 68 62 53 52 44 46 46 39 40 44 54 32 17 13 14 11 10 7
5 4 5 7 14 15 13 18 31 46 70 99 100 88 84 90 89 97 99 100 100 100 100 100 99 91 78 69 65 69 58 53 50 48 45 44 41 40 45 52 41 26 19 13 12 11 8
5 4 6 10 21 19 14 18 22 35 77 100 100 91 94 99 93 97 99 100 99 97 95 100 100 90 72 68 72 65 48 49 51 50 44 46 45 44 53 50 49 32 27 19 13 9 9
6 5 8 12 23 19 15 18 32 65 95 100 96 100 100 100 88 96 93 100 99 96 100 100 99 83 68 72 73 57 50 51 52 52 44 46 48 53 56 52 52 46 50 24 19 14 11

GFSGBSN_250_rhum_105.txt.gz
RH
80 77 67 72 63 64 66 81 46 42 27 24 20 22 15 22 20 17 14 15 22 38 43 48 62 68 72 63 36 12 9 8 5 3 2 2 1 1 1 1 1 2 2 2 3 3 3
86 78 82 84 66 82 73 60 55 42 28 21 26 20 16 20 22 20 17 22 37 35 49 58 91 85 89 68 34 16 9 10 8 5 2 2 1 1 2 2 2 2 2 4 4 4 4
100 100 100 100 83 78 84 74 54 39 27 28 24 20 18 20 22 23 19 26 28 29 63 80 100 99 93 69 44 18 13 12 9 5 2 2 1 2 4 4 3 2 4 4 6 6 7
88 83 99 97 87 77 76 72 45 27 19 19 29 24 19 19 21 24 22 26 24 38 78 100 100 100 94 62 60 26 14 12 7 4 3 3 2 3 4 8 7 4 4 5 7 12 8
85 86 97 99 86 76 67 44 31 23 16 15 27 29 17 20 20 23 24 23 26 48 100 100 100 100 90 71 68 32 18 13 8 3 4 5 5 3 6 7 12 10 6 6 6 11 11
87 80 97 82 100 88 57 45 24 14 11 12 21 26 17 16 19 23 27 28 26 67 100 100 100 100 82 78 69 34 28 20 14 7 8 7 6 8 6 7 11 17 14 10 8 7 8
100 100 92 90 78 78 53 30 15 9 8 10 18 23 16 15 17 24 27 25 30 100 100 100 100 100 86 73 76 45 34 26 17 14 16 15 14 14 12 9 8 13 29 19 15 14 9
100 100 91 79 63 57 37 15 9 6 6 7 15 22 15 13 18 19 27 20 62 100 100 100 100 100 90 79 73 57 39 32 21 18 19 23 25 21 20 17 16 10 14 23 32 25 19
97 93 90 73 51 42 21 11 7 5 5 6 11 17 13 12 16 20 17 26 94 100 100 100 100 100 96 90 68 64 46 35 24 20 18 22 24 29 28 24 21 22 11 15 22 27 28
99 89 95 67 50 34 11 7 5 5 5 6 10 10 16 13 13 16 18 40 100 100 100 100 100 100 100 92 81 66 53 36 23 20 20 22 27 29 33 35 25 18 23 22 20 30 28
100 88 82 59 48 23 8 6 4 4 4 5 10 14 17 13 14 15 22 40 100 100 100 100 100 100 100 89 85 72 55 34 25 24 22 21 22 28 30 28 27 20 16 17 20 18 21
100 90 60 48 51 23 7 4 3 3 4 5 9 16 21 14 12 13 17 46 100 100 100 100 100 100 100 90 87 76 52 34 24 22 20 20 23 24 26 23 23 21 15 13 18 17 16
100 81 60 36 31 10 5 3 2 3 3 6 8 12 18 16 15 16 24 49 100 99 100 100 100 100 100 97 87 71 47 33 28 24 20 18 17 18 19 20 20 20 16 11 11 18 22
100 69 54 36 23 6 4 2 2 2 2 6 9 14 17 18 18 17 34 75 100 93 100 100 100 100 100 100 86 67 45 34 31 28 25 23 17 18 18 16 16 16 13 10 8 12 26
77 39 28 26 10 4 3 2 2 2 2 6 8 11 14 20 22 19 50 80 100 82 100 100 100 100 100 98 88 57 43 36 32 29 26 25 19 18 18 15 11 11 11 8 6 8 14
74 30 23 15 8 3 2 2 2 2 2 5 7 12 14 22 23 25 68 86 100 91 100 100 100 100 100 92 86 48 45 39 34 32 27 24 17 14 18 15 11 9 9 6 5 5 8
57 29 15 7 5 3 2 2 2 2 2 6 6 13 17 23 28 46 83 100 87 93 100 100 100 100 100 85 81 47 46 40 37 37 29 24 18 14 15 15 13 10 8 6 4 4 5
47 22 14 5 3 2 2 2 2 2 2 4 6 11 16 29 52 72 81 100 81 99 100 100 100 100 98 83 81 62 46 43 42 40 31 27 22 14 14 15 13 11 8 6 3 4 5
46 21 10 5 2 2 2 2 2 2 2 4 6 11 17 28 58 74 69 94 97 95 100 100 98 100 96 89 84 54 45 44 44 45 35 30 26 21 13 15 15 12 10 7 4 3 5
30 17 12 5 2 2 2 2 2 2 2 5 11 18 23 37 68 61 76 91 99 95 100 100 98 98 98 90 84 54 45 47 45 46 38 35 34 25 15 15 16 13 9 8 6 3 4
32 16 8 4 2 2 2 2 2 2 4 10 21 25 33 61 59 68 83 98 98 100 100 100 95 100 97 86 79 58 48 49 46 45 42 40 41 31 23 15 15 12 11 9 7 6 4
60 17 8 4 3 3 2 2 3 4 9 22 26 30 37 60 61 75 93 94 87 100 100 100 94 100 95 87 84 59 51 48 46 45 44 45 45 35 28 20 13 11 11 10 8 6 6
63 20 11 3 4 3 3 4 5 19 24 22 33 43 57 58 72 85 90 91 94 100 100 99 99 100 96 93 87 66 54 52 49 49 49 46 45 39 33 23 12 8 13 10 10 8 6
41 21 12 4 4 4 4 5 11 26 29 35 45 45 55 62 75 78 89 100 99 100 100 98 98 99 97 90 86 64 57 54 52 52 48 46 45 44 38 26 18 12 11 11 10 8 8
40 20 12 5 5 5 6 7 16 27 42 55 59 66 70 63 80 86 99 100 100 100 100 98 98 97 98 89 82 63 58 54 53 50 48 47 41 44 42 35 29 20 18 11 9 9 8
38 21 14 6 6 7 11 11 19 29 53 62 71 83 73 61 74 86 98 98 98 94 95 89 97 97 100 90 78 63 58 55 52 49 45 48 43 43 39 37 37 42 22 18 13 11 10
42 28 13 6 8 15 21 16 17 24 37 62 74 75 68 59 77 92 100 100 100 83 80 86 94 98 99 92 76 65 53 54 51 48 45 48 41 39 38 38 38 38 31 20 15 13 8
74 31 18 7 9 14 16 22 24 19 31 64 82 77 63 72 90 94 100 100 100 88 82 90 87 97 97 99 82 68 53 53 52 50 48 49 45 44 39 38 42 50 40 26 18 14 12
61 25 18 8 13 15 23 23 26 27 48 54 68 72 60 75 97 95 100 100 96 90 87 92 87 87 100 94 88 74 61 52 53 54 51 51 48 46 43 37 39 48 48 34 28 22 15

GFSGBSN_250_rhum_108.txt.gz
RH
100 57 70 84 93 92 91 90 87 68 63 52 42 33 26 23 20 16 15 14 13 15 18 14 18 34 54 65 39 11 8 11 11 7 3 2 2 2 1 1 1 1 1 1 1 1 2
95 77 100 98 100 94 99 98 91 93 56 43 40 31 25 20 20 21 18 13 16 23 14 20 23 72 88 78 46 14 13 12 11 7 5 4 2 1 1 1 1 1 1 1 1 2 2
100 100 100 100 100 100 93 88 88 73 45 28 22 25 20 18 23 21 18 16 19 20 17 24 45 83 100 90 48 17 16 12 10 8 7 3 2 2 1 1 2 2 2 2 2 2 2
100 100 100 100 100 100 87 83 75 59 32 20 20 17 15 17 19 23 20 17 18 23 23 28 54 92 100 100 48 28 18 13 9 6 5 3 2 2 2 2 2 3 3 3 3 2 2
100 100 100 100 100 100 87 84 67 44 26 14 14 12 13 13 19 20 23 19 19 24 28 41 86 100 100 99 50 33 15 14 9 6 4 3 3 3 2 4 4 7 6 4 3 3 3
100 100 100 100 100 100 100 78 48 31 18 10 7 8 9 10 15 29 22 18 22 29 34 40 100 100 100 99 62 32 16 15 14 7 6 4 4 5 5 4 6 7 9 9 7 5 4
100 100 100 100 100 94 78 64 34 17 9 7 5 6 7 8 12 25 24 17 16 26 28 76 100 100 100 100 86 35 20 21 16 13 10 11 10 9 10 9 6 8 10 15 12 9 7
100 100 100 100 100 79 62 38 24 12 7 6 4 5 6 6 9 17 21 20 20 44 52 86 100 100 100 100 90 53 32 25 18 16 16 14 13 15 13 15 13 9 7 15 22 21 18
100 100 100 100 99 60 52 24 15 7 5 4 4 4 5 6 8 12 22 19 28 38 76 100 100 100 100 100 87 54 43 30 20 17 15 16 20 16 15 15 17 16 13 7 11 18 17
100 100 100 100 100 61 42 21 10 5 4 3 3 4 5 6 10 12 22 21 26 55 89 94 100 100 100 100 93 63 56 35 23 18 14 15 19 21 22 21 17 16 16 12 8 9 14
100 100 99 100 72 56 42 18 5 4 3 3 2 4 5 8 10 14 19 24 38 73 95 98 100 100 100 100 90 72 60 36 27 21 18 17 17 21 23 24 22 20 19 17 12 9 8
99 100 100 100 69 40 27 12 4 3 2 2 2 4 5 9 12 15 21 25 38 81 90 98 100 100 100 100 90 71 56 36 30 24 20 18 20 20 20 21 20 19 18 17 15 11 8
100 98 98 100 55 29 18 6 3 2 2 2 2 4 5 12 13 21 18 26 52 85 77 100 100 100 100 96 87 73 50 34 30 25 20 18 18 20 18 17 18 17 14 15 13 14 12
100 92 96 72 42 16 10 4 2 2 2 2 2 3 5 13 15 22 17 42 61 88 65 100 100 100 100 99 86 71 44 37 31 26 24 19 18 17 16 14 14 13 12 11 11 12 9
100 98 89 80 35 11 5 3 2 2 2 2 2 3 5 16 24 26 24 61 66 72 75 100 100 100 99 99 87 57 44 40 34 29 25 20 17 16 16 14 11 9 9 10 9 8 8
99 80 63 72 50 11 4 2 2 2 2 2 2 4 7 24 24 26 32 72 76 62 90 100 100 100 96 100 85 53 45 43 40 34 28 21 19 15 15 15 11 7 6 8 7 6 6
100 64 58 42 36 12 3 2 2 2 2 2 3 5 8 16 30 26 52 78 89 68 96 100 100 96 100 100 84 56 48 46 44 38 33 25 19 16 13 15 12 10 7 6 7 4 4
99 64 58 37 22 11 4 2 2 2 2 2 5 6 14 24 30 38 58 76 80 76 99 100 100 99 100 95 85 60 48 46 43 38 35 28 22 17 14 14 14 12 9 6 6 5 3
87 62 50 34 24 8 4 2 2 2 2 4 6 10 17 28 29 50 69 74 79 78 90 100 96 100 100 92 85 53 50 46 42 37 37 31 28 20 16 14 15 15 9 6 5 6 4
70 55 37 26 16 6 4 2 2 2 2 6 10 13 19 26 39 60 71 76 93 78 98 100 98 100 100 91 78 58 50 48 42 40 42 35 31 26 18 14 15 15 11 8 5 5 6
71 56 32 19 9 6 4 2 2 2 3 12 15 15 20 26 47 62 66 94 96 82 98 97 100 100 93 89 72 59 51 50 45 46 45 40 33 32 25 19 16 16 14 11 9 5 5
76 49 34 19 12 7 4 3 2 3 8 14 16 16 19 26 60 68 71 91 93 85 96 98 92 99 92 92 69 61 52 50 48 48 45 38 36 35 32 26 16 13 12 13 8 7 6
82 39 39 16 11 8 4 3 2 4 9 19 17 14 19 34 57 67 87 92 98 84 100 88 94 95 93 92 81 68 54 51 50 46 44 39 37 36 34 29 18 11 12 12 14 11 9
89 54 36 20 12 9 5 4 4 8 18 19 18 21 27 39 56 70 96 96 97 86 93 84 95 98 98 94 93 70 58 52 50 45 43 38 36 40 34 34 29 19 13 14 12 10 9
95 70 40 24 22 11 8 7 4 14 20 22 25 31 45 59 64 85 96 95 87 100 86 89 97 100 97 97 88 68 59 54 50 46 42 37 35 37 36 37 36 34 22 18 14 14 12
84 74 42 21 22 15 13 9 10 12 21 22 28 40 71 81 72 91 96 94 98 100 88 91 100 100 98 98 85 70 62 55 52 48 43 40 37 36 37 41 42 39 31 24 16 12 14
68 66 43 22 26 25 13 16 18 16 16 17 33 48 74 87 88 100 100 94 96 98 83 93 100 100 97 97 85 76 62 54 54 50 47 42 39 37 40 42 42 44 43 36 27 22 17
66 63 53 23 42 31 17 18 20 33 29 19 41 74 81 77 92 100 96 90 84 89 77 85 95 98 97 95 85 82 73 58 54 51 50 48 45 41 40 41 39 44 45 52 37 26 21
69 47 59 50 29 36 17 30 21 20 33 40 47 70 82 96 98 100 98 100 94 95 71 72 87 92 96 96 90 84 79 61 51 49 55 52 49 43 42 43 42 38 48 52 39 36 32

GFSGBSN_250_rhum_111.txt.gz
RH
100 97 100 100 100 100 100 100 100 100 98 100 86 52 36 25 25 26 19 17 14 15 15 14 13 16 19 24 26 21 8 10 13 17 7 4 3 2 1 1 1 1 1 1 1 1 1
100 99 100 100 100 100 100 100 100 100 100 96 69 41 29 18 21 22 18 16 16 17 18 16 17 22 26 45 41 29 16 16 22 11 10 5 3 2 1 1 1 1 1 1 1 1 1
91 100 100 100 100 100 100 100 100 100 99 86 47 37 26 16 15 16 16 16 17 18 20 17 19 34 61 43 66 30 20 30 16 12 10 6 4 2 1 1 1 1 1 1 1 1 1
100 100 100 100 100 100 100 100 100 99 86 59 32 26 19 14 10 13 14 16 18 18 17 21 33 75 99 72 68 34 36 24 18 12 8 6 3 2 2 2 2 2 2 2 2 1 1
100 100 100 100 100 100 100 100 100 98 69 37 19 14 13 11 7 9 13 15 19 18 20 29 58 100 91 76 65 38 37 24 16 9 6 4 4 2 2 2 3 2 2 2 2 2 2
100 100 100 100 100 100 100 100 100 100 51 19 11 9 7 6 6 7 11 12 24 19 26 46 82 100 94 93 61 51 32 27 14 8 6 4 3 3 3 2 2 4 3 4 4 3 2
100 100 100 100 100 100 100 100 98 91 38 11 7 6 4 4 4 6 8 11 30 32 30 58 84 100 100 89 68 49 30 26 15 11 8 6 5 5 6 5 4 5 6 5 5 7 6
100 100 100 100 100 100 100 88 71 42 18 6 5 4 3 4 4 6 8 11 26 28 49 74 92 98 93 85 77 46 35 22 17 14 11 8 7 8 9 9 9 8 6 9 5 6 12
100 100 100 100 100 100 84 56 32 14 7 4 3 3 3 3 4 6 9 16 26 33 61 100 96 100 83 96 74 44 41 26 19 16 12 11 11 10 11 12 12 12 11 7 10 9 10
100 100 100 100 100 96 52 40 16 6 3 3 2 2 3 3 4 6 9 13 33 42 78 100 99 99 87 100 68 40 39 24 19 16 14 13 14 16 15 11 13 13 13 10 7 10 9
100 100 100 100 100 97 33 25 9 4 2 2 2 2 2 3 5 6 10 18 29 36 98 100 100 92 94 100 66 49 42 26 21 18 17 18 17 16 16 16 13 12 12 13 9 6 11
96 100 100 100 100 76 35 16 5 3 2 2 2 2 2 4 5 7 15 18 26 55 100 100 100 95 96 98 67 60 44 32 25 22 18 18 18 16 16 14 13 13 11 10 11 8 6
98 100 97 100 92 50 25 8 4 2 2 2 2 2 3 4 7 12 18 23 25 58 100 100 100 100 100 98 74 66 43 32 25 22 16 16 16 16 13 13 11 10 10 9 9 9 7
100 100 100 100 73 34 18 6 4 2 2 2 2 2 4 6 10 17 23 26 29 85 96 100 99 100 100 98 78 62 42 34 28 25 19 16 17 17 13 11 9 8 7 7 8 8 7
94 100 92 100 47 26 12 6 3 2 2 2 2 3 5 7 13 20 32 30 24 89 90 99 100 100 100 96 79 50 43 36 32 27 21 17 15 16 14 11 8 6 6 6 7 8 7
100 96 95 80 38 20 8 5 3 2 2 2 2 4 6 10 16 28 31 23 37 86 89 95 100 100 100 91 68 51 48 42 35 29 23 19 16 15 14 12 9 7 6 5 6 7 6
100 100 88 82 42 16 6 4 2 2 2 2 4 5 9 18 22 28 28 32 70 87 90 95 100 99 100 86 63 59 52 42 35 32 26 22 18 13 12 13 12 10 6 5 5 6 6
100 99 92 84 47 12 6 4 2 2 2 2 5 6 11 18 17 27 38 53 72 77 92 100 100 100 100 88 70 55 53 43 39 35 29 25 18 14 10 13 13 12 9 5 5 5 6
100 89 83 72 60 12 5 4 2 2 2 4 6 9 12 13 26 40 48 74 92 78 95 92 98 100 93 98 64 57 51 45 39 35 33 29 22 17 13 12 13 13 12 7 4 4 5
100 88 80 70 38 12 6 3 2 2 4 5 8 13 17 22 29 45 58 83 87 85 91 95 98 100 98 97 64 57 53 45 40 37 34 30 26 20 15 12 13 13 14 12 9 4 4
100 91 88 82 61 12 6 4 3 3 4 6 9 11 18 25 40 54 76 96 87 84 91 93 100 100 99 90 68 59 55 47 42 40 36 31 31 26 21 20 12 12 12 12 11 9 5
100 98 66 81 78 15 6 7 4 4 4 11 10 14 24 34 44 60 82 95 86 90 86 95 97 98 98 90 74 68 60 50 44 41 35 32 34 30 29 26 18 12 10 11 12 10 9
100 100 86 87 82 32 8 10 7 4 8 11 13 16 24 31 49 71 86 94 83 87 96 100 97 100 100 92 75 75 58 52 45 40 38 32 35 35 35 29 23 16 12 12 14 13 13
100 98 82 79 90 49 11 16 14 6 15 18 20 23 31 47 71 90 100 98 81 88 100 100 99 100 100 92 90 75 61 52 47 43 42 34 36 38 35 33 30 24 19 14 16 16 15
100 80 98 73 95 60 12 11 16 18 18 23 25 34 39 51 88 100 100 100 81 92 100 100 100 100 98 98 94 79 64 53 50 47 43 42 38 38 36 36 34 32 22 19 22 17 19
100 86 100 100 96 95 22 16 21 21 20 25 23 27 49 69 96 100 100 99 89 95 100 97 98 100 99 97 92 82 64 55 52 51 46 46 41 41 36 35 39 35 30 32 22 17 15
99 100 100 100 97 99 29 16 13 20 24 42 45 45 62 90 89 100 100 100 100 100 95 89 100 99 96 94 95 82 66 58 58 53 51 48 44 43 39 37 42 40 39 37 36 24 20
99 100 100 100 100 99 30 14 16 18 26 34 52 60 75 92 94 100 100 100 100 99 98 80 98 100 98 96 98 86 77 66 61 53 53 50 48 44 42 40 41 44 41 42 40 34 28
100 100 100 100 100 100 62 12 17 16 29 34 42 80 92 82 91 100 100 100 100 93 100 81 85 98 97 95 99 95 83 80 64 54 52 55 52 48 42 44 43 42 45 42 44 39 39

GFSGBSN_250_rhum_114.txt.gz
RH
100 98 90 100 100 100 100 100 100 100 100 100 100 96 73 60 33 28 22 19 16 14 16 16 13 13 15 17 20 22 18 11 7 7 6 6 5 3 3 3 2 2 2 2 1 1 1
100 99 100 100 100 100 100 100 100 100 100 100 98 82 46 39 18 18 17 19 16 14 15 16 16 16 18 22 34 44 26 9 10 12 16 10 4 3 2 2 2 1 1 1 1 1 1
100 100 100 100 100 100 100 100 100 100 100 100 88 42 43 26 13 12 13 18 17 15 15 19 19 19 24 51 68 57 14 15 27 27 16 12 6 4 3 2 2 1 1 1 1 1 1
100 100 100 100 100 100 100 100 100 100 100 100 65 32 24 21 10 8 10 17 15 15 20 21 20 25 30 83 93 36 25 42 38 22 15 12 8 5 4 2 2 1 1 1 1 1 1
100 100 100 100 100 100 100 100 100 100 95 68 49 33 16 11 6 5 7 13 12 15 18 26 29 27 76 99 68 50 38 48 36 20 14 10 7 5 3 2 2 1 1 1 1 1 1
100 100 100 100 100 100 100 100 100 100 100 58 27 14 9 5 4 4 5 9 9 15 21 36 31 52 100 98 90 54 64 51 29 19 12 7 6 4 3 2 2 2 2 2 2 1 2
100 100 100 100 100 100 100 100 90 88 61 23 11 6 4 3 3 4 4 6 7 14 19 44 42 91 90 100 94 69 70 41 24 17 11 7 5 3 3 3 2 2 2 2 3 2 2
99 97 100 100 100 100 100 77 58 56 18 10 6 3 3 2 3 3 4 5 8 12 32 45 59 96 96 98 78 90 63 30 21 17 10 8 6 5 4 4 4 5 4 3 4 3 2
100 89 100 100 98 98 86 44 33 17 8 5 3 2 2 2 2 2 3 5 11 15 30 51 65 100 94 95 84 84 53 27 20 14 12 8 7 7 6 5 6 6 6 5 5 4 3
99 66 100 100 100 80 63 20 17 9 5 3 2 2 2 2 2 3 4 6 14 28 30 56 85 96 100 92 98 72 36 26 20 16 14 12 10 10 9 7 7 7 7 7 6 6 4
99 100 100 100 78 72 33 14 10 6 3 2 2 2 2 2 2 3 5 9 21 27 45 60 76 95 100 99 88 60 32 26 19 16 16 14 13 12 10 9 8 8 7 7 8 6 7
94 100 100 84 100 68 64 11 8 3 2 2 2 2 2 2 3 4 6 20 25 35 42 75 90 100 100 100 76 47 32 26 22 18 18 17 14 11 9 9 9 8 7 6 6 6 5
80 100 100 93 89 86 65 12 6 2 2 2 2 2 2 3 4 6 10 28 30 51 58 77 97 100 100 95 68 42 35 27 23 20 18 18 15 12 9 8 8 7 7 6 5 6 7
90 100 100 70 83 75 69 10 5 2 2 2 2 2 2 4 5 10 18 26 52 49 61 86 100 100 97 88 61 44 37 29 24 21 20 18 15 14 12 9 7 6 5 4 4 5 7
85 91 100 54 58 68 36 8 4 2 2 2 2 2 4 5 9 16 24 31 52 56 68 97 100 100 96 78 54 45 39 33 26 24 19 16 14 13 12 10 7 5 4 4 4 5 6
98 100 100 60 74 82 20 6 2 2 2 2 2 3 4 8 12 21 28 30 53 77 88 100 100 93 95 70 52 49 44 35 29 24 20 16 14 12 12 9 8 5 4 4 4 4 5
78 100 100 51 52 76 40 4 2 2 2 2 4 4 6 11 17 21 25 40 70 73 98 100 100 87 85 63 56 50 44 36 30 26 21 17 14 13 11 11 9 8 4 4 4 4 4
82 96 94 83 54 89 64 5 3 3 2 4 5 6 9 10 13 20 33 48 74 90 100 100 98 91 76 63 59 48 43 37 34 30 24 22 15 11 12 10 10 9 8 4 3 4 4
79 89 79 70 60 58 62 30 6 5 5 4 6 8 8 11 18 27 36 58 75 96 100 100 92 92 75 66 57 48 46 40 38 33 29 24 18 17 10 11 11 12 11 8 4 4 4
98 81 89 87 76 72 94 60 11 8 6 8 10 12 10 15 27 33 38 65 75 93 100 98 92 92 77 61 61 55 48 43 40 34 31 27 20 18 11 10 12 12 13 11 7 4 4
100 100 88 79 93 63 85 56 27 17 12 13 14 12 17 28 39 45 66 94 83 89 100 98 93 95 73 64 61 58 49 46 40 37 33 32 25 21 14 13 11 11 13 12 11 7 4
100 72 98 66 100 65 69 79 60 12 16 15 16 20 26 42 62 76 98 99 88 86 97 96 89 91 76 68 66 64 51 46 42 40 35 34 31 27 22 19 17 11 10 11 13 14 12
100 100 100 95 88 79 65 96 82 47 15 18 17 27 41 62 69 93 100 98 95 92 98 100 92 94 81 72 69 68 53 49 46 44 39 38 35 31 32 24 23 16 14 12 14 15 17
99 100 80 100 95 86 70 92 85 74 27 17 16 26 49 79 83 100 100 100 96 96 99 100 99 96 95 73 71 76 61 53 50 49 42 40 40 36 36 31 28 23 19 15 13 16 17
100 100 99 92 100 100 99 96 100 81 87 14 16 20 39 63 94 100 100 100 94 99 100 100 100 100 99 80 80 82 71 57 52 51 47 44 42 40 40 36 32 28 23 23 16 18 19
96 100 100 94 100 98 100 100 100 100 92 62 14 24 34 60 98 100 100 100 96 99 100 100 100 100 100 98 94 88 75 61 53 53 50 48 47 44 41 39 33 32 29 25 23 22 22
100 100 93 100 100 99 100 76 100 99 100 75 16 24 32 53 83 100 100 100 98 98 98 100 100 100 100 100 100 91 81 66 59 57 52 50 48 48 44 42 37 35 34 29 27 29 28
97 100 100 100 100 100 100 100 100 100 97 99 18 22 39 45 73 90 100 100 100 98 95 98 100 100 99 100 98 96 85 84 66 66 58 49 52 51 47 43 41 38 35 33 30 32 34
100 90 98 100 100 96 100 100 100 100 97 99 23 17 32 51 64 87 93 98 100 100 100 100 100 100 91 94 98 99 95 87 86 70 67 57 53 54 51 46 43 40 38 36 33 36 33

GFSGBSN_250_rhum_117.txt.gz
RH
100 84 100 100 100 100 100 100 100 100 100 100 100 100 100 100 100 100 93 54 32 21 15 16 13 13 13 14 13 13 13 11 10 8 6 5 4 3 3 3 3 3 2 2 2 2 2
93 81 95 100 100 100 100 100 100 100 100 100 100 100 100 100 100 84 41 28 22 16 14 14 15 15 16 16 19 18 20 13 10 8 6 4 4 4 4 3 3 2 2 2 2 2 2
86 74 100 100 100 88 100 100 100 100 100 100 100 100 100 88 74 37 21 13 16 12 12 16 15 17 23 23 27 24 17 11 10 9 6 8 8 8 4 4 3 3 2 2 2 2 1
89 100 97 100 100 82 100 96 100 100 100 100 100 96 85 45 21 12 8 9 10 9 13 17 19 30 26 40 36 27 29 20 32 31 21 17 11 5 4 3 2 2 2 1 1 1 1
53 93 98 100 100 100 100 80 98 94 65 50 49 35 19 11 7 6 6 6 7 8 16 20 28 26 51 51 44 61 35 52 53 35 21 14 10 7 5 3 3 2 2 2 1 1 1
70 60 100 100 100 98 100 63 72 44 42 19 11 6 5 5 4 3 4 4 5 8 18 22 23 41 61 70 87 67 64 72 44 27 20 14 11 9 6 4 3 2 2 1 1 1 1
65 62 100 100 100 100 96 70 26 14 9 5 3 3 2 2 2 2 2 4 5 11 20 20 34 51 86 93 78 84 98 74 33 26 18 13 10 7 5 4 3 2 2 2 2 1 1
78 59 65 100 100 100 99 77 20 6 3 2 2 2 2 2 2 2 3 4 6 13 17 27 33 80 98 89 99 98 81 39 30 23 15 11 7 5 4 3 3 2 2 2 2 2 2
45 81 82 100 100 77 92 40 13 3 2 2 1 1 1 2 2 2 3 4 8 14 22 31 61 72 88 96 100 100 50 33 26 17 13 9 8 6 5 4 3 3 3 2 2 2 2
40 77 96 77 100 85 87 10 6 2 2 1 1 1 1 2 2 2 3 6 9 16 30 32 64 82 94 100 100 78 36 30 23 18 16 12 10 8 6 4 4 3 4 4 3 3 3
25 84 90 68 100 99 83 6 4 2 2 1 1 1 2 2 2 3 4 7 11 29 28 50 80 91 100 100 94 43 36 30 21 18 15 12 11 10 7 6 4 4 3 4 4 4 3
30 34 55 79 80 100 89 7 4 2 2 1 1 2 2 2 2 4 6 10 20 26 43 71 88 100 100 100 63 40 32 25 22 19 17 13 11 10 8 5 4 4 3 3 4 3 4
42 49 39 99 71 75 83 8 3 2 2 2 2 2 2 3 3 5 9 16 23 33 53 90 99 100 100 81 47 36 29 23 21 18 17 14 11 9 7 5 4 4 3 3 3 3 4
54 41 49 66 55 82 67 12 4 3 2 2 2 2 3 3 4 7 12 21 33 43 97 95 100 100 98 54 42 34 28 24 22 20 18 17 14 11 8 6 5 3 3 3 3 3 5
68 36 39 38 88 64 65 45 7 4 3 3 3 3 4 4 6 10 19 28 41 87 99 100 100 100 73 47 39 35 30 26 24 21 16 15 13 10 7 5 4 3 3 2 3 3 4
66 50 39 38 44 94 72 80 11 8 5 4 4 4 6 7 10 14 22 41 74 99 100 100 100 88 53 46 41 35 32 30 24 19 16 13 13 10 8 6 5 4 3 2 2 3 4
65 50 75 35 31 68 70 77 50 10 8 6 5 6 9 10 12 14 31 70 91 100 99 100 94 65 54 50 43 35 35 32 25 18 15 14 13 12 9 8 7 6 5 4 3 3 4
63 62 62 46 46 36 70 57 87 14 14 8 9 13 12 11 16 26 49 71 94 100 100 99 81 61 57 50 42 36 36 30 27 22 19 15 12 13 14 11 7 8 6 4 4 3 3
39 59 76 52 63 31 62 62 88 65 17 19 11 11 14 17 27 49 67 89 100 100 100 91 70 63 53 48 42 38 37 34 30 27 25 20 16 15 15 14 13 11 9 5 4 4 3
54 40 59 69 56 46 41 100 82 99 55 20 15 14 17 31 48 68 85 96 100 97 93 90 71 62 51 47 43 40 38 38 34 33 30 27 22 18 18 16 13 13 12 10 5 5 6
70 66 58 59 85 55 43 94 100 100 95 46 16 13 21 36 57 82 86 98 100 100 96 94 76 61 55 51 47 43 42 41 39 38 35 32 31 26 24 17 15 14 14 14 12 6 6
91 64 62 60 81 63 58 52 100 100 72 96 57 18 26 59 56 79 81 100 99 100 100 100 84 66 63 59 54 48 46 46 44 43 39 38 37 32 28 24 21 18 16 14 15 13 11
71 85 72 64 74 92 76 54 88 100 100 99 97 68 20 51 62 81 86 94 100 100 100 100 99 77 70 67 62 55 51 49 49 46 44 42 42 38 34 30 27 22 19 16 14 15 15
80 100 93 76 76 100 97 64 100 83 100 100 100 100 35 28 54 77 91 87 100 100 100 100 100 100 81 74 71 66 58 53 51 51 49 46 46 44 40 35 32 29 26 21 18 15 15
100 100 100 76 86 81 96 77 100 72 100 100 100 100 96 21 35 56 68 97 88 99 100 100 100 100 100 96 79 78 71 59 55 55 52 49 50 50 46 41 37 34 32 29 25 20 18
100 100 92 76 88 62 100 71 93 100 98 100 100 100 100 59 19 39 60 70 89 91 89 92 97 96 97 100 100 91 81 67 57 59 59 53 51 53 51 47 44 40 38 36 32 26 21
100 100 100 84 87 64 100 85 99 100 100 100 100 100 100 98 23 25 46 58 66 85 89 79 82 89 85 95 97 94 96 82 66 60 66 61 55 53 55 53 50 46 43 42 39 34 27
94 100 99 100 84 77 90 85 90 100 100 100 100 100 100 100 69 18 35 50 60 70 89 95 93 86 76 80 89 92 90 94 82 76 76 70 65 60 57 58 58 53 49 46 45 42 37
96 100 100 100 75 85 93 84 82 100 100 100 100 100 100 94 94 24 21 47 63 66 77 94 97 96 93 95 86 92 97 94 94 90 85 76 70 71 70 64 63 63 57 53 48 46 41

GFSGBSN_250_rhum_120.txt.gz
RH
24 44 38 53 100 100 100 90 100 90 100 100 100 100 100 100 100 100 100 99 100 95 49 41 31 21 18 16 15 13 12 11 10 8 6 5 4 4 3 3 2 2 3 3 3 3 3
32 42 48 58 100 100 100 100 100 78 71 60 65 53 53 74 59 61 71 74 65 50 19 25 20 17 17 15 14 15 15 13 11 9 7 6 5 4 3 2 2 2 2 2 2 2 2
42 41 28 48 100 100 100 100 92 63 24 21 15 15 14 16 16 17 18 22 20 15 13 18 13 16 16 17 19 17 17 17 12 11 11 8 6 4 3 3 3 2 2 2 2 2 2
58 44 34 46 98 96 100 100 69 19 12 7 6 5 4 4 6 7 9 10 10 10 14 12 13 19 20 23 22 20 18 16 18 16 15 8 5 4 5 4 3 2 2 2 2 2 2
52 36 33 44 84 66 100 97 30 12 6 3 2 2 2 2 3 4 5 6 9 11 10 12 20 21 28 29 25 29 35 33 49 38 27 18 14 10 6 4 4 4 3 2 2 2 2
67 43 29 47 87 42 100 71 11 6 3 2 2 2 1 2 2 3 4 6 8 9 10 21 21 36 38 50 56 69 60 72 64 34 22 16 12 9 6 4 3 3 2 2 2 2 1
58 37 37 58 68 47 100 14 6 3 2 1 1 1 1 1 2 2 3 5 6 7 18 20 42 59 58 72 66 90 92 66 34 25 19 16 14 10 8 6 4 3 2 2 2 2 1
45 26 29 52 54 53 80 6 4 2 2 1 1 1 1 1 2 2 3 4 6 12 18 40 53 57 71 78 100 100 88 39 32 28 22 17 13 10 8 6 4 3 3 2 2 1 1
40 30 31 44 55 62 38 5 4 2 2 1 1 1 1 1 2 2 3 4 9 16 34 45 61 73 82 99 100 95 42 37 30 24 18 14 10 8 6 4 4 3 2 2 2 1 1
61 44 32 45 49 54 31 5 4 2 2 2 1 1 1 2 2 2 3 6 13 22 31 52 72 89 100 100 100 43 38 30 28 23 18 13 9 6 4 3 3 2 2 2 2 2 2
59 43 40 38 62 51 25 5 4 3 2 2 2 1 2 2 2 3 5 10 17 26 43 63 97 100 100 100 48 41 36 31 26 22 19 14 10 7 5 4 3 3 2 2 2 2 2
64 68 36 36 64 42 46 7 5 4 3 3 2 2 2 3 3 5 8 14 19 34 70 92 100 100 100 52 44 39 31 26 22 19 16 12 10 7 5 4 3 3 2 2 2 2 2
52 65 42 30 57 42 67 32 6 5 4 3 3 2 3 4 6 8 11 16 33 61 86 100 100 100 59 45 39 32 26 23 20 16 15 12 9 6 5 4 3 3 2 2 2 2 1
78 48 49 46 36 42 49 89 19 8 6 5 4 4 5 8 10 12 19 44 71 95 100 100 100 72 48 42 32 27 22 21 19 19 17 14 10 7 6 4 4 3 2 2 2 2 2
56 44 45 58 53 38 39 82 64 15 9 7 7 7 8 11 15 24 49 89 100 100 100 99 74 50 44 34 28 24 21 20 19 18 15 12 9 7 5 4 3 3 3 2 2 2 2
70 45 49 49 37 41 36 45 83 43 16 12 12 15 15 17 27 59 82 100 100 100 95 76 54 47 38 32 27 24 21 20 20 19 17 13 11 8 5 4 4 3 3 2 2 2 3
72 94 59 64 53 47 47 42 94 82 32 18 10 18 19 43 65 82 98 100 100 99 84 59 49 45 38 34 27 25 23 20 20 19 20 17 13 10 9 8 5 4 3 3 3 3 3
83 61 62 96 60 64 50 55 54 100 80 35 21 19 33 65 84 92 100 100 100 91 67 52 45 43 39 36 31 29 27 24 22 21 20 20 17 15 14 13 9 7 5 4 4 3 3
70 63 41 80 67 71 74 57 50 71 100 81 37 31 21 67 87 91 100 100 100 84 63 58 47 45 42 38 37 33 31 30 27 28 25 24 22 20 16 12 11 10 8 6 5 5 4
71 75 63 70 76 71 93 93 72 69 90 100 92 64 38 38 58 98 100 100 97 89 71 64 55 51 47 43 41 38 36 36 34 32 30 28 27 24 23 19 15 16 13 10 9 6 7
47 51 64 84 82 86 66 95 87 67 57 90 100 90 90 34 44 64 98 100 100 98 84 69 59 60 57 50 46 45 42 38 41 39 37 35 35 30 28 27 23 20 17 17 14 13 11
65 29 64 95 100 97 73 56 76 85 72 77 68 100 98 79 49 43 58 86 100 100 100 90 67 66 63 62 52 50 48 46 43 45 46 46 45 39 35 34 30 28 22 18 18 20 16
71 56 47 75 99 100 86 84 93 81 73 98 100 71 99 89 98 79 36 56 73 94 99 96 95 82 71 65 62 55 52 48 47 45 47 52 51 49 43 42 40 36 31 28 24 21 20
100 95 69 81 82 80 91 74 74 82 80 100 94 96 90 94 100 93 77 27 45 70 69 77 86 92 90 82 73 66 61 54 48 49 46 49 54 55 53 50 48 45 41 37 32 27 21
100 100 100 82 89 74 66 64 62 76 80 100 100 100 100 99 90 96 94 54 28 48 56 78 79 83 80 85 92 84 80 73 59 51 50 48 51 56 57 58 56 53 52 47 43 38 31
98 81 100 98 84 83 75 63 63 87 75 92 100 100 100 100 100 100 89 100 47 23 52 58 73 80 83 72 74 89 96 93 90 71 58 56 52 54 59 60 63 62 58 57 52 46 42
87 87 92 88 64 87 77 82 80 100 98 90 69 100 100 100 100 100 100 99 96 45 30 55 64 80 83 90 81 75 85 95 99 99 92 78 70 58 56 64 67 70 66 64 62 54 49
95 87 90 80 74 83 99 99 79 99 100 100 73 100 100 82 96 100 100 100 99 75 29 34 60 65 94 93 86 91 90 95 90 98 99 97 95 84 67 64 69 75 76 72 69 65 57
100 90 100 97 100 86 100 100 100 100 92 90 79 100 97 88 75 100 96 100 97 89 63 18 46 68 70 93 98 86 87 87 99 99 97 99 100 99 91 84 79 78 78 82 78 70 65